[[{"header":{"parameterUnit":"m.s-1","parameterCategory":1,"la1":30.6,"la2":29.2853,"lo1":-89.7004,"lo2":-87.6739,"dy":0.0162,"dx":0.0183,"nx":112,"ny":82,"refTime":"2024-05-08T00:00:00:Z","depth":0,"parameterNumber":2,"parameterNumberName":"U-component_of_WINDS"},"data":[0.0,0.0,0.0,0.0,0.0,0.0,0.0,0.0,0.0,0.0,0.0,0.0,0.0,0.0,0.0,0.0,0.0,0.0,0.0,0.0,0.0,0.0,0.0,0.0,0.0,0.0,0.0,0.0,0.0,0.0,0.0,0.0,0.0,0.0,0.0,0.0,0.0,0.0,0.0,0.0,0.0,0.0,0.0,0.0,0.0,0.0,0.0,0.0,0.0,0.0,0.0,0.0,0.0,0.0,0.0,0.0,0.0,0.0,0.0,0.0,0.0,0.0,0.0,0.0,0.0,0.0,0.0,0.0,0.0,0.0,0.0,0.0,0.0,0.0,0.0,0.0,0.0,0.0,0.0,0.0,0.0,0.0,0.0,0.0,0.0,0.0,0.0,0.0,0.0,0.0,3.394,3.5451,3.7168,3.7582,3.6181,3.6048,3.4577,3.1333,0.0,0.0,0.0,0.0,0.0,0.0,0.0,0.0,0.0,0.0,0.0,0.0,0.0,0.0,0.0,0.0,0.0,0.0,0.0,0.0,0.0,0.0,0.0,0.0,0.0,0.0,0.0,0.0,0.0,0.0,0.0,0.0,0.0,0.0,0.0,0.0,0.0,0.0,0.0,0.0,0.0,0.0,0.0,0.0,0.0,0.0,0.0,0.0,0.0,0.0,0.0,0.0,0.0,0.0,0.0,0.0,0.0,0.0,0.0,0.0,0.0,0.0,0.0,0.0,0.0,0.0,0.0,0.0,0.0,0.0,0.0,0.0,0.0,0.0,0.0,0.0,0.0,0.0,0.0,0.0,0.0,0.0,0.0,0.0,0.0,0.0,0.0,0.0,0.0,0.0,0.0,0.0,0.0,0.0,0.0,0.0,0.0,0.0,0.0,0.0,0.0,0.0,0.0,0.0,3.4187,3.5707,3.707,3.7469,3.652,3.6912,3.5629,3.1936,0.0,0.0,0.0,0.0,0.0,0.0,0.0,0.0,0.0,0.0,0.0,0.0,0.0,0.0,0.0,0.0,0.0,0.0,0.0,0.0,0.0,0.0,0.0,0.0,0.0,0.0,0.0,0.0,0.0,0.0,0.0,0.0,0.0,0.0,0.0,0.0,0.0,0.0,0.0,0.0,0.0,0.0,0.0,0.0,0.0,0.0,0.0,0.0,0.0,0.0,0.0,0.0,0.0,0.0,0.0,0.0,0.0,0.0,0.0,0.0,0.0,0.0,0.0,0.0,0.0,0.0,0.0,0.0,0.0,0.0,0.0,0.0,0.0,0.0,0.0,0.0,0.0,0.0,0.0,0.0,0.0,0.0,0.0,0.0,0.0,0.0,0.0,0.0,0.0,0.0,0.0,0.0,0.0,0.0,0.0,0.0,0.0,0.0,0.0,0.0,0.0,0.0,0.0,3.3609,3.4073,3.4164,3.5642,3.6222,3.5046,3.5515,3.458,3.1548,3.1378,0.0,0.0,0.0,0.0,0.0,0.0,0.0,0.0,0.0,0.0,0.0,0.0,0.0,0.0,0.0,0.0,0.0,0.0,0.0,0.0,0.0,0.0,0.0,0.0,0.0,0.0,0.0,0.0,0.0,0.0,0.0,0.0,0.0,0.0,0.0,0.0,0.0,0.0,0.0,0.0,0.0,0.0,0.0,0.0,0.0,0.0,0.0,0.0,0.0,0.0,0.0,0.0,0.0,0.0,0.0,0.0,0.0,0.0,0.0,0.0,0.0,0.0,0.0,0.0,0.0,0.0,0.0,0.0,0.0,0.0,0.0,0.0,0.0,0.0,0.0,0.0,0.0,0.0,0.0,0.0,0.0,0.0,0.0,0.0,0.0,0.0,0.0,0.0,0.0,0.0,0.0,0.0,0.0,0.0,0.0,0.0,0.0,0.0,0.0,0.0,0.0,0.0,3.337,3.3501,3.2965,3.4366,3.4937,3.3881,3.4196,3.3459,3.1313,3.1048,0.0,0.0,0.0,0.0,0.0,0.0,0.0,0.0,0.0,0.0,0.0,0.0,0.0,0.0,0.0,0.0,0.0,0.0,0.0,0.0,0.0,0.0,0.0,0.0,0.0,0.0,0.0,0.0,0.0,0.0,0.0,0.0,0.0,0.0,0.0,0.0,0.0,0.0,0.0,0.0,0.0,0.0,0.0,0.0,0.0,0.0,0.0,0.0,0.0,0.0,0.0,0.0,0.0,0.0,0.0,0.0,0.0,0.0,0.0,0.0,0.0,0.0,0.0,0.0,0.0,0.0,0.0,0.0,0.0,0.0,0.0,0.0,0.0,0.0,0.0,0.0,0.0,0.0,0.0,0.0,0.0,0.0,0.0,0.0,0.0,0.0,0.0,0.0,0.0,0.0,0.0,0.0,0.0,0.0,0.0,0.0,0.0,0.0,0.0,0.0,0.0,0.0,3.2106,3.2405,3.3436,3.4113,3.442,3.4363,3.436,3.3648,3.1862,3.1261,0.0,0.0,0.0,0.0,0.0,0.0,0.0,0.0,0.0,0.0,0.0,0.0,0.0,0.0,0.0,0.0,0.0,0.0,0.0,0.0,0.0,0.0,0.0,0.0,0.0,0.0,0.0,0.0,0.0,0.0,0.0,0.0,0.0,0.0,0.0,0.0,0.0,0.0,0.0,0.0,0.0,0.0,0.0,0.0,0.0,0.0,0.0,0.0,0.0,0.0,0.0,0.0,0.0,0.0,0.0,0.0,0.0,0.0,0.0,0.0,0.0,0.0,0.0,0.0,0.0,0.0,0.0,0.0,0.0,0.0,0.0,0.0,0.0,0.0,0.0,0.0,0.0,0.0,0.0,0.0,0.0,0.0,0.0,0.0,0.0,0.0,0.0,0.0,0.0,0.0,0.0,0.0,0.0,0.0,0.0,0.0,0.0,0.0,0.0,0.0,0.0,0.0,3.2502,3.2619,3.25,3.3595,3.3949,3.2868,3.35,3.3159,3.1405,0.0,0.0,0.0,0.0,0.0,0.0,0.0,0.0,0.0,0.0,0.0,0.0,0.0,0.0,0.0,0.0,0.0,0.0,0.0,0.0,0.0,0.0,0.0,0.0,0.0,0.0,0.0,0.0,0.0,0.0,0.0,0.0,0.0,0.0,0.0,0.0,0.0,0.0,0.0,0.0,0.0,0.0,0.0,0.0,0.0,0.0,0.0,0.0,0.0,0.0,0.0,0.0,0.0,0.0,0.0,0.0,0.0,0.0,0.0,0.0,0.0,0.0,0.0,0.0,0.0,0.0,0.0,0.0,0.0,0.0,0.0,0.0,0.0,0.0,0.0,0.0,0.0,0.0,0.0,0.0,0.0,0.0,0.0,0.0,0.0,0.0,0.0,0.0,0.0,0.0,0.0,0.0,0.0,0.0,0.0,0.0,0.0,0.0,0.0,0.0,0.0,0.0,3.1979,3.2292,3.2238,3.183,3.283,3.3182,3.2202,3.2685,3.2529,3.125,0.0,0.0,0.0,0.0,0.0,0.0,0.0,0.0,0.0,0.0,0.0,0.0,0.0,0.0,0.0,0.0,0.0,0.0,0.0,0.0,0.0,0.0,0.0,0.0,0.0,0.0,0.0,0.0,0.0,0.0,0.0,0.0,0.0,0.0,0.0,0.0,0.0,0.0,0.0,0.0,0.0,0.0,0.0,0.0,0.0,0.0,0.0,0.0,0.0,0.0,0.0,0.0,0.0,0.0,0.0,0.0,0.0,0.0,0.0,0.0,0.0,0.0,0.0,0.0,0.0,0.0,0.0,0.0,0.0,0.0,0.0,0.0,0.0,0.0,0.0,0.0,0.0,0.0,0.0,0.0,0.0,0.0,0.0,0.0,0.0,0.0,0.0,0.0,0.0,0.0,0.0,0.0,0.0,0.0,0.0,0.0,0.0,0.0,0.0,0.0,0.0,0.0,3.132,3.1103,3.1209,3.1694,3.1759,3.2071,3.262,3.2163,3.1681,0.0,0.0,0.0,0.0,0.0,0.0,0.0,0.0,0.0,0.0,0.0,0.0,0.0,0.0,0.0,0.0,0.0,0.0,0.0,0.0,0.0,0.0,0.0,0.0,0.0,0.0,0.0,0.0,0.0,0.0,0.0,0.0,0.0,0.0,0.0,0.0,0.0,0.0,0.0,0.0,0.0,0.0,0.0,0.0,0.0,0.0,0.0,0.0,0.0,0.0,0.0,0.0,0.0,0.0,0.0,0.0,0.0,0.0,0.0,0.0,0.0,0.0,0.0,0.0,0.0,0.0,0.0,0.0,0.0,0.0,0.0,0.0,0.0,0.0,0.0,0.0,0.0,0.0,0.0,0.0,0.0,0.0,0.0,0.0,0.0,0.0,0.0,0.0,0.0,0.0,0.0,0.0,0.0,0.0,0.0,0.0,0.0,0.0,0.0,0.0,0.0,0.0,0.0,3.0575,3.1123,3.1498,3.1274,3.1967,3.2111,3.1331,3.1461,3.1332,3.0778,0.0,0.0,0.0,0.0,0.0,0.0,0.0,0.0,0.0,0.0,0.0,0.0,0.0,0.0,0.0,0.0,0.0,0.0,0.0,0.0,0.0,0.0,0.0,0.0,0.0,0.0,0.0,0.0,0.0,0.0,0.0,0.0,0.0,0.0,0.0,0.0,0.0,0.0,0.0,0.0,0.0,0.0,0.0,0.0,0.0,0.0,0.0,0.0,0.0,0.0,0.0,0.0,0.0,0.0,0.0,0.0,0.0,0.0,0.0,0.0,0.0,0.0,0.0,0.0,0.0,0.0,0.0,0.0,0.0,0.0,0.0,0.0,0.0,0.0,0.0,0.0,0.0,0.0,0.0,0.0,0.0,0.0,0.0,0.0,0.0,0.0,0.0,0.0,0.0,0.0,0.0,0.0,0.0,0.0,0.0,0.0,0.0,0.0,0.0,0.0,0.0,0.0,3.0321,3.0952,3.1355,3.1026,3.1601,3.1654,3.0763,3.0996,3.0791,2.9831,0.0,0.0,0.0,0.0,0.0,0.0,0.0,0.0,0.0,0.0,0.0,0.0,0.0,0.0,0.0,0.0,0.0,0.0,0.0,0.0,0.0,0.0,0.0,0.0,0.0,0.0,0.0,0.0,0.0,0.0,0.0,0.0,0.0,0.0,0.0,0.0,0.0,0.0,0.0,0.0,0.0,0.0,0.0,0.0,0.0,0.0,0.0,0.0,0.0,0.0,0.0,0.0,0.0,0.0,0.0,0.0,0.0,0.0,0.0,0.0,0.0,0.0,0.0,0.0,0.0,0.0,0.0,0.0,0.0,0.0,0.0,0.0,0.0,0.0,0.0,0.0,0.0,0.0,0.0,0.0,0.0,0.0,0.0,0.0,0.0,0.0,0.0,0.0,0.0,0.0,0.0,0.0,0.0,0.0,0.0,0.0,0.0,0.0,0.0,0.0,0.0,0.0,3.0306,3.0732,3.0986,3.0986,3.0986,3.0911,3.0698,3.0546,2.9985,2.887,0.0,0.0,0.0,0.0,0.0,0.0,0.0,0.0,0.0,0.0,0.0,0.0,0.0,0.0,0.0,0.0,0.0,0.0,0.0,0.0,0.0,0.0,0.0,0.0,0.0,0.0,0.0,0.0,0.0,0.0,0.0,0.0,0.0,0.0,0.0,0.0,0.0,0.0,0.0,0.0,0.0,0.0,0.0,0.0,0.0,0.0,0.0,0.0,0.0,0.0,0.0,0.0,0.0,0.0,0.0,0.0,0.0,0.0,0.0,0.0,4.0458,4.0915,0.0,0.0,0.0,0.0,0.0,0.0,0.0,0.0,0.0,0.0,0.0,0.0,0.0,0.0,0.0,0.0,0.0,0.0,0.0,0.0,0.0,0.0,0.0,0.0,0.0,0.0,0.0,0.0,0.0,0.0,0.0,0.0,0.0,0.0,0.0,0.0,0.0,0.0,0.0,0.0,3.0171,3.0629,3.0911,3.0773,3.0773,3.0622,3.0241,2.9599,2.9028,2.8621,2.7891,0.0,0.0,0.0,0.0,0.0,0.0,0.0,0.0,0.0,0.0,0.0,0.0,0.0,0.0,0.0,0.0,0.0,0.0,0.0,0.0,0.0,0.0,0.0,0.0,0.0,0.0,0.0,0.0,0.0,0.0,0.0,0.0,0.0,0.0,0.0,0.0,0.0,0.0,0.0,0.0,0.0,0.0,0.0,0.0,0.0,0.0,0.0,0.0,0.0,0.0,0.0,0.0,0.0,0.0,0.0,0.0,0.0,0.0,0.0,4.0255,4.012,0.0,0.0,0.0,0.0,0.0,0.0,0.0,0.0,0.0,0.0,0.0,0.0,0.0,0.0,0.0,0.0,0.0,0.0,0.0,0.0,0.0,0.0,0.0,0.0,0.0,0.0,0.0,0.0,0.0,0.0,0.0,0.0,0.0,0.0,0.0,0.0,0.0,0.0,0.0,0.0,3.0098,3.0559,3.0849,3.0698,3.0216,2.9819,2.9521,2.87,2.7891,2.7221,2.673,0.0,0.0,0.0,0.0,0.0,0.0,0.0,0.0,0.0,0.0,0.0,0.0,0.0,0.0,0.0,0.0,0.0,0.0,0.0,0.0,0.0,0.0,0.0,0.0,0.0,0.0,0.0,0.0,0.0,0.0,0.0,0.0,0.0,0.0,0.0,0.0,0.0,0.0,0.0,0.0,0.0,0.0,0.0,0.0,0.0,0.0,0.0,0.0,0.0,0.0,0.0,0.0,0.0,4.129,4.1281,4.1671,4.0959,4.0795,4.1016,4.082,4.0035,3.8966,4.0001,0.0,0.0,0.0,0.0,0.0,0.0,0.0,0.0,0.0,0.0,0.0,0.0,0.0,0.0,0.0,0.0,0.0,0.0,0.0,0.0,0.0,0.0,3.3087,3.3087,3.2448,3.2087,3.2648,0.0,0.0,0.0,0.0,0.0,0.0,0.0,0.0,0.0,0.0,0.0,3.0069,3.0475,3.0622,3.0381,2.9574,2.8937,2.8542,2.7718,2.6812,2.5819,2.5663,2.5179,0.0,0.0,0.0,0.0,0.0,0.0,0.0,0.0,0.0,0.0,0.0,0.0,0.0,0.0,0.0,0.0,0.0,0.0,0.0,0.0,0.0,0.0,0.0,0.0,0.0,0.0,0.0,0.0,0.0,0.0,0.0,0.0,4.3358,4.3358,0.0,0.0,0.0,0.0,0.0,0.0,0.0,0.0,0.0,0.0,0.0,0.0,0.0,4.2294,4.1673,4.2241,4.2278,4.1791,4.1338,4.1123,4.1165,4.0743,4.0583,4.0577,4.0903,0.0,4.0273,3.9524,0.0,0.0,0.0,0.0,0.0,0.0,0.0,0.0,0.0,0.0,0.0,0.0,0.0,0.0,0.0,0.0,0.0,0.0,0.0,0.0,0.0,0.0,3.1334,3.1334,3.1272,3.1198,3.1272,3.2318,3.3059,3.2456,3.1668,3.0758,0.0,0.0,0.0,0.0,0.0,0.0,3.0405,3.0406,3.005,2.9118,2.8949,2.8462,2.7395,2.6565,2.5986,2.5819,2.4935,2.4368,2.4206,2.4024,0.0,0.0,0.0,0.0,0.0,0.0,0.0,0.0,0.0,0.0,0.0,0.0,0.0,0.0,0.0,0.0,0.0,0.0,0.0,0.0,0.0,0.0,0.0,0.0,0.0,0.0,0.0,0.0,0.0,4.3358,4.3804,4.2929,4.359,4.3786,0.0,0.0,0.0,0.0,0.0,0.0,0.0,0.0,0.0,4.2189,4.2535,4.2774,4.2959,4.3004,4.3146,4.323,4.2769,4.2586,4.2509,4.1934,4.1346,4.0836,4.0587,4.0151,3.9703,3.9424,3.8821,3.8067,0.0,0.0,0.0,0.0,3.6816,3.6492,3.6492,3.6492,3.6414,3.58,0.0,0.0,0.0,0.0,0.0,0.0,0.0,3.3297,3.2434,3.1955,3.1529,3.1123,3.0986,3.0986,3.0986,3.1408,3.1742,3.1559,3.1034,3.0432,2.9857,2.9594,0.0,0.0,0.0,2.9934,2.9679,2.9574,2.9094,2.8131,2.7476,2.6894,2.64,2.5589,2.502,2.4935,2.4444,2.411,2.4024,2.3841,2.3394,0.0,0.0,0.0,0.0,0.0,0.0,0.0,0.0,0.0,0.0,0.0,0.0,0.0,0.0,0.0,0.0,0.0,0.0,0.0,0.0,0.0,0.0,0.0,0.0,0.0,0.0,0.0,0.0,4.3804,4.4339,4.2787,4.4161,4.4492,0.0,0.0,0.0,0.0,0.0,0.0,4.2391,4.2428,4.2687,4.3201,4.3231,4.3495,4.4005,4.3938,4.4056,4.4423,4.3912,4.38,4.3962,4.2912,4.2188,4.1565,4.0657,3.9771,3.9011,3.9251,3.867,3.7498,3.7463,3.7355,3.7264,3.7141,3.694,3.6753,3.6675,3.6549,3.6234,3.5299,3.4846,3.4566,3.3808,0.0,0.0,0.0,0.0,3.2946,3.2015,3.1809,3.1676,3.1123,3.0986,3.0836,3.0659,3.0444,3.0444,3.0836,3.0336,2.9851,2.993,2.9452,0.0,2.931,2.9339,2.9112,2.8627,2.845,2.8051,2.7139,2.6318,2.5746,2.5505,2.4861,2.4368,2.4206,2.411,2.3937,2.3754,2.3396,2.2853,2.1952,0.0,0.0,0.0,0.0,0.0,0.0,0.0,0.0,0.0,0.0,0.0,0.0,0.0,0.0,0.0,0.0,0.0,0.0,0.0,0.0,0.0,0.0,0.0,0.0,0.0,0.0,0.0,0.0,0.0,4.3625,4.5481,0.0,0.0,0.0,0.0,4.2728,4.3997,4.4725,4.4463,4.4716,4.4776,4.4623,4.4774,4.4687,4.4266,4.5006,4.5209,4.4788,4.4043,4.4075,4.469,4.2944,4.2461,4.3037,4.1661,4.0278,3.9011,3.9011,3.8965,3.8776,3.7884,3.77,3.7935,3.7573,3.7446,3.7446,3.7223,3.6738,3.5926,3.4919,3.4124,3.3575,3.3297,3.3367,0.0,0.0,3.2146,3.2015,3.1259,3.1061,3.1061,3.0986,3.0849,3.052,2.9691,2.9303,2.9484,3.0533,2.9871,2.9195,2.9463,0.0,2.8836,2.8114,2.8492,2.8438,2.7313,2.7232,2.6812,2.5986,2.5819,2.5421,2.4625,2.4368,2.4206,2.4206,2.3764,2.3503,2.3503,2.2413,2.1784,2.1695,1.9861,0.0,0.0,0.0,0.0,0.0,0.0,0.0,0.0,0.0,0.0,0.0,0.0,0.0,0.0,0.0,0.0,0.0,0.0,0.0,0.0,0.0,0.0,0.0,0.0,0.0,0.0,0.0,0.0,4.4867,4.6773,0.0,4.5545,4.5286,4.5096,4.4701,4.5039,4.5096,4.4712,4.4736,4.4925,4.5136,4.5235,4.5499,4.5978,4.6271,4.6334,4.6131,4.5403,4.5192,4.5419,4.4035,4.3224,4.2801,4.1637,4.0158,3.8704,3.8704,3.8178,3.7374,3.7001,3.717,3.7683,3.7556,3.7349,3.7136,3.7068,3.6212,3.4917,3.3606,3.2577,3.1896,3.1823,3.1823,3.1823,3.1468,3.1394,3.1334,3.1061,3.0911,3.0685,3.0101,2.9793,2.9394,2.856,2.8176,2.8199,2.8597,2.8426,2.8275,2.8409,2.8227,2.7968,2.7711,2.7681,2.7395,2.64,2.6235,2.5913,2.502,2.4935,2.4786,2.4368,2.4206,2.4024,2.3764,2.359,2.3135,2.2413,2.1971,2.115,1.9877,1.8928,1.7955,0.0,0.0,0.0,0.0,0.0,0.0,0.0,0.0,0.0,0.0,0.0,0.0,0.0,0.0,0.0,0.0,0.0,0.0,0.0,0.0,0.0,0.0,0.0,0.0,0.0,4.546,4.6684,4.5545,4.7872,4.8708,4.653,4.6671,4.683,4.6465,4.6531,4.6519,4.6498,4.6123,4.6092,4.6397,4.6109,4.6256,4.6876,4.6876,4.6876,4.6876,4.6147,4.5937,4.6131,4.4721,4.3822,4.3279,4.1888,4.0436,3.917,3.8939,3.8061,3.683,3.683,3.7107,3.7459,3.7399,3.7188,3.6946,3.6503,3.5368,3.384,3.2581,3.1628,3.0986,3.0986,3.0986,3.0986,3.0911,3.0911,3.095,3.107,3.0727,3.0238,2.9667,2.9181,2.8482,2.7476,2.7046,2.6812,2.6577,2.6801,2.7197,2.7522,2.7209,2.6894,2.6894,2.6812,2.6329,2.5505,2.5337,2.502,2.4454,2.4282,2.4196,2.411,2.4024,2.3851,2.3503,2.3135,2.2501,2.1695,2.106,2.015,1.8796,1.8092,1.7086,1.5805,0.0,0.0,0.0,0.0,0.0,0.0,0.0,0.0,0.0,0.0,0.0,0.0,0.0,0.0,0.0,0.0,0.0,0.0,0.0,0.0,0.0,0.0,0.0,4.3565,4.5735,4.69,4.57,4.8676,4.9555,4.6325,4.7995,4.8893,4.7872,4.8493,4.9177,4.9935,4.8951,4.8416,4.8386,4.7404,4.6876,4.6876,4.6876,4.6876,4.6876,4.6147,4.618,4.6844,4.4671,4.4069,4.4622,4.2543,4.1217,4.0509,3.9785,3.8708,3.7507,3.7523,3.7538,3.7471,3.7135,3.7015,3.677,3.5515,3.4153,3.2928,3.2093,3.1496,3.1039,3.1039,3.1039,3.0963,3.0825,3.075,3.079,3.1086,3.0465,2.9707,2.9812,2.888,2.7641,2.6357,2.5924,2.5505,2.47,2.5179,2.5997,2.6905,2.6318,2.5746,2.5746,2.5735,0.0,2.4615,2.4282,2.4206,2.4227,2.3957,2.3861,2.3774,2.36,2.3513,2.3503,2.2325,2.1695,2.1695,1.9786,1.8788,1.8696,1.7294,1.5844,1.4631,0.0,0.0,0.0,0.0,0.0,0.0,0.0,0.0,0.0,0.0,0.0,0.0,0.0,0.0,0.0,0.0,0.0,0.0,0.0,0.0,0.0,4.3986,4.4765,4.5394,4.6711,4.7953,4.8889,5.0352,5.1168,5.085,5.1159,5.1035,5.0235,5.0373,5.0249,4.9683,4.8828,4.8281,4.8139,4.729,4.6876,4.6876,4.6876,4.6876,4.6876,4.589,4.5784,4.641,4.4741,4.4366,4.4945,4.3113,4.194,4.117,3.9477,3.8277,3.7554,3.8046,3.8165,3.8014,3.7808,3.7099,3.6039,3.4579,3.3754,3.3344,3.2673,3.2346,3.2228,3.2071,3.2006,3.1993,3.1678,3.1665,3.1545,3.0948,3.0175,2.9386,2.8407,2.7273,2.625,2.5571,2.5102,2.4786,2.454,2.47,2.4946,2.5189,2.5031,2.4861,2.4861,2.469,2.4529,2.4282,2.4024,2.4058,2.4381,2.4333,2.4235,2.4048,2.3959,2.3742,2.3251,2.2236,2.1329,2.0593,1.9247,1.8064,1.7232,1.6558,1.5562,0.0,0.0,0.0,0.0,0.0,0.0,0.0,0.0,0.0,0.0,0.0,0.0,0.0,0.0,0.0,0.0,0.0,0.0,0.0,0.0,0.0,0.0,4.5022,4.5947,4.7264,4.8172,4.9116,5.0258,5.1535,5.2337,5.2458,5.265,5.2528,5.2114,5.1571,5.1072,5.077,4.9324,4.8431,4.8295,4.7403,4.6876,4.6876,4.6876,4.6876,4.6876,4.6111,4.5917,4.6269,4.4802,4.4362,4.4658,4.2577,4.1509,4.1016,3.9014,3.7765,3.7201,0.0,0.0,0.0,0.0,3.6116,3.5224,3.4278,3.3783,3.3535,3.3182,3.2828,3.254,3.2473,3.23,3.222,3.1966,3.1466,3.091,3.0477,2.9535,2.8387,2.7367,2.652,2.5646,2.5041,2.465,2.4368,2.4368,2.4282,0.0,2.4196,2.4282,2.4368,2.4196,2.411,2.4024,2.4024,2.3841,2.3767,2.4027,2.3968,2.3949,2.3949,2.3791,0.0,0.0,0.0,2.0421,1.888,1.8056,0.0,0.0,0.0,1.5278,1.3566,1.2852,0.0,0.0,1.0714,1.0437,0.0,0.0,0.0,0.0,0.0,0.0,0.0,0.0,0.0,0.0,0.0,0.0,0.0,0.0,0.0,0.0,4.6259,4.7001,4.8777,4.9625,5.0207,5.058,5.2148,5.3063,5.2528,5.3115,5.3494,5.3329,5.2221,5.1736,5.2298,5.0075,0.0,0.0,0.0,4.7006,4.7006,4.6925,4.6876,4.6807,4.6442,4.623,4.6127,4.4824,4.4268,4.4071,4.1595,4.0493,4.0385,3.8296,3.7023,3.6507,3.6507,3.6297,3.5915,3.5266,3.4714,3.4397,3.4397,0.0,0.0,3.3679,3.3164,3.2574,3.2494,3.2333,3.2077,3.1751,3.079,2.9852,2.9917,2.8608,2.7183,2.6813,2.6239,2.5606,2.4774,2.4364,2.411,2.411,2.3937,2.3754,2.3754,2.4024,2.413,2.3911,2.3824,2.3824,2.3824,2.366,2.3485,2.3485,2.33,0.0,2.375,2.3437,2.2897,2.229,2.0785,1.9055,1.6979,1.669,1.64,1.613,1.6028,1.4867,1.2727,1.263,1.1565,0.9624,0.9462,0.9474,0.0,0.0,0.0,0.0,0.0,0.0,0.0,0.0,0.0,0.0,0.0,0.0,0.0,0.0,0.0,4.508,4.6566,4.7734,4.7966,4.9648,5.1132,5.1778,5.2183,5.2873,5.396,5.4201,5.384,5.2742,5.2408,5.1999,5.1267,5.0162,4.9686,4.9791,4.8518,4.7799,4.7799,4.72,4.6738,4.6442,4.6032,0.0,4.5379,4.4809,4.4523,4.4414,4.187,4.0713,4.0516,3.7124,3.5522,3.5149,3.5755,3.6008,3.5925,3.5637,3.5089,3.4397,3.4397,3.4332,3.4241,3.4087,3.3926,3.3669,3.3334,3.3153,0.0,3.1933,3.1414,3.083,2.9319,2.8418,2.7757,2.7252,2.6092,2.5153,2.5347,2.4629,2.3841,2.3841,2.3841,2.3754,2.359,2.3764,2.3961,2.4323,2.4196,2.4009,2.4009,2.3841,2.3751,2.3751,2.3662,2.3701,2.3779,2.3711,2.3178,2.1913,1.992,1.8064,1.6407,1.6312,1.6123,1.5927,1.5064,1.3998,1.2727,1.1853,1.0886,0.9628,0.9592,0.9596,0.0,0.0,0.0,0.0,0.0,0.0,0.0,0.0,0.0,0.0,0.0,4.4217,4.4731,0.0,4.6133,4.7282,4.8355,4.9054,4.9355,5.039,5.1252,5.1632,5.2339,5.3115,5.3873,5.4033,5.3809,5.3156,5.2556,5.1841,5.0933,4.996,4.93,4.9062,4.801,4.7443,4.7443,4.6846,4.6512,4.6285,4.5744,4.5395,4.5157,4.4458,4.3913,4.3503,4.1533,4.0231,3.9121,3.5885,3.436,3.4044,3.4424,3.5013,3.5535,3.5196,3.4799,3.4397,3.4314,3.4243,3.423,3.3979,3.3823,3.3738,3.3484,3.2957,3.2339,3.1801,3.0714,2.9612,2.8627,2.7823,2.7101,2.6579,2.5962,2.5553,2.5361,2.4826,2.4256,2.4037,2.3909,2.3663,2.3359,2.3584,2.3821,2.3821,2.392,2.3969,2.3969,2.4065,2.4023,2.3809,2.3789,2.3789,2.3789,2.2765,2.157,2.0175,1.8334,1.6958,1.6224,1.6028,1.5737,1.5064,1.4586,1.3516,1.195,1.1463,1.069,0.9628,0.9628,0.9628,0.0,0.0,0.0,0.0,0.0,0.0,0.0,4.3268,4.3964,4.3964,4.5071,4.613,4.6504,4.7219,4.8242,4.9686,5.0207,5.0545,5.0856,5.1149,5.1269,5.1132,5.2321,5.3287,5.358,5.3751,5.3766,5.355,5.2697,5.1812,5.1004,4.9961,4.9192,4.8641,4.7767,4.7297,4.7244,4.6587,4.6214,4.6088,4.5452,4.5173,4.5083,4.4167,4.3456,4.2679,4.104,3.9147,3.7044,3.4938,3.3742,3.337,3.3476,3.4086,3.4825,3.4481,3.4314,3.4314,3.4076,3.3992,3.3992,3.3725,3.3556,3.3398,3.3129,3.2339,3.1536,3.1169,2.9613,2.8043,2.7872,2.7249,2.6527,2.588,2.592,2.5928,2.5277,2.4953,2.4601,2.4246,2.3996,2.3799,2.3447,2.3682,2.3789,2.3437,2.376,2.4043,2.4043,2.4336,2.4254,2.3557,2.3586,2.3505,2.3148,2.12,1.9548,1.8357,1.6958,1.6224,1.6123,1.5927,1.535,1.4298,1.41,1.3028,1.117,1.0979,1.04,0.9628,0.9628,0.9628,4.2609,4.245,4.2328,4.2287,4.284,4.3375,0.0,4.45,4.5552,4.5552,4.6248,4.7105,4.7843,4.872,4.9433,4.9696,5.0997,5.1545,5.0304,5.1269,5.1839,5.1183,5.1839,5.2891,5.4253,5.4397,5.4028,5.2974,5.2767,5.2241,5.1203,5.1048,5.0908,5.0827,4.9499,4.8643,4.8295,4.6941,4.5945,4.5305,4.5247,4.5024,4.4648,4.4571,4.4144,4.3356,4.051,3.7442,3.4592,3.4794,3.4364,3.3629,3.4101,3.4293,3.4243,3.416,3.416,3.4076,3.381,3.3713,3.3725,3.3471,3.3398,3.3215,3.2152,3.1713,3.1258,2.9543,2.8866,2.8369,2.7274,2.6914,2.6809,2.6461,2.5989,2.554,2.5491,2.4884,2.4404,2.4355,2.4346,2.4336,2.4277,2.4316,2.4336,2.4277,2.4639,2.4922,2.4922,2.4971,2.4388,2.2648,2.2704,2.2303,2.0941,1.9196,1.8172,1.7785,1.6777,1.6123,1.5832,1.5832,1.535,1.4298,1.3318,1.2339,1.117,1.0207,0.9723,0.9628,0.9628,0.9628,4.2548,4.279,4.3048,4.3001,4.3572,4.4268,4.4732,4.5695,4.6623,4.7087,4.8175,4.9043,4.9086,5.0154,5.1007,5.1141,5.2114,5.2684,5.208,5.2132,5.227,5.2425,5.1925,5.2183,5.3718,5.3999,5.3683,5.2836,5.2487,5.1822,5.0642,5.0552,5.0179,4.937,4.8522,4.7774,4.7213,4.6174,4.5526,4.5173,4.4949,4.4723,4.4572,4.4572,4.3834,4.2475,4.0106,3.7785,3.5698,3.4914,3.4249,3.3613,3.3671,3.3667,3.3636,3.3959,3.3992,3.381,3.3641,3.3556,3.3471,3.3326,3.2871,3.2251,3.1713,3.0812,2.9715,2.8899,2.8175,2.7536,2.6996,2.6805,2.6602,2.6294,2.6058,2.5833,2.5651,2.5408,2.5107,2.4844,2.4795,2.4717,2.4463,2.4143,2.3928,2.3928,2.407,2.4183,2.4183,2.38,2.3134,2.1892,2.1579,2.0903,1.9614,1.8617,1.7779,1.7141,1.6402,1.5927,1.5832,1.5255,1.4484,1.3414,1.2344,1.1272,1.0306,0.9821,0.9628,0.9628,0.9628,0.9327,4.2486,4.3018,4.3602,4.375,4.4553,4.5481,4.6284,4.7229,4.8122,4.8693,4.9888,5.0684,5.0241,5.1349,5.2337,5.2312,5.3124,5.3632,5.3442,5.308,5.2908,5.3063,5.2287,5.2037,5.2791,5.3147,5.3196,5.2819,5.2274,5.1556,5.0422,5.0316,4.9773,4.8756,4.8077,4.741,4.6605,4.5829,4.536,4.5024,4.4723,4.4572,4.4572,4.4082,4.3001,4.1489,3.9728,3.8106,3.6618,3.5575,3.4515,3.3532,3.3667,3.3436,3.3135,3.3701,3.381,3.3556,3.3398,3.3313,3.3326,3.3154,3.2438,3.1536,3.1258,2.9988,2.8538,2.8269,2.7536,2.6794,2.6699,2.6496,2.6294,2.6004,2.6004,2.5917,2.5732,2.5742,2.5538,2.491,2.4842,2.4651,2.3947,2.3464,2.317,2.317,2.2877,2.2779,2.3073,2.2326,2.1561,2.1096,2.0083,1.9267,1.8585,1.7931,1.7327,1.6676,1.6095,1.5832,1.5832,1.4873,1.3806,1.2727,1.1755,1.069,0.9628,0.9628,0.9628,0.9628,0.9225,0.8649,4.2328,4.2876,4.3679,4.441,4.5766,4.7122,4.7925,4.9299,5.0405,5.0441,5.1083,5.1554,5.1297,5.2249,5.3006,5.2712,5.3679,5.4236,5.3494,5.3994,5.3891,5.2425,5.2891,5.2843,5.1668,5.2136,5.2604,5.2786,5.2274,5.1786,5.1226,5.0739,5.0477,5.0429,4.9358,4.8308,4.7294,4.6514,4.5677,4.4663,4.4572,4.4572,4.4572,4.2761,4.1587,4.0817,3.9326,3.7629,3.6149,3.6698,3.55,3.342,3.4451,3.3938,3.2721,3.3195,3.3398,3.3398,3.3154,3.3081,3.3081,3.3081,3.2438,3.1448,3.0531,2.9338,2.8143,2.7167,2.6699,2.6496,2.6197,2.61,2.6004,2.583,2.5732,2.5732,2.5742,2.5742,2.5421,2.4375,2.4168,2.3773,2.2759,2.2567,2.2475,2.2173,2.1269,2.0971,2.1971,2.0761,1.9767,1.9979,1.8354,1.7337,1.764,1.6812,1.637,1.6273,1.5992,1.5832,1.5832,1.4873,1.3806,1.2727,1.1755,1.069,0.9628,0.9628,0.9628,0.9529,0.8216,0.7287,4.3714,4.4803,4.6016,4.6783,4.7765,4.8746,4.9531,5.0138,5.0513,5.0513,5.0298,4.9844,4.9065,4.9925,5.0657,5.0415,5.2295,5.3511,5.2718,5.2839,5.2787,5.227,5.1597,5.1245,5.1498,5.1724,5.1778,5.1549,5.1404,5.1116,5.0739,5.0602,5.0147,4.9422,4.8812,4.7856,4.6577,4.6082,4.5403,4.4572,4.4419,4.4082,4.3476,4.2585,4.1337,3.9931,3.9299,3.8322,3.726,3.648,3.5483,3.4347,3.402,3.362,3.3145,3.3164,3.362,3.4149,3.3332,3.3081,3.2982,3.2351,3.1436,3.0441,2.9338,2.8247,2.7251,2.6784,2.64,2.6197,2.61,2.6014,2.583,2.5732,2.5742,2.5742,2.5742,2.5118,2.4501,2.4187,2.3493,2.2894,2.2291,2.1684,2.0877,1.9849,1.9945,2.0048,1.9642,1.9044,1.8608,1.861,1.7922,1.7439,1.7644,1.7002,1.664,1.684,1.6213,1.5625,1.5136,1.3887,1.2732,1.1755,1.069,0.9916,0.9628,0.9742,0.9287,0.8372,0.7958,0.6886,4.441,4.557,4.6819,4.7907,4.8746,4.9603,5.0691,5.0709,5.0423,5.0138,4.9345,4.8466,4.736,4.8187,4.8888,4.8338,5.0247,5.1787,5.1821,5.1597,5.1554,5.1905,5.0875,5.0137,5.0129,5.0034,5.0043,5.0282,5.0396,5.0244,4.9971,4.9993,4.9773,4.8985,4.8355,4.7463,4.633,4.5866,4.5249,4.4511,4.4358,4.3756,4.2666,4.2097,4.0901,3.9346,3.8957,3.8262,3.7339,3.6702,3.5721,3.4671,3.4361,3.3958,3.3555,3.3683,3.3985,3.4299,3.3395,3.3206,3.3158,3.1862,3.0789,2.9784,2.8588,2.741,2.6602,2.64,2.6207,2.5917,2.5917,2.582,2.5742,2.5742,2.5742,2.5635,2.5216,2.4609,2.389,2.3094,2.2291,2.1591,2.1081,2.0174,1.925,1.8422,1.8715,1.8916,1.8318,1.801,1.7911,1.7911,1.7687,1.7582,1.7582,1.7141,1.6947,1.7141,1.6117,1.5196,1.4678,1.3051,1.1853,1.117,1.0173,0.9721,0.9721,0.9794,0.9153,0.7804,0.7267,0.6061,4.4517,4.532,4.6302,4.7854,4.8782,4.971,5.1226,5.0959,5.0156,4.9371,4.8359,4.7303,4.6266,4.7071,4.7594,4.6702,4.7855,4.9407,5.0831,5.0486,5.0395,5.1332,5.0776,4.9624,4.7935,4.7452,4.7785,4.9066,4.9335,4.9257,4.8936,4.9157,4.9275,4.9275,4.8233,4.7327,4.6665,4.5942,4.5172,4.4281,4.4205,4.3536,4.2193,4.1253,4.0218,3.9121,3.8226,3.7378,3.6703,3.7233,3.6225,3.4413,3.544,3.5045,3.4048,3.4537,3.4412,3.3897,3.3233,3.3345,3.3482,3.1668,3.0485,2.9487,2.8193,2.701,2.61,2.6091,2.5917,2.5742,2.5742,2.5742,2.5742,2.5742,2.5635,2.5323,2.4295,2.3989,2.3285,2.1285,2.0577,2.0078,1.9078,1.8338,1.8016,1.8016,1.7799,1.7694,1.7911,1.7799,1.7582,1.7582,1.7569,1.7562,1.7562,1.7281,1.7108,1.7128,1.5576,1.469,1.4604,1.2392,1.1203,1.1105,1.0309,0.99,0.99,0.9669,0.9014,0.774,0.6162,0.483,4.6016,4.6962,4.78,4.8782,4.9174,4.9424,4.9834,4.9335,4.855,4.7747,4.6298,4.4926,4.4039,4.4773,4.5596,4.5961,4.8069,4.9911,5.0417,5.0799,5.0968,5.0873,5.0673,5.0076,4.8957,4.8714,4.8433,4.7767,4.8064,4.848,4.9204,4.9262,4.9113,4.8785,4.8533,4.8035,4.7357,4.603,4.5017,4.4281,4.3284,4.226,4.1239,4.0131,3.9135,3.8226,3.7782,3.752,3.7259,3.6596,3.5951,3.5453,3.5146,3.5002,3.509,3.4826,3.4901,3.4807,3.2991,3.2123,3.168,3.0531,2.9385,2.8193,2.6914,2.637,2.61,2.582,2.5732,2.5742,2.5742,2.5742,2.5742,2.5742,2.5118,2.4393,2.4187,2.2693,2.1285,2.0688,1.9561,1.8534,1.8233,1.7911,1.7687,1.7687,1.7687,1.7582,1.7694,1.7687,1.7582,1.7582,1.7388,1.7261,1.7261,1.6794,1.6288,1.5783,1.5071,1.4067,1.2628,1.1977,1.1244,1.0429,0.9963,0.978,0.978,0.8776,0.7559,0.6055,0.493,0.3651,4.6659,4.7319,4.7854,4.8621,4.8817,4.8817,4.8817,4.8117,4.718,4.6059,4.4562,4.324,4.2404,4.3219,4.4108,4.4609,4.637,4.8254,4.9941,4.9436,4.9217,5.0243,4.9424,4.8613,4.8192,4.8006,4.7818,4.7606,4.7825,4.8153,4.8534,4.886,4.8867,4.862,4.8327,4.763,4.6567,4.5445,4.44,4.3442,4.2695,4.1518,4.0131,3.9448,3.8626,3.7703,3.7611,3.7413,3.7083,3.6472,3.616,3.6042,3.5646,3.5629,3.5868,3.5554,3.5399,3.5189,3.39,3.2376,3.0629,2.9276,2.8402,2.7568,2.6284,2.6054,2.6163,2.5791,2.5879,2.5977,2.5781,2.5742,2.5742,2.5742,2.4913,2.3989,2.3393,2.1785,2.0277,1.9561,1.8639,1.7911,1.7799,1.7694,1.7582,1.7582,1.7582,1.7582,1.7582,1.7582,1.7582,1.7582,1.7442,1.7178,1.6536,1.6227,1.5607,1.4733,1.3881,1.3041,1.2035,1.134,1.0677,0.9951,0.9922,0.9531,0.8888,0.8069,0.671,0.4847,0.4117,0.3134,4.6766,4.6998,4.7158,4.7854,4.7943,4.7854,4.7872,4.6973,4.574,4.4395,4.3131,4.2039,4.1331,4.222,4.3113,4.3423,4.4401,4.6254,4.9543,4.7939,4.7355,4.9788,4.8323,4.7141,4.715,4.6837,4.7091,4.8213,4.8211,4.8131,4.7742,4.8296,4.862,4.8537,4.7876,4.6843,4.5428,4.4678,4.3626,4.229,4.2126,4.1099,3.9121,3.9033,3.8445,3.7413,3.7413,3.7108,3.6709,3.6722,3.6534,3.6358,3.6358,3.6358,3.6358,3.6358,3.5843,3.5195,3.4797,3.2876,3.0174,2.8423,2.7715,2.729,2.6122,2.6084,2.6309,2.5937,2.6055,2.623,2.5908,2.5674,2.544,2.5498,2.4548,2.3285,2.208,2.0979,1.9768,1.822,1.7911,1.7905,1.7687,1.7582,1.7582,1.7582,1.7582,1.7582,1.7582,1.7582,1.7582,1.7582,1.7437,1.6885,1.5701,1.5445,1.4798,1.365,1.2551,1.1926,1.2009,1.0826,1.0128,0.9813,0.9735,0.9047,0.7744,0.7312,0.6028,0.3911,0.3579,0.28,4.6766,4.6998,4.7015,4.7158,4.6712,4.6167,4.6003,4.4794,4.3589,4.3163,4.2188,4.1366,4.1226,4.1769,4.2819,4.4716,4.6212,4.7849,4.9729,5.0646,5.0894,5.0138,5.0221,4.9881,4.8968,4.8825,4.8677,4.8502,4.8517,4.8517,4.8435,4.8558,4.8537,4.837,4.7711,4.6911,4.589,4.5061,4.3868,4.229,4.1365,4.0173,3.8895,3.8109,3.7572,3.7121,3.6909,3.6815,3.6722,3.6546,3.6452,3.6358,3.6358,3.6358,3.6358,3.6193,3.5668,3.4903,3.2723,3.1311,3.0411,2.9646,2.8408,2.7021,2.6476,2.6328,2.6367,2.6299,2.6074,2.5918,2.6201,2.5376,2.4378,2.451,2.2816,2.0971,2.0444,1.9332,1.8325,1.7799,1.7687,1.7687,1.7582,1.7582,1.7582,1.7582,1.7582,1.7582,1.7582,1.7582,1.7582,1.7582,1.6507,1.5719,1.5469,1.4333,1.3193,1.2171,1.1983,1.1553,1.0749,1.0434,1.0276,1.0167,0.8759,0.7889,0.7668,0.5355,0.4026,0.3692,0.2576,0.2019,4.689,4.6998,4.6998,4.6998,4.6391,4.5651,4.5035,4.3862,4.2775,4.2083,4.147,4.1041,4.1041,4.157,4.2475,4.4009,4.5243,4.6635,4.8422,4.8978,4.8989,4.8562,4.8338,4.8168,4.7929,4.757,4.7722,4.8543,4.8296,4.825,4.8604,4.8537,4.8201,4.7615,4.6961,4.6209,4.5314,4.4569,4.3212,4.1435,4.0746,3.9637,3.8122,3.7572,3.7121,3.6909,3.6722,3.6628,3.6534,3.6452,3.6358,3.6358,3.6275,3.6193,3.6193,3.5908,3.5556,3.4929,3.3128,3.1872,3.0899,2.9827,2.8387,2.6973,2.6777,2.6709,2.667,2.6455,2.624,2.6123,2.6338,2.5126,2.399,2.428,2.2137,1.9849,1.9131,1.8311,1.7799,1.7582,1.7582,1.7582,1.7582,1.7582,1.7582,1.7582,1.7582,1.7364,1.6829,1.6723,1.6723,1.6723,1.5529,1.4451,1.3803,1.3169,1.2282,1.1138,1.1119,1.0894,1.0349,1.0323,0.9812,0.8923,0.8036,0.6922,0.5475,0.4249,0.3246,0.2689,0.2018,0.1795,4.7158,4.7122,4.7033,4.7148,4.63,4.5258,4.4304,4.3258,4.2205,4.1348,4.0995,4.0888,4.0888,4.1354,4.2061,4.3026,4.3833,4.501,4.6908,4.6848,4.6753,4.6996,4.6432,4.6222,4.6542,4.6111,4.6526,4.8266,4.783,4.7753,4.8291,4.8293,4.7836,4.678,4.6167,4.5495,4.4589,4.3753,4.24,4.0504,4.0131,3.9019,3.7307,3.7108,3.6909,3.6628,3.6628,3.6534,3.6358,3.6358,3.6358,3.6275,3.6098,3.592,3.592,3.562,3.5223,3.4714,3.3598,3.2286,3.0987,2.9415,2.8184,2.7275,2.7178,2.7158,2.708,2.6758,2.6523,2.6306,2.6184,2.4738,2.3287,2.3066,2.1099,1.8916,1.8115,1.7799,1.7582,1.7582,1.7635,1.7662,1.7595,1.7635,1.755,1.7265,1.7259,1.6829,1.5642,1.5322,1.5102,1.5102,1.4352,1.3316,1.2307,1.1972,1.1447,1.0489,1.0381,1.0337,1.0249,0.9923,0.9034,0.7593,0.7035,0.5697,0.358,0.3358,0.2688,0.1795,0.1795,0.1795,4.7676,4.7551,4.7112,4.7606,4.607,4.4314,4.3698,4.2405,4.125,4.0982,4.0918,4.0888,4.0888,4.094,4.1457,4.279,4.3649,4.4558,4.5851,4.7198,4.7701,4.6866,4.7277,4.7307,4.6652,4.6542,4.6834,4.7635,4.7487,4.7308,4.7451,4.7965,4.7555,4.5867,4.5777,4.5251,4.4332,4.2901,4.1532,4.0204,3.9387,3.8251,3.6815,3.6722,3.6628,3.6452,3.6452,3.6452,3.6358,3.6358,3.6275,3.6015,3.6015,3.5812,3.562,3.532,3.4617,3.3598,3.2286,3.1062,2.9849,2.8306,2.7996,2.8105,2.7725,2.7607,2.7598,2.7559,2.688,2.5853,2.5255,2.3687,2.1659,1.9505,1.8434,1.7786,1.7687,1.7582,1.7582,1.7582,1.7809,1.7916,1.7629,1.7816,1.758,1.6223,1.6074,1.5642,1.4454,1.3383,1.2738,1.2738,1.263,1.2516,1.2389,1.1424,1.0777,1.0668,1.0453,1.0351,1.0257,0.8699,0.7814,0.7593,0.5252,0.3804,0.358,0.2465,0.1907,0.1795,0.1795,0.1795,4.6569,4.6763,4.682,4.7045,4.5576,4.3979,4.3585,4.2305,4.1163,4.0918,4.0888,4.0888,4.0793,4.0793,4.0951,4.1405,4.2073,4.2613,4.3115,4.4782,4.5668,4.4851,4.5782,4.6335,4.602,4.5909,4.6211,4.7149,4.7128,4.6878,4.6386,4.6629,4.6358,4.55,4.547,4.4877,4.3733,4.301,4.1822,4.0204,3.9108,3.7978,3.6709,3.6534,3.6452,3.6358,3.6358,3.6358,3.6358,3.6181,3.6098,3.6015,3.562,3.5416,3.532,3.503,3.4311,3.3201,3.1982,3.0845,2.9651,2.8202,2.7668,2.766,2.7486,2.7263,2.7014,2.717,2.6607,2.5871,2.495,2.2904,2.0498,1.8434,1.7775,1.7629,1.7822,1.7862,1.7916,1.8096,1.823,1.8051,1.7142,1.7102,1.6692,1.5353,1.5226,1.4784,1.3563,1.301,1.2413,1.1637,1.141,1.1337,1.1337,1.0907,1.0582,1.0476,1.0366,0.9809,0.8699,0.8036,0.6811,0.5252,0.4137,0.3246,0.2465,0.2018,0.1795,0.1795,0.1795,0.1795,4.5873,4.6145,4.6312,4.6628,4.5251,4.3698,4.3458,4.2228,4.1041,4.0871,4.084,4.0793,4.0648,4.0648,4.06,4.0485,4.078,4.1118,4.1322,4.2626,4.3461,4.3154,4.4193,4.4993,4.4905,4.5079,4.5529,4.6243,4.6486,4.6312,4.5597,4.5387,4.5094,4.4721,4.49,4.4466,4.325,4.2495,4.144,3.9931,3.8662,3.752,3.6628,3.6452,3.6358,3.6358,3.637,3.6275,3.6275,3.6003,3.5812,3.5716,3.532,3.5126,3.503,3.4519,3.361,3.2588,3.1472,3.0255,2.9049,2.7806,2.7176,2.6881,2.6788,2.6712,2.6664,2.6882,2.6147,2.4807,2.3397,2.1435,1.9456,1.8102,1.7716,1.7776,1.8003,1.805,1.8136,1.843,1.8217,1.7783,1.6788,1.6387,1.5727,1.4406,1.4164,1.3828,1.2584,1.247,1.2082,1.1057,1.0815,1.0695,1.059,1.0582,1.0272,0.9654,0.9503,0.8739,0.7134,0.6621,0.5487,0.3606,0.3254,0.2689,0.1795,0.1795,0.1795,0.1795,0.1795,0.1458,4.6046,4.6006,4.567,4.6723,4.5262,4.344,4.3264,4.2023,4.0871,4.0745,4.0697,4.0648,4.0534,4.0485,4.0485,4.0337,4.0305,4.0492,4.1104,4.1205,4.1501,4.225,4.3009,4.3405,4.3247,4.4311,4.4895,4.464,4.5273,4.5582,4.5289,4.4676,4.4032,4.3374,4.3988,4.3907,4.2996,4.1155,3.9944,3.9508,3.7586,3.6628,3.6358,3.6358,3.6358,3.6358,3.6098,3.6015,3.6015,3.5716,3.5416,3.5223,3.5223,3.503,3.4628,3.361,3.2499,3.1472,3.0338,2.8925,2.7598,2.684,2.6323,2.5963,2.5881,2.6285,2.6901,2.7308,2.5233,2.2477,2.03,1.9115,1.841,1.8116,1.8043,1.8043,1.805,1.805,1.8136,1.843,1.7679,1.6966,1.6594,1.5738,1.4667,1.3184,1.3036,1.2584,1.1335,1.122,1.1105,1.0759,1.0755,1.0619,1.0284,1.0257,0.9654,0.8222,0.7774,0.7137,0.5966,0.4437,0.3608,0.3555,0.2374,0.1795,0.1795,0.1795,0.1795,0.1795,0.1795,0.0785,4.3842,4.4027,4.42,4.4513,4.3548,4.2434,4.2272,4.1449,4.0745,4.0583,4.0534,4.0534,4.0387,4.0337,4.0337,4.0188,4.0188,4.024,4.0438,4.1574,4.237,4.2141,4.3113,4.3908,4.4143,4.4486,4.482,4.5027,4.5267,4.5192,4.4646,4.4273,4.4065,4.4018,4.405,4.3404,4.2044,4.1169,3.9933,3.8545,3.7322,3.6628,3.6358,3.6358,3.6275,3.6098,3.6015,3.592,3.5716,3.5416,3.532,3.5223,3.503,3.4421,3.3709,3.33,3.2083,3.0296,2.9456,2.8455,2.7226,2.6299,2.567,2.5484,2.5302,2.5638,2.6017,2.5702,2.409,2.2092,2.0699,1.9276,1.8163,1.807,1.8203,1.835,1.835,1.8504,1.85,1.797,1.7505,1.6716,1.4881,1.4345,1.3665,1.2429,1.2188,1.2073,1.1721,1.1355,1.1185,1.0954,0.9873,0.9552,1.0281,0.945,0.8663,0.8017,0.7059,0.5801,0.4461,0.3956,0.325,0.2454,0.2094,0.1847,0.1826,0.1826,0.1474,0.0897,0.0897,-0.0112,4.2555,4.2865,4.3141,4.3339,4.2642,4.1894,4.1795,4.118,4.06,4.0436,4.0436,4.0387,4.0238,4.0238,4.0188,4.0121,4.007,4.0054,4.0031,4.1477,4.2577,4.2669,4.3127,4.367,4.4172,4.4176,4.4268,4.4526,4.5005,4.5005,4.4199,4.4325,4.4258,4.4087,4.3686,4.2825,4.138,4.0695,3.9549,3.7952,3.707,3.6546,3.6358,3.6275,3.6193,3.6015,3.5812,3.562,0.0,3.5126,3.503,3.503,3.4835,3.4115,3.3201,3.2801,3.1348,2.9641,2.8589,2.7727,2.6778,2.5784,2.5264,2.5089,2.5127,2.5252,2.504,2.4208,2.2892,2.1444,2.0197,1.9195,1.849,1.827,1.8444,1.8651,1.8651,1.8446,1.8072,1.7634,1.6738,1.5558,1.4023,1.3315,1.2724,1.1893,1.1651,1.1647,1.1647,1.1277,1.0868,1.0042,0.9067,0.8552,0.8589,0.7897,0.7044,0.6384,0.5532,0.4487,0.3113,0.3078,0.2716,0.1902,0.1892,0.187,0.184,0.1485,0.102,0.0336,-0.0224,-0.112,0.0,4.2276,4.2402,4.2886,4.2358,4.1727,4.1727,4.1079,0.0,4.0288,4.0305,4.0238,4.0138,4.007,4.007,4.007,4.007,4.0034,3.9935,4.104,4.2375,4.3627,4.3058,4.2817,4.343,4.3393,4.3325,4.3325,4.4489,4.4855,4.4035,4.4585,4.4462,4.3563,4.2893,4.2078,4.0972,3.9899,3.8841,3.7782,3.6828,3.6358,3.6358,3.6098,3.6015,3.592,3.5428,3.5223,3.5126,3.492,3.4823,3.4823,3.4726,3.4017,3.2889,3.188,3.0504,2.9066,2.7734,2.6693,2.6058,2.5339,2.4923,2.4812,2.513,2.4774,2.3979,2.2812,2.1818,2.0786,1.9013,1.8945,1.9199,1.8651,1.8744,1.8951,1.8925,1.7887,1.7153,1.7289,1.5327,1.3665,1.355,1.2603,1.1776,1.1776,1.1522,1.1273,1.1273,1.091,1.0176,0.8462,0.8216,0.7484,0.5896,0.5743,0.5212,0.3854,0.3688,0.311,0.2097,0.1922,0.1906,0.1934,0.1785,0.1757,0.1728,0.0793,0.0225,0.0225,-0.1457,-0.2243,4.1064,0.0,4.1102,4.1128,4.0977,4.0791,0.0,4.0474,4.0288,4.0171,4.0138,4.0138,4.0138,4.007,4.007,4.007,4.007,4.0034,3.9935,4.0895,4.2148,4.3381,4.324,4.2816,4.2047,4.3105,4.3864,4.3864,4.4427,4.4438,4.3818,4.3755,4.3088,4.1666,4.1696,4.1407,4.0515,3.8993,3.7925,3.7356,3.6653,3.6275,3.6098,3.6015,3.5812,3.5416,3.5223,3.5126,3.492,3.4835,3.4823,3.4726,3.3918,3.2767,3.1418,3.0411,2.887,2.7304,2.6485,2.5862,2.5329,2.4618,2.4398,2.4327,2.4087,2.4118,2.4039,2.311,2.1938,2.0605,1.9475,1.9092,1.8991,1.8858,1.9045,1.9199,1.8971,1.8154,1.7143,1.6267,1.4738,1.343,1.2367,1.2014,1.1651,1.1402,1.1394,1.1152,1.091,1.0668,0.9933,0.8462,0.724,0.5896,0.455,0.4398,0.4266,0.3916,0.2934,0.2329,0.1976,0.1963,0.1959,0.1966,0.1209,0.0714,0.082,-0.023,-0.1027,-0.1712,-0.2028,-0.2612,4.0551,4.0551,4.0583,4.0534,4.0436,4.0387,4.0305,4.0238,4.0188,4.0121,0.0,4.007,4.007,3.9782,3.9662,3.9986,3.9737,3.9801,4.0501,4.1148,4.1968,4.3167,4.3045,4.2665,4.219,4.3284,4.3923,4.3856,4.4645,4.4711,4.3994,4.3427,4.251,4.1354,4.0308,3.9744,3.9559,3.8622,3.7796,3.698,3.6443,3.6098,3.5812,3.5716,3.5512,3.5223,3.503,3.492,3.4823,3.4823,3.4679,3.439,3.3517,3.2219,3.0606,2.9808,2.8285,2.6548,2.604,2.5386,2.4637,2.4325,2.3845,2.348,2.3522,2.2905,2.21,2.2112,2.1053,1.973,1.9347,1.9045,1.8925,1.8925,1.9152,1.9203,1.8448,1.7358,1.6279,1.4976,1.367,1.2603,1.1893,1.1651,1.1522,1.1273,1.1031,1.0543,0.9808,0.9444,0.8465,0.6505,0.5529,0.4429,0.308,0.3081,0.3081,0.3081,0.2345,0.1977,0.1977,0.1977,0.1977,0.1977,0.0966,0.0477,0.0476,-0.0922,-0.1823,-0.2296,-0.2731,-0.3205,4.0355,4.0387,4.0436,4.0436,4.0337,4.0255,4.0255,4.0188,0.0,0.0,0.0,4.007,3.9952,3.9437,3.9259,3.9795,3.9503,3.9799,4.1444,4.1664,4.2085,4.3072,4.2801,4.2652,4.2837,4.3464,4.3885,4.3755,4.4785,4.5022,4.4191,4.3242,4.2241,4.1257,3.9037,3.8082,3.8282,3.8204,3.7744,3.6773,3.6251,3.5812,3.5524,3.532,3.5223,3.5126,3.4932,3.4775,3.4715,3.4799,3.4366,3.3577,3.2989,3.164,2.9844,2.9135,2.7783,2.615,2.574,2.4942,2.4152,2.4152,2.3438,2.2553,2.3131,2.1632,1.9901,2.0554,1.9828,1.8871,1.8911,1.8925,1.8931,1.8978,1.9063,1.8765,1.7695,1.6273,1.4857,1.3784,1.2599,1.1655,1.1655,1.1402,1.116,1.1187,1.0561,0.9576,0.8366,0.7867,0.6632,0.4182,0.3936,0.3325,0.2099,0.1977,0.1977,0.1977,0.1977,0.1977,0.1977,0.1853,0.1729,0.1729,0.0601,-0.0,-0.0,-0.1619,-0.251,-0.2545,-0.3349,-0.3702,4.0305,4.0238,4.0171,4.0171,4.0138,4.0121,4.0121,4.0121,4.007,0.0,4.007,3.9901,3.9193,3.9454,3.974,3.982,4.0591,4.1475,4.2209,4.2711,4.2922,4.2604,4.324,4.3349,4.2297,4.2887,4.3661,4.4203,4.4266,4.3934,4.3265,4.2338,4.1142,3.9639,3.8859,3.8015,3.7064,3.6626,3.653,3.6773,3.6059,3.5524,3.5223,3.5223,3.5126,3.4835,3.4835,3.4571,3.4198,3.4643,3.3754,3.2072,3.1251,2.9838,2.8036,2.684,2.5816,2.5006,2.4592,2.4362,2.4152,2.4152,2.3438,2.2401,2.1884,2.0703,1.9592,1.905,1.8702,1.8611,1.8858,1.8925,1.8985,1.9239,1.85,1.7695,1.7572,1.5435,1.354,1.3301,1.1989,1.091,1.091,1.091,1.0837,1.0609,0.9522,0.8503,0.8121,0.7054,0.5651,0.4059,0.3936,0.3325,0.2099,0.1977,0.1977,0.1977,0.1977,0.1977,0.1977,0.1234,0.074,0.074,-0.1105,-0.2071,-0.1928,-0.3111,-0.3702,-0.371,-0.3778,-0.3811,4.0188,4.0138,4.007,3.9986,3.9986,3.9986,3.9986,3.9679,3.9454,3.9816,3.9627,3.9209,3.8854,3.9034,3.9402,3.9987,4.1233,4.2071,4.218,4.2475,4.2648,4.2545,4.2899,4.323,4.3263,4.3602,4.3901,4.4122,4.3516,4.2953,4.231,4.0824,3.9563,3.8432,3.7606,3.6773,3.5904,3.5384,3.5596,3.6419,3.5673,3.5223,3.5017,3.5017,3.4932,3.4811,3.4523,3.4029,3.3543,3.3323,3.2218,3.0544,2.9671,2.8466,2.6973,2.5739,2.5043,2.4721,2.4299,2.3845,2.3238,2.3238,2.2106,2.0632,2.0452,1.9594,1.8483,1.8272,1.825,1.8317,1.8611,1.8691,1.8645,1.8231,1.7817,1.7097,1.5553,1.4133,1.2942,1.2105,1.1265,1.0789,1.0789,1.0051,0.949,0.9389,0.7983,0.6749,0.5968,0.5313,0.4397,0.2995,0.2868,0.2612,0.2101,0.1977,0.1977,0.1977,0.1977,0.1729,0.1234,0.074,0.0247,-0.0247,-0.1712,-0.2437,-0.2441,-0.3361,-0.3828,-0.386,-0.3831,-0.3847,4.007,4.0087,4.0037,3.9952,3.9901,3.9951,4.0068,3.9615,3.9313,3.9631,3.9313,3.8832,3.8502,3.8627,3.9141,4.0173,4.1456,4.2264,4.197,4.2371,4.2659,4.2634,4.2974,4.3433,4.4042,4.4135,4.4078,4.3761,4.282,4.1994,4.1376,3.9631,3.8253,3.7717,3.6501,3.5668,3.5157,3.4548,3.4725,3.5673,3.5138,3.4909,3.4823,3.4823,3.4557,3.4219,3.3827,3.3141,3.2321,3.1587,3.0389,2.8921,2.8249,2.7122,2.5945,2.5013,2.4638,2.4592,2.3963,2.3238,2.2426,2.2224,2.0775,1.9272,1.9528,1.8703,1.7629,1.7869,1.7989,1.8116,1.841,1.8315,1.7972,1.7201,1.6716,1.5908,1.3536,1.2822,1.2105,1.0906,1.0668,1.0558,1.0598,0.9249,0.8192,0.8349,0.6706,0.5083,0.4131,0.3742,0.3206,0.2158,0.2029,0.2018,0.1989,0.1993,0.1867,0.1606,0.1605,0.1357,0.0493,-0.0,-0.0616,-0.1356,-0.2316,-0.2804,-0.2837,-0.3495,-0.3835,-0.3882,-0.3882,-0.3882,4.007,3.9986,3.9901,3.9901,3.9901,4.0034,4.0618,4.0715,4.0521,3.989,3.9762,3.9324,3.7934,3.8566,3.9503,3.9947,4.121,4.2045,4.1789,4.3308,4.4004,4.2828,4.4122,4.4643,4.3504,4.3802,4.3732,4.3108,4.2166,4.1348,4.0702,3.8922,3.7756,3.7415,3.6016,3.5256,3.5162,3.4177,3.3971,3.4542,3.4209,3.4354,3.4823,3.4823,3.4062,3.2718,3.2684,3.1564,2.9811,2.998,2.8828,2.6962,2.6959,2.5887,2.4387,2.4297,2.4198,2.4089,2.3046,2.2526,2.2325,2.1293,2.0158,1.9228,1.9257,1.8422,1.7589,1.7609,1.7822,1.8116,1.841,1.7766,1.7092,1.6996,1.5182,1.3421,1.2817,1.1503,1.0425,1.0304,1.0061,0.9866,1.0008,0.8901,0.7977,0.8342,0.5955,0.4134,0.4326,0.3119,0.2191,0.2061,0.2061,0.2048,0.2018,0.2041,0.1652,0.0618,0.0616,0.0616,0.0493,-0.1233,-0.2343,-0.2343,-0.3329,-0.3822,-0.3826,-0.3819,-0.394,-0.3944,-0.3944,-0.3944,3.9868,3.9564,3.9176,3.9542,3.9642,3.9726,3.9957,3.9946,3.9834,3.9556,3.9511,3.9361,3.8742,3.8951,3.9634,4.0999,4.1941,4.2555,4.2769,4.3054,4.3163,4.2894,4.3437,4.386,4.3716,4.3556,4.2997,4.2195,4.0831,3.9721,3.8868,3.7441,3.664,3.6534,3.5685,3.4878,3.4238,3.3663,3.3305,3.3184,3.3741,3.415,3.4234,3.374,3.3149,3.254,3.1213,2.9936,2.868,2.8164,2.7094,2.5778,2.5376,2.4758,2.4152,2.3438,2.3138,2.3038,2.1912,2.1089,2.0364,1.9952,1.9124,1.8199,1.8199,1.7891,1.747,1.6717,1.6838,1.7215,1.7321,1.697,1.6299,1.4903,1.377,1.2582,1.1503,1.0785,1.0183,1.0061,0.9277,0.8608,0.8658,0.6962,0.552,0.5764,0.4059,0.2889,0.2931,0.2525,0.2113,0.2094,0.2075,0.2059,0.2048,0.1414,0.0898,0.0508,0.0503,-0.0,-0.1357,-0.2097,-0.2714,-0.3332,-0.3703,-0.3951,-0.3951,-0.3951,-0.3951,-0.3951,-0.3951,-0.3951,3.9458,3.9206,3.8904,3.9123,3.9309,3.9448,3.9448,3.9764,3.992,3.9446,3.9221,3.9062,3.8935,3.9137,3.9753,4.0985,4.1829,4.2394,4.2685,4.2631,4.2607,4.2687,4.3065,4.3226,4.2998,4.2682,4.201,4.065,3.9346,3.8229,3.7443,3.621,3.5474,3.5458,3.4829,3.4096,3.355,3.2739,3.2201,3.2035,3.25,3.3006,3.3304,3.2622,3.194,3.1069,2.9525,2.8279,2.7321,2.6406,2.5566,2.4829,2.4362,2.3945,2.3546,2.2828,2.2325,2.181,2.0775,1.9849,1.9124,1.8812,1.8199,1.7582,1.7582,1.7364,1.6955,1.6178,1.5985,1.6003,1.5626,1.5478,1.4993,1.3384,1.2462,1.1623,1.0425,1.0183,0.994,0.9329,0.8541,0.7754,0.7451,0.5491,0.4017,0.4094,0.305,0.2131,0.2152,0.2155,0.2146,0.2125,0.2105,0.1958,0.1689,0.0913,0.013,-0.0516,-0.0511,-0.1011,-0.2502,-0.2852,-0.3216,-0.3977,-0.3959,-0.3951,-0.3951,-0.3951,-0.3951,-0.3951,-0.3951,-0.3951,3.8924,3.9082,3.9309,3.8684,3.8898,3.9272,3.9272,4.0382,4.1033,3.9688,3.8856,3.8341,3.8177,3.9168,3.99,3.9455,4.0571,4.1361,4.1105,4.2179,4.276,4.2165,4.321,4.3099,4.0815,4.1165,4.0677,3.8583,3.7555,3.6843,3.656,3.5183,3.4348,3.4408,3.3363,3.298,3.3272,3.126,3.0445,3.0962,3.0385,3.0715,3.1815,3.1815,3.0374,2.8011,2.7688,2.6663,2.5235,2.4735,2.4341,2.4152,2.4152,2.3538,2.2526,2.2526,2.181,2.0672,1.9539,1.9228,1.902,1.7996,1.7582,1.7582,1.7582,1.6829,1.5916,1.6072,1.545,1.4572,1.3529,1.3149,1.3062,1.2817,1.1503,1.0183,0.9822,0.9819,0.9451,0.8102,0.7858,0.7565,0.6394,0.5018,0.4031,0.4282,0.3094,0.2155,0.2155,0.2155,0.2155,0.2155,0.2155,0.174,0.066,0.0534,-0.0399,-0.2453,-0.2577,-0.2576,-0.2575,-0.3385,-0.3977,-0.4033,-0.398,-0.3951,-0.3951,-0.3951,-0.3951,-0.3951,-0.3951,-0.3951,3.9212,3.8944,3.852,3.8404,3.8827,3.9094,3.8197,3.9397,4.0533,3.9993,3.8492,3.7682,3.8979,3.9448,3.9755,4.0036,4.1111,4.1724,4.1163,4.1831,4.2016,4.117,4.1383,4.1111,3.9766,3.9431,3.8795,3.7493,3.6642,3.5813,3.5133,3.4267,3.3796,3.3861,3.3373,3.2647,3.167,3.1078,3.0341,2.9376,2.9228,2.9657,3.063,2.984,2.9186,2.8338,2.6733,2.5635,2.4932,2.444,2.4242,2.4152,2.3338,2.2828,2.2316,2.0775,1.9952,1.9539,1.8408,1.8094,1.7996,1.7681,1.7582,1.747,1.6611,1.618,1.5553,1.3898,1.3542,1.3279,1.2086,1.1639,1.1507,1.1386,1.0664,0.9697,0.8714,0.8471,0.8102,0.6752,0.5751,0.5091,0.4751,0.3537,0.2798,0.2822,0.2423,0.2155,0.2155,0.2155,0.2155,0.2155,0.1481,0.0806,0.0535,-0.094,-0.201,-0.2657,-0.3289,-0.3631,-0.3556,-0.374,-0.3958,-0.3976,-0.3959,-0.3951,-0.3951,-0.3951,-0.3971,-0.4008,-0.3969,-0.4491,3.9016,3.8817,3.8496,3.7955,3.8311,3.8606,3.7764,3.8531,3.9614,3.9957,3.8739,3.7911,3.8994,3.9387,3.952,3.9846,4.0885,4.1555,4.1149,4.1179,4.0981,4.0337,3.9759,3.9009,3.8054,3.7658,3.7016,3.5863,3.525,3.4629,3.3962,3.3301,3.281,3.2554,3.226,3.1437,3.0086,2.9702,2.8986,2.8121,2.7852,2.8059,2.8593,2.8209,2.7734,2.7231,2.5633,2.4833,2.4637,2.435,2.4045,2.366,2.2788,2.1995,2.1171,1.9687,1.8916,1.8506,1.7786,1.7582,1.7582,1.7047,1.6935,1.6717,1.5535,1.4962,1.4304,1.2856,1.2456,1.2284,1.1504,1.1048,1.0789,1.0789,0.9937,0.8839,0.8102,0.749,0.6754,0.5406,0.4514,0.3835,0.3345,0.2628,0.2141,0.2153,0.2155,0.2155,0.2155,0.175,0.1481,0.1481,0.0538,-0.0269,-0.0673,-0.2017,-0.2824,-0.3362,-0.385,-0.4172,-0.4075,-0.4015,-0.3984,-0.3984,-0.3962,-0.3951,-0.3951,-0.3951,-0.398,-0.4034,-0.4621,-0.5286,3.859,3.8772,3.8914,3.7546,3.7605,3.7937,3.7764,3.781,3.831,3.9517,3.9183,3.8642,3.8546,3.8988,3.9312,3.9241,4.022,4.0989,4.0836,4.0199,3.9648,3.9466,3.8281,3.7093,3.6057,3.5931,3.5347,3.3935,3.357,3.3279,3.2934,3.2204,3.152,3.0777,3.0331,2.959,2.8522,2.7631,2.7169,2.7043,2.6585,2.6328,2.6318,2.6871,2.6486,2.5235,2.4735,2.4341,2.4053,2.4053,2.3551,2.28,2.2393,2.1227,1.9681,1.9277,1.845,1.7622,1.7595,1.7582,1.7259,1.6287,1.5861,1.5535,1.4347,1.3312,1.2637,1.2361,1.1876,1.1406,1.1358,1.0978,1.0521,1.0521,0.9188,0.7858,0.7612,0.663,0.5286,0.3944,0.3745,0.3423,0.232,0.2093,0.2123,0.2151,0.2155,0.2155,0.2155,0.1212,0.0538,0.0538,-0.0538,-0.1613,-0.2555,-0.2824,-0.3228,-0.4172,-0.4256,-0.4198,-0.4136,-0.4071,-0.4034,-0.4034,-0.3984,-0.3958,-0.3958,-0.3958,-0.3988,-0.4293,-0.5539,-0.6345,3.8898,3.886,3.875,3.7927,3.7445,3.7131,3.6919,3.6888,3.7309,3.8527,3.8181,3.7916,3.8859,3.9124,3.9244,3.9175,3.9828,3.9895,3.8729,3.8855,3.8575,3.7096,3.6645,3.607,3.5047,3.4388,3.3909,3.3632,3.2793,3.2007,3.1168,3.0781,3.0125,2.9205,2.9106,2.8413,2.7033,2.7108,2.6645,2.5575,2.5751,2.5879,2.5889,2.632,2.5937,2.4941,2.4637,2.3827,2.2837,2.2837,2.2266,2.1329,2.0585,2.0076,1.9604,1.8593,1.8158,1.7909,1.7669,1.7041,1.618,1.5968,1.5215,1.4245,1.3166,1.2446,1.195,1.1011,1.0595,1.0402,1.036,0.9604,0.8677,0.8677,0.8274,0.7368,0.5161,0.455,0.3951,0.2628,0.2413,0.2449,0.2094,0.2125,0.2147,0.2154,0.2155,0.2155,0.2155,0.1212,0.0538,0.0538,-0.1211,-0.242,-0.269,-0.3498,-0.4038,-0.4308,-0.4294,-0.426,-0.42,-0.4093,-0.4034,-0.4034,-0.4023,-0.4016,-0.4016,-0.4016,-0.455,-0.5758,-0.607,-0.7434,3.8662,3.8551,3.8197,3.7055,3.6508,3.615,3.6072,3.63,3.6691,3.7339,3.7356,3.7506,3.8173,3.8536,3.8826,3.9146,3.9465,3.9326,3.8488,3.8003,3.7276,3.5738,3.4899,3.4235,3.3669,3.3231,3.2781,3.2313,3.1615,3.0824,2.9795,2.9612,2.905,2.8028,2.8028,2.7359,2.6219,2.6229,2.5944,2.5391,2.541,2.5121,2.4541,2.5369,2.5032,2.3908,2.3628,2.282,2.1709,2.1709,2.1186,2.03,1.9687,1.9269,1.8735,1.7928,1.7802,1.7868,1.6884,1.6368,1.5917,1.4606,1.3814,1.3058,1.1769,1.1291,1.1142,1.0262,0.9642,0.9371,0.9322,0.826,0.7168,0.6611,0.6261,0.5651,0.4182,0.3448,0.2848,0.2138,0.2043,0.2074,0.2104,0.2134,0.2155,0.2155,0.2155,0.202,0.1481,0.0404,-0.0404,-0.0942,-0.2556,-0.3498,-0.3498,-0.4037,-0.4308,-0.4308,-0.4308,-0.4281,-0.4219,-0.4155,-0.4108,-0.4079,-0.4078,-0.4078,-0.4078,-0.471,-0.5511,-0.6364,-0.7722,-0.9113,3.7874,3.7726,3.7456,3.593,3.5578,3.5514,3.527,3.5783,3.6186,3.6067,3.674,3.7273,3.7157,3.7723,3.8347,3.8797,3.8804,3.8724,3.8412,3.703,3.5808,3.4723,3.3492,3.255,3.2388,3.2213,3.1737,3.0902,3.0441,2.9795,2.8773,2.8511,2.791,2.6886,2.672,2.6279,2.54,2.5107,2.5107,2.54,2.4908,2.4174,2.3112,2.3855,2.3547,2.2498,2.2282,2.1607,2.0577,2.0577,2.0119,1.929,1.9089,1.8512,1.7909,1.7408,1.743,1.7453,1.6008,1.5494,1.5275,1.3163,1.2228,1.1769,1.0688,1.0247,1.0141,0.9476,0.8855,0.8236,0.8001,0.6953,0.5645,0.4727,0.409,0.3573,0.3581,0.2718,0.1988,0.2026,0.2059,0.2088,0.2112,0.2138,0.2155,0.1885,0.1885,0.1481,0.0404,-0.0672,-0.1747,-0.2555,-0.3632,-0.4308,-0.4308,-0.4308,-0.4308,-0.4308,-0.4308,-0.4285,-0.4234,-0.4232,-0.4209,-0.4158,-0.4146,-0.414,-0.414,-0.5553,-0.6492,-0.6697,-0.9435,-1.0823,3.6146,3.6286,3.643,3.5642,3.5819,3.5946,3.4787,3.503,3.5353,3.48,3.6081,3.7128,3.6548,3.7404,3.8057,3.7622,3.7368,3.692,3.6182,3.5057,3.403,3.3144,3.2686,3.2388,3.24,3.1371,3.0722,3.0531,2.951,2.8495,2.7463,2.7097,2.6434,2.5421,2.4962,2.4496,2.4053,2.4355,2.4355,2.4053,2.3504,2.2969,2.2307,2.1691,2.1218,2.1031,2.1054,2.0467,1.9435,1.9435,1.8848,1.7874,1.8104,1.7949,1.7635,1.7555,1.6929,1.6123,1.5731,1.446,1.2915,1.2755,1.1696,1.0582,1.0363,0.9941,0.9321,0.8194,0.7684,0.7164,0.6111,0.5013,0.3984,0.3873,0.3057,0.223,0.2257,0.2118,0.2001,0.2081,0.2122,0.2144,0.2148,0.2152,0.1885,0.0942,0.0673,0.0269,-0.0807,-0.1882,-0.2555,-0.269,-0.3632,-0.4308,-0.4308,-0.4308,-0.4308,-0.4308,-0.4308,-0.4304,-0.4296,-0.4296,-0.4292,-0.4283,-0.4232,-0.4204,-0.4204,-0.5637,-0.6945,-0.8261,-0.9825,-1.1344,3.5753,3.548,3.5219,3.4905,3.5088,3.5154,3.4534,3.4654,3.4787,3.4467,3.5372,3.6127,3.5836,3.6519,3.7011,3.6639,3.6104,3.548,3.4791,3.3675,3.2676,3.1945,3.1553,3.1028,3.0414,3.0038,2.9351,2.7984,2.7678,2.6982,2.5722,2.5428,2.5152,2.4697,2.4521,2.4326,2.4141,2.4092,2.3683,2.2947,2.2575,2.171,2.0186,1.9622,1.9346,1.949,1.9628,1.9067,1.8053,1.8053,1.7846,1.7335,1.7308,1.7208,1.6965,1.6291,1.5902,1.5713,1.4057,1.3023,1.2427,1.1858,1.1019,1.0066,0.9381,0.8818,0.8155,0.6734,0.5798,0.507,0.4634,0.3618,0.2688,0.2688,0.2348,0.2008,0.2037,0.2021,0.2022,0.2095,0.2133,0.2155,0.2155,0.1616,0.1077,0.0538,-0.0,-0.0807,-0.1882,-0.242,-0.2958,-0.3498,-0.4038,-0.4308,-0.4308,-0.4308,-0.4308,-0.4308,-0.4308,-0.4308,-0.4308,-0.4308,-0.4308,-0.4308,-0.4281,-0.4665,-0.5457,-0.6912,-0.8363,-0.9814,-1.113,-1.2231,3.5033,3.4655,3.4211,3.437,3.4414,3.4414,3.4414,3.4414,3.4414,3.4414,3.464,3.4819,3.4819,3.5467,3.5883,3.5339,3.4651,3.4059,3.3675,3.2508,3.1499,3.1016,3.0375,2.9701,2.8861,2.8649,2.781,2.6034,2.5982,2.5573,2.4434,2.4316,2.4258,2.4258,2.415,2.4092,2.4092,2.35,2.2787,2.1762,2.1313,2.0197,1.8502,1.7853,1.7616,1.7771,1.8247,1.7911,1.7041,1.7121,1.7108,1.7014,1.6491,1.6253,1.6069,1.4829,1.4537,1.4456,1.2451,1.1828,1.1742,1.0988,1.0145,0.9212,0.8329,0.7655,0.6757,0.5321,0.437,0.3615,0.3389,0.2691,0.1977,0.1977,0.1998,0.2026,0.2057,0.2059,0.2064,0.2102,0.2133,0.2155,0.1885,0.1077,0.0269,-0.0269,-0.0941,-0.1882,-0.2959,-0.3094,-0.3363,-0.4172,-0.4308,-0.4308,-0.4308,-0.4308,-0.4308,-0.4308,-0.4308,-0.4308,-0.4308,-0.4308,-0.4308,-0.4308,-0.4308,-0.4975,-0.6443,-0.7907,-0.9371,-1.0704,-1.2169,-1.2836,3.3296,3.358,3.3659,3.4269,3.4414,3.4414,3.4414,3.4414,3.4414,3.4414,3.3839,3.3339,3.3339,3.4353,3.4766,3.3369,3.2811,3.2541,3.2527,3.1304,3.0479,3.0433,2.9447,2.8826,2.8775,2.7194,2.6034,2.5924,2.5057,2.4434,2.4414,2.4043,2.3828,2.3828,2.3418,2.3203,2.3203,2.2283,2.1266,2.0266,1.918,1.8357,1.7971,1.6791,1.6157,1.6014,1.6874,1.7089,1.6747,1.7034,1.6981,1.6627,1.5702,1.5032,1.4733,1.3757,1.2617,1.1562,1.1724,1.1013,0.9975,1.0119,0.9049,0.7736,0.7621,0.6633,0.5303,0.4166,0.3727,0.3505,0.2334,0.2099,0.1977,0.1977,0.1998,0.2026,0.2057,0.2108,0.214,0.2114,0.2133,0.1885,0.0808,0.0538,-0.0135,-0.2286,-0.2555,-0.2959,-0.4038,-0.4172,-0.4172,-0.4308,-0.4308,-0.4308,-0.4308,-0.4308,-0.4308,-0.4308,-0.4308,-0.4308,-0.4308,-0.4308,-0.4308,-0.4308,-0.4308,-0.4975,-0.6443,-0.7907,-0.9371,-1.0704,-1.2169,-1.2836,3.2614,3.2861,3.3006,3.3645,3.3804,3.3906,3.4312,3.3977,3.3604,3.3604,3.2946,3.2146,3.1623,3.2353,3.2779,3.2101,3.1383,3.0915,3.1085,2.9964,2.9102,2.8916,2.8159,2.7284,2.6183,2.5662,2.502,2.4137,2.4028,2.3896,2.3613,2.3457,2.3094,2.2462,2.2311,2.1872,2.123,2.0872,2.015,1.9063,1.8411,1.7677,1.6857,1.6211,1.5927,1.5858,1.6366,1.6526,1.6433,1.654,1.6123,1.5406,1.4839,1.4125,1.328,1.2224,1.1573,1.1209,1.0527,1.0006,0.964,0.912,0.8256,0.7268,0.5916,0.4922,0.4033,0.2883,0.255,0.2574,0.2097,0.199,0.2013,0.2052,0.2069,0.2085,0.2116,0.2124,0.2128,0.2137,0.161,0.0942,0.0538,-0.0673,-0.1749,-0.2555,-0.3228,-0.3902,-0.4307,-0.4308,-0.4308,-0.4308,-0.4308,-0.4308,-0.4308,-0.4308,-0.4308,-0.4308,-0.4308,-0.4308,-0.4308,-0.4308,-0.4308,-0.4308,-0.4308,-0.551,-0.7774,-0.8307,-0.9772,-1.2037,-1.2568,-1.2972,3.2004,3.2179,3.2396,3.3253,3.347,3.3564,3.3901,3.352,3.3003,3.2791,3.2001,3.1132,3.0607,3.0683,3.0724,3.0662,3.002,2.9642,2.9833,2.8913,2.814,2.7969,2.7184,2.6236,2.503,2.4737,2.4265,2.3379,2.3486,2.3447,2.3154,2.3135,2.2687,2.1695,2.1329,2.0692,1.9604,1.9604,1.8964,1.7785,1.7498,1.6951,1.6224,1.5927,1.5832,1.5838,1.6039,1.6126,1.6132,1.5836,1.5329,1.4442,1.3579,1.2732,1.1975,1.0911,1.0459,1.029,0.9591,0.905,0.8555,0.8033,0.7085,0.5899,0.4564,0.3671,0.2875,0.2182,0.1961,0.1977,0.1977,0.199,0.2022,0.2093,0.2101,0.1973,0.1743,0.1872,0.1997,0.1747,0.1077,0.0269,-0.0404,-0.1749,-0.2824,-0.3228,-0.3902,-0.4308,-0.4308,-0.4308,-0.4308,-0.4308,-0.4308,-0.4308,-0.4308,-0.4308,-0.4308,-0.4308,-0.4308,-0.4308,-0.4308,-0.4308,-0.4308,-0.4308,-0.4575,-0.591,-0.8573,-0.8573,-1.0038,-1.2836,-1.2972,-1.3235,0.0,0.0,0.0,3.3093,3.3412,3.3321,3.3198,3.2989,3.2648,3.1928,3.0983,3.0254,3.0254,2.9484,2.8882,2.9052,2.8882,2.8803,2.8791,2.8175,2.774,2.774,2.6616,2.5764,2.5754,2.4576,2.3799,2.3789,2.3398,2.3067,2.3047,2.296,2.2599,2.1606,2.0602,1.9513,1.8334,1.8334,1.7785,1.6588,1.6312,1.6224,1.6224,1.5927,1.5737,1.573,1.573,1.573,1.5655,1.496,1.4521,1.4004,1.195,1.0974,1.0609,0.9815,0.918,0.872,0.9026,0.8157,0.688,0.6998,0.5477,0.3605,0.3609,0.2825,0.19,0.196,0.1977,0.1977,0.1979,0.1979,0.2001,0.209,0.2088,0.1822,0.0669,0.1346,0.175,0.0673,0.0404,-0.0269,-0.2286,-0.269,-0.3094,-0.4172,-0.4308,-0.4308,-0.4308,-0.4308,-0.4308,-0.4308,-0.4308,-0.4308,-0.4308,-0.4308,-0.4308,-0.4308,-0.4308,-0.4308,-0.4308,-0.4308,-0.4308,-0.4308,-0.5112,-0.6447,-0.8706,-0.8573,-1.0038,-1.2836,-1.3235,-1.3757,3.0434,0.0,0.0,0.0,0.0,0.0,3.1273,3.1169,3.0983,3.0758,2.9935,2.9172,2.9172,2.8882,2.8578,2.8669,2.8578,2.8327,2.7753,2.7764,2.7307,2.6022,2.5832,2.5492,2.4864,2.449,2.4111,2.3809,2.3682,2.3191,2.2167,2.0782,1.9877,1.9604,1.8519,1.7707,1.7434,1.7239,1.6864,1.6312,1.6224,1.6123,1.5927,1.5832,1.5445,1.4682,1.4682,1.419,1.3312,1.4075,1.338,1.1755,1.117,1.0293,0.9335,0.9015,0.8878,0.86,0.7842,0.722,0.6647,0.5039,0.4131,0.3432,0.2691,0.2138,0.1926,0.1966,0.1977,0.1986,0.2029,0.2039,0.1928,0.1062,0.0934,0.0666,-0.0403,-0.0403,-0.0269,-0.0538,-0.1345,-0.2017,-0.2555,-0.3363,-0.3902,-0.4307,-0.4308,-0.4308,-0.4308,-0.4308,-0.4308,-0.4308,-0.4308,-0.4308,-0.4308,-0.4308,-0.4308,-0.4308,-0.4308,-0.4308,-0.4308,-0.4844,-0.5112,-0.5112,-0.5783,-0.7379,-0.9763,-0.9507,-1.0704,-1.3235,-1.3888,-1.4277,2.9247,2.8903,2.876,2.9697,0.0,0.0,3.0421,3.0361,3.0088,2.9704,2.9106,2.8657,2.8657,2.8247,2.7938,2.7938,2.7592,2.7336,2.7185,2.7099,2.6574,2.5539,2.5584,2.5515,2.4971,2.4795,2.4512,2.4082,2.3515,2.2578,2.1168,1.9513,1.8611,1.8611,1.7426,1.6784,1.6697,1.6501,1.6312,1.6028,1.6028,1.5927,1.5832,1.5832,1.5255,1.4298,1.419,1.321,1.1755,1.2441,1.1853,1.0583,1.0096,0.941,0.8538,0.813,0.786,0.7585,0.6521,0.5771,0.5188,0.3949,0.3242,0.274,0.2106,0.1898,0.1922,0.1964,0.1977,0.199,0.2048,0.1797,0.1289,0.0668,0.0134,-0.0401,-0.1477,-0.1747,-0.1747,-0.1747,-0.2286,-0.2824,-0.3228,-0.3902,-0.4308,-0.4308,-0.4308,-0.4308,-0.4308,-0.4308,-0.4308,-0.4308,-0.4331,-0.4335,-0.4309,-0.4331,-0.4335,-0.4309,-0.4308,-0.4442,-0.471,-0.5112,-0.5515,-0.5783,-0.6449,-0.8046,-1.0561,-1.0167,-1.123,-1.3888,-1.4277,-1.458,2.8013,2.7947,2.8146,2.9244,2.9491,0.0,2.9921,2.9884,2.9614,2.8949,2.8657,2.851,2.851,2.7765,2.7185,2.7185,2.6329,2.5913,2.6764,2.6227,2.5754,2.5673,2.566,2.5742,2.5742,2.5371,2.4961,2.4326,2.2824,2.1369,2.0076,1.888,1.8156,1.8156,1.7138,1.64,1.6224,1.613,1.6028,1.5832,1.5832,1.5832,1.5832,1.5635,1.5064,1.41,1.3692,1.2425,1.0489,1.0293,1.0194,1.0096,0.9118,0.8528,0.8031,0.7129,0.6531,0.6065,0.5233,0.4245,0.3316,0.3424,0.2684,0.1806,0.1867,0.1886,0.1898,0.196,0.1979,0.1994,0.1922,0.1151,0.0384,0.0133,-0.0533,-0.159,-0.2683,-0.2824,-0.2824,-0.2824,-0.2824,-0.3228,-0.4172,-0.4308,-0.4308,-0.4308,-0.4308,-0.4308,-0.4308,-0.4308,-0.4308,-0.4308,-0.4356,-0.4367,-0.4312,-0.4357,-0.4365,-0.4311,-0.4441,-0.471,-0.5381,-0.5515,-0.5915,-0.6451,-0.7514,-0.9114,-1.1258,-1.07,-1.1882,-1.4403,-1.4426,-1.4795,2.8232,2.7821,2.75,2.8172,2.8176,0.0,2.82,2.8499,2.8736,2.8578,2.851,2.851,2.851,2.7765,2.7185,2.7185,2.583,2.4829,2.4999,2.5451,2.5492,2.4772,2.529,2.5742,2.5742,2.5664,2.5025,2.3802,2.1096,1.9349,1.8812,1.7598,1.6951,1.6951,1.6494,1.6218,1.6224,1.6028,1.5832,1.5832,1.5832,1.5832,1.5737,1.4968,1.3902,1.263,1.175,1.0485,0.8821,0.8825,0.8825,0.8726,0.8528,0.7832,0.6734,0.6534,0.5929,0.4941,0.4027,0.3469,0.3204,0.24,0.1996,0.1806,0.1867,0.1886,0.1898,0.196,0.1993,0.1766,0.0898,0.0649,-0.0,-0.1606,-0.2281,-0.2681,-0.3765,-0.4038,-0.4038,-0.4038,-0.4038,-0.4038,-0.4307,-0.4308,-0.4308,-0.4308,-0.4308,-0.4308,-0.4308,-0.4308,-0.4308,-0.4308,-0.4318,-0.432,-0.4308,-0.4319,-0.432,-0.4308,-0.4844,-0.5247,-0.5381,-0.6447,-0.7114,-0.725,-0.9769,-1.1294,-1.1825,-1.209,-1.3079,-1.4408,-1.4832,-1.5058,2.7585,2.7296,2.7152,2.7691,2.7742,0.0,0.0,2.8318,2.8351,2.7926,2.7846,2.7672,2.7244,2.6423,2.5841,2.5841,2.4659,2.382,2.382,2.4394,2.4716,2.4385,2.5,2.5488,2.5713,2.5226,2.3956,2.1687,1.9902,1.8517,1.7527,1.677,1.6407,1.6407,1.6123,1.6028,1.6028,1.5832,1.5832,1.5825,1.5255,1.5064,1.5064,1.3998,1.2829,1.156,1.0877,0.9805,0.8432,0.8237,0.7935,0.7434,0.7434,0.7036,0.6242,0.5286,0.4489,0.3893,0.2951,0.257,0.2488,0.1982,0.1793,0.1826,0.1872,0.1907,0.1816,0.1352,0.1247,0.1012,-0.0,-0.0652,-0.1321,-0.2412,-0.3094,-0.3632,-0.4172,-0.4308,-0.4308,-0.4308,-0.4308,-0.4308,-0.4308,-0.4308,-0.4308,-0.4308,-0.4308,-0.4308,-0.4308,-0.4308,-0.4308,-0.4308,-0.4335,-0.4341,-0.4311,-0.4361,-0.4506,-0.4849,-0.5281,-0.5688,-0.6449,-0.7114,-0.7675,-0.8135,-1.0149,-1.1429,-1.2127,-1.2905,-1.3755,-1.4818,-1.5053,-1.5347,2.6852,2.6776,2.6895,2.725,2.7301,2.7486,0.0,0.0,0.0,2.7092,2.6928,2.667,2.5913,2.5073,2.4498,2.4498,2.3734,2.3135,2.3135,2.3437,2.3818,2.4248,2.4491,2.4793,2.515,2.3966,2.2209,1.9681,1.8854,1.786,1.6602,1.6312,1.6123,1.6123,1.5927,1.5832,1.5832,1.5832,1.5832,1.5825,1.4771,1.4196,1.419,1.2829,1.1658,1.0583,1.0194,0.9213,0.8031,0.7736,0.7036,0.6134,0.6337,0.6134,0.5543,0.3908,0.3211,0.2916,0.2053,0.175,0.1755,0.1785,0.1706,0.1507,0.1649,0.157,0.1234,0.0493,0.0125,-0.0127,-0.1028,-0.1958,-0.2785,-0.2951,-0.3633,-0.4308,-0.4308,-0.4308,-0.4308,-0.4308,-0.4308,-0.4308,-0.4308,-0.4308,-0.4308,-0.4308,-0.4308,-0.4308,-0.4308,-0.4442,-0.4442,-0.4308,-0.4487,-0.4497,-0.4312,-0.4541,-0.4971,-0.5389,-0.5737,-0.6425,-0.7519,-0.767,-0.8148,-0.8837,-0.9905,-1.105,-1.2294,-1.323,-1.4222,-1.5295,-1.5295,-1.5498,2.6674,2.6426,2.6382,2.6129,2.5992,2.6003,2.6058,0.0,2.6069,2.5986,0.0,2.5913,2.583,0.0,0.0,2.4498,2.3734,2.3135,2.3135,2.3184,2.3379,2.3809,2.3473,2.327,2.3316,2.1298,1.9916,1.9552,1.7901,1.6732,1.6238,1.6028,1.5832,1.5832,1.5832,1.5832,1.5832,1.5832,1.5832,1.5825,1.4561,1.3974,1.3878,1.1653,1.0489,0.9998,0.9019,0.7832,0.6637,0.6637,0.5932,0.5125,0.6032,0.5231,0.3533,0.3394,0.2696,0.1879,0.1837,0.175,0.1755,0.1785,0.126,0.0589,0.0598,-0.0,-0.074,-0.074,-0.0881,-0.1029,-0.2189,-0.2499,-0.2953,-0.3901,-0.4172,-0.4308,-0.4308,-0.4308,-0.4308,-0.4308,-0.4308,-0.4308,-0.4308,-0.4308,-0.4308,-0.4308,-0.4308,-0.4308,-0.4308,-0.4844,-0.4978,-0.4307,-0.4852,-0.4986,-0.4308,-0.5046,-0.5466,-0.5386,-0.6748,-0.7589,-0.7522,-0.8283,-0.8718,-0.9087,-0.9956,-1.1064,-1.2326,-1.3267,-1.442,-1.5522,-1.5522,-1.5645,2.6192,2.6028,2.5991,2.5859,2.5819,2.5819,2.5819,2.5819,2.5663,2.5158,0.0,0.0,0.0,0.0,0.0,0.0,2.3396,2.3135,2.3135,2.3135,2.3301,2.374,2.3098,2.2155,2.105,2.0119,1.9077,1.7931,1.7127,1.6449,1.5947,1.5832,1.5832,1.5832,1.5832,1.5832,1.5832,1.5255,1.486,1.4657,1.2909,1.2037,1.1843,1.019,0.9312,0.9019,0.7925,0.7033,0.6334,0.5729,0.4826,0.3924,0.4327,0.4053,0.3181,0.2614,0.212,0.1719,0.1761,0.1776,0.1672,0.1145,0.0349,-0.0355,-0.0364,-0.0736,-0.1109,-0.1726,-0.189,-0.2191,-0.3222,-0.3555,-0.3768,-0.4172,-0.4308,-0.4308,-0.4308,-0.4308,-0.4308,-0.4308,-0.4308,-0.4308,-0.4308,-0.4308,-0.4308,-0.4308,-0.4308,-0.4442,-0.4844,-0.5247,-0.5381,-0.5515,-0.5783,-0.5915,-0.5515,-0.5897,-0.6324,-0.6589,-0.7796,-0.8417,-0.825,-0.8708,-0.8957,-0.913,-1.0199,-1.1355,-1.2641,-1.36,-1.4683,-1.5919,-1.5791,-1.5848,2.5495,2.5411,2.5411,2.5147,2.5062,2.5062,2.5062,2.5062,2.4904,2.4241,2.4155,0.0,0.0,0.0,2.3047,2.3057,0.0,2.2872,2.2589,2.2501,2.2792,2.3485,2.2407,2.089,1.8985,1.8648,1.8059,1.6787,1.6601,1.6258,1.5838,1.5832,1.5832,1.5832,1.554,1.535,1.535,1.4286,1.3607,1.3392,1.1458,1.0489,1.0293,0.9118,0.8329,0.7832,0.7033,0.6232,0.5432,0.4726,0.3723,0.2722,0.2722,0.2761,0.2718,0.2014,0.1723,0.1754,0.1561,0.1234,0.0902,0.0233,-0.0588,-0.1301,-0.1344,-0.1607,-0.1984,-0.273,-0.2915,-0.3241,-0.3891,-0.4217,-0.4286,-0.4304,-0.4294,-0.4288,-0.4304,-0.4308,-0.4307,-0.4577,-0.4575,-0.4575,-0.4575,-0.4442,-0.4308,-0.4308,-0.4441,-0.4844,-0.5381,-0.5781,-0.6049,-0.6319,-0.6608,-0.6623,-0.6488,-0.6789,-0.7404,-0.7969,-0.8531,-0.8889,-0.9041,-0.9016,-0.9057,-0.9179,-1.0025,-1.1206,-1.2749,-1.3479,-1.4617,-1.6178,-1.5961,-1.5975,2.4744,2.4584,2.4327,2.3396,2.3222,2.3222,2.3222,2.3222,2.3135,2.3135,2.3135,2.3144,2.3144,2.3135,2.3057,2.2794,2.2794,0.0,0.0,2.1042,2.1596,2.2979,2.1266,1.9225,1.7319,1.6607,1.6464,1.6655,1.6204,1.5838,1.5832,1.5832,1.5832,1.5832,1.4873,1.4394,1.4394,1.3022,1.2339,1.2339,1.0779,0.9998,0.9998,0.8627,0.7437,0.6437,0.6434,0.5231,0.3324,0.3224,0.2622,0.1617,0.1617,0.1652,0.1703,0.1704,0.1723,0.1644,0.0781,-0.0112,-0.0789,-0.0815,-0.1529,-0.2368,-0.2443,-0.3114,-0.3906,-0.3906,-0.3991,-0.4214,-0.4214,-0.4217,-0.4234,-0.4293,-0.4263,-0.4236,-0.4294,-0.4308,-0.4575,-0.5247,-0.5381,-0.5381,-0.5381,-0.471,-0.4308,-0.4308,-0.4844,-0.5381,-0.5381,-0.6581,-0.7116,-0.6453,-0.7206,-0.7397,-0.6712,-0.7445,-0.8456,-0.9131,-0.9071,-0.9049,-0.9283,-0.9188,-0.9182,-0.9296,-0.9296,-1.0449,-1.2749,-1.2745,-1.3888,-1.6178,-1.5961,-1.5975,2.1275,2.1185,2.1194,2.1051,2.097,2.115,2.1961,2.2148,2.2325,2.2794,2.2882,2.2696,2.1863,2.1676,2.1498,2.0773,2.0593,2.0503,0.0,2.0042,1.9861,1.9596,1.8956,1.8094,1.664,1.6279,1.6171,1.6074,1.5313,1.4777,1.4777,1.4088,1.3794,1.3794,1.3414,1.3125,1.3022,1.1853,1.117,1.0779,0.9509,0.852,0.7624,0.7132,0.6331,0.5327,0.4628,0.3827,0.3123,0.2422,0.1919,0.1619,0.1639,0.167,0.1704,0.1704,0.1302,0.0779,-0.0112,-0.1009,-0.1803,-0.1863,-0.2589,-0.3317,-0.3423,-0.3716,-0.3986,-0.4025,-0.4093,-0.4157,-0.4157,-0.4187,-0.4221,-0.4243,-0.4232,-0.4233,-0.4294,-0.471,-0.5112,-0.5381,-0.5783,-0.6049,-0.6049,-0.5915,-0.5515,-0.5112,-0.5247,-0.5781,-0.6715,-0.7309,-0.7757,-0.7897,-0.8267,-0.8334,-0.8196,-0.8408,-0.8813,-0.9291,-0.9158,-0.9141,-0.9296,-0.9266,-0.9264,-0.9302,-0.9304,-1.0452,-1.2749,-1.2749,-1.3892,-1.6178,-1.6108,-1.6112,1.9588,1.9497,1.9497,1.9695,1.9786,1.9968,2.0773,2.0962,2.1051,2.1516,2.1606,2.1418,2.0593,2.0494,2.0223,1.9497,1.9405,1.9222,0.0,1.8395,1.794,1.7131,1.7584,1.7404,1.6218,1.6028,1.5832,1.535,1.4682,1.41,1.3709,1.3119,1.2727,1.2727,1.2339,1.2047,1.1755,1.0681,0.9702,0.881,0.8024,0.7033,0.5832,0.5832,0.5229,0.4225,0.3524,0.3024,0.2622,0.1918,0.1415,0.1214,0.1229,0.1043,0.0853,0.1502,0.0985,-0.0224,-0.1009,-0.1913,-0.2725,-0.2917,-0.331,-0.382,-0.3921,-0.3965,-0.3988,-0.4025,-0.4094,-0.4158,-0.4158,-0.417,-0.4195,-0.4239,-0.4215,-0.4206,-0.4557,-0.5112,-0.5515,-0.6048,-0.6449,-0.6851,-0.6851,-0.6851,-0.6585,-0.5917,-0.5915,-0.6449,-0.7381,-0.7846,-0.8176,-0.8766,-0.8878,-0.8986,-0.9071,-0.9076,-0.9141,-0.9294,-0.9234,-0.9228,-0.9302,-0.9304,-0.9304,-0.9304,-0.9304,-1.0452,-1.2749,-1.2749,-1.3892,-1.6183,-1.6183,-1.6183]},{"header":{"parameterUnit":"m.s-1","parameterCategory":1,"la1":30.6,"la2":29.2853,"lo1":-89.7004,"lo2":-87.6739,"dy":0.0162,"dx":0.0183,"nx":112,"ny":82,"refTime":"2024-05-08T00:00:00:Z","depth":0,"parameterNumber":3,"parameterNumberName":"V-component_of_WINDS"},"data":[0.0,0.0,0.0,0.0,0.0,0.0,0.0,0.0,0.0,0.0,0.0,0.0,0.0,0.0,0.0,0.0,0.0,0.0,0.0,0.0,0.0,0.0,0.0,0.0,0.0,0.0,0.0,0.0,0.0,0.0,0.0,0.0,0.0,0.0,0.0,0.0,0.0,0.0,0.0,0.0,0.0,0.0,0.0,0.0,0.0,0.0,0.0,0.0,0.0,0.0,0.0,0.0,0.0,0.0,0.0,0.0,0.0,0.0,0.0,0.0,0.0,0.0,0.0,0.0,0.0,0.0,0.0,0.0,0.0,0.0,0.0,0.0,0.0,0.0,0.0,0.0,0.0,0.0,0.0,0.0,0.0,0.0,0.0,0.0,0.0,0.0,0.0,0.0,0.0,0.0,-2.7854,-3.0817,-3.2739,-3.5046,-3.7961,-4.0211,-3.9427,-3.4495,0.0,0.0,0.0,0.0,0.0,0.0,0.0,0.0,0.0,0.0,0.0,0.0,0.0,0.0,0.0,0.0,0.0,0.0,0.0,0.0,0.0,0.0,0.0,0.0,0.0,0.0,0.0,0.0,0.0,0.0,0.0,0.0,0.0,0.0,0.0,0.0,0.0,0.0,0.0,0.0,0.0,0.0,0.0,0.0,0.0,0.0,0.0,0.0,0.0,0.0,0.0,0.0,0.0,0.0,0.0,0.0,0.0,0.0,0.0,0.0,0.0,0.0,0.0,0.0,0.0,0.0,0.0,0.0,0.0,0.0,0.0,0.0,0.0,0.0,0.0,0.0,0.0,0.0,0.0,0.0,0.0,0.0,0.0,0.0,0.0,0.0,0.0,0.0,0.0,0.0,0.0,0.0,0.0,0.0,0.0,0.0,0.0,0.0,0.0,0.0,0.0,0.0,0.0,0.0,-3.4038,-3.6654,-3.7232,-3.7633,-3.815,-3.8559,-3.7219,-3.3507,0.0,0.0,0.0,0.0,0.0,0.0,0.0,0.0,0.0,0.0,0.0,0.0,0.0,0.0,0.0,0.0,0.0,0.0,0.0,0.0,0.0,0.0,0.0,0.0,0.0,0.0,0.0,0.0,0.0,0.0,0.0,0.0,0.0,0.0,0.0,0.0,0.0,0.0,0.0,0.0,0.0,0.0,0.0,0.0,0.0,0.0,0.0,0.0,0.0,0.0,0.0,0.0,0.0,0.0,0.0,0.0,0.0,0.0,0.0,0.0,0.0,0.0,0.0,0.0,0.0,0.0,0.0,0.0,0.0,0.0,0.0,0.0,0.0,0.0,0.0,0.0,0.0,0.0,0.0,0.0,0.0,0.0,0.0,0.0,0.0,0.0,0.0,0.0,0.0,0.0,0.0,0.0,0.0,0.0,0.0,0.0,0.0,0.0,0.0,0.0,0.0,0.0,0.0,-3.6357,-3.6379,-3.6159,-3.7395,-3.8003,-3.7582,-3.7919,-3.6921,-3.398,-3.2635,0.0,0.0,0.0,0.0,0.0,0.0,0.0,0.0,0.0,0.0,0.0,0.0,0.0,0.0,0.0,0.0,0.0,0.0,0.0,0.0,0.0,0.0,0.0,0.0,0.0,0.0,0.0,0.0,0.0,0.0,0.0,0.0,0.0,0.0,0.0,0.0,0.0,0.0,0.0,0.0,0.0,0.0,0.0,0.0,0.0,0.0,0.0,0.0,0.0,0.0,0.0,0.0,0.0,0.0,0.0,0.0,0.0,0.0,0.0,0.0,0.0,0.0,0.0,0.0,0.0,0.0,0.0,0.0,0.0,0.0,0.0,0.0,0.0,0.0,0.0,0.0,0.0,0.0,0.0,0.0,0.0,0.0,0.0,0.0,0.0,0.0,0.0,0.0,0.0,0.0,0.0,0.0,0.0,0.0,0.0,0.0,0.0,0.0,0.0,0.0,0.0,0.0,-3.6099,-3.6721,-3.5196,-3.6693,-3.763,-3.73,-3.7647,-3.6997,-3.4777,-3.3883,0.0,0.0,0.0,0.0,0.0,0.0,0.0,0.0,0.0,0.0,0.0,0.0,0.0,0.0,0.0,0.0,0.0,0.0,0.0,0.0,0.0,0.0,0.0,0.0,0.0,0.0,0.0,0.0,0.0,0.0,0.0,0.0,0.0,0.0,0.0,0.0,0.0,0.0,0.0,0.0,0.0,0.0,0.0,0.0,0.0,0.0,0.0,0.0,0.0,0.0,0.0,0.0,0.0,0.0,0.0,0.0,0.0,0.0,0.0,0.0,0.0,0.0,0.0,0.0,0.0,0.0,0.0,0.0,0.0,0.0,0.0,0.0,0.0,0.0,0.0,0.0,0.0,0.0,0.0,0.0,0.0,0.0,0.0,0.0,0.0,0.0,0.0,0.0,0.0,0.0,0.0,0.0,0.0,0.0,0.0,0.0,0.0,0.0,0.0,0.0,0.0,0.0,-3.4581,-3.5209,-3.6649,-3.6582,-3.691,-3.7997,-3.7497,-3.656,-3.5386,-3.4719,0.0,0.0,0.0,0.0,0.0,0.0,0.0,0.0,0.0,0.0,0.0,0.0,0.0,0.0,0.0,0.0,0.0,0.0,0.0,0.0,0.0,0.0,0.0,0.0,0.0,0.0,0.0,0.0,0.0,0.0,0.0,0.0,0.0,0.0,0.0,0.0,0.0,0.0,0.0,0.0,0.0,0.0,0.0,0.0,0.0,0.0,0.0,0.0,0.0,0.0,0.0,0.0,0.0,0.0,0.0,0.0,0.0,0.0,0.0,0.0,0.0,0.0,0.0,0.0,0.0,0.0,0.0,0.0,0.0,0.0,0.0,0.0,0.0,0.0,0.0,0.0,0.0,0.0,0.0,0.0,0.0,0.0,0.0,0.0,0.0,0.0,0.0,0.0,0.0,0.0,0.0,0.0,0.0,0.0,0.0,0.0,0.0,0.0,0.0,0.0,0.0,0.0,-3.5782,-3.6387,-3.5467,-3.6662,-3.7212,-3.6504,-3.6881,-3.6505,-3.4878,0.0,0.0,0.0,0.0,0.0,0.0,0.0,0.0,0.0,0.0,0.0,0.0,0.0,0.0,0.0,0.0,0.0,0.0,0.0,0.0,0.0,0.0,0.0,0.0,0.0,0.0,0.0,0.0,0.0,0.0,0.0,0.0,0.0,0.0,0.0,0.0,0.0,0.0,0.0,0.0,0.0,0.0,0.0,0.0,0.0,0.0,0.0,0.0,0.0,0.0,0.0,0.0,0.0,0.0,0.0,0.0,0.0,0.0,0.0,0.0,0.0,0.0,0.0,0.0,0.0,0.0,0.0,0.0,0.0,0.0,0.0,0.0,0.0,0.0,0.0,0.0,0.0,0.0,0.0,0.0,0.0,0.0,0.0,0.0,0.0,0.0,0.0,0.0,0.0,0.0,0.0,0.0,0.0,0.0,0.0,0.0,0.0,0.0,0.0,0.0,0.0,0.0,-3.3115,-3.5551,-3.6438,-3.4889,-3.6302,-3.6852,-3.5764,-3.6301,-3.6127,-3.486,0.0,0.0,0.0,0.0,0.0,0.0,0.0,0.0,0.0,0.0,0.0,0.0,0.0,0.0,0.0,0.0,0.0,0.0,0.0,0.0,0.0,0.0,0.0,0.0,0.0,0.0,0.0,0.0,0.0,0.0,0.0,0.0,0.0,0.0,0.0,0.0,0.0,0.0,0.0,0.0,0.0,0.0,0.0,0.0,0.0,0.0,0.0,0.0,0.0,0.0,0.0,0.0,0.0,0.0,0.0,0.0,0.0,0.0,0.0,0.0,0.0,0.0,0.0,0.0,0.0,0.0,0.0,0.0,0.0,0.0,0.0,0.0,0.0,0.0,0.0,0.0,0.0,0.0,0.0,0.0,0.0,0.0,0.0,0.0,0.0,0.0,0.0,0.0,0.0,0.0,0.0,0.0,0.0,0.0,0.0,0.0,0.0,0.0,0.0,0.0,0.0,0.0,-3.2011,-3.3354,-3.4661,-3.5354,-3.5427,-3.5619,-3.6228,-3.572,-3.5496,0.0,0.0,0.0,0.0,0.0,0.0,0.0,0.0,0.0,0.0,0.0,0.0,0.0,0.0,0.0,0.0,0.0,0.0,0.0,0.0,0.0,0.0,0.0,0.0,0.0,0.0,0.0,0.0,0.0,0.0,0.0,0.0,0.0,0.0,0.0,0.0,0.0,0.0,0.0,0.0,0.0,0.0,0.0,0.0,0.0,0.0,0.0,0.0,0.0,0.0,0.0,0.0,0.0,0.0,0.0,0.0,0.0,0.0,0.0,0.0,0.0,0.0,0.0,0.0,0.0,0.0,0.0,0.0,0.0,0.0,0.0,0.0,0.0,0.0,0.0,0.0,0.0,0.0,0.0,0.0,0.0,0.0,0.0,0.0,0.0,0.0,0.0,0.0,0.0,0.0,0.0,0.0,0.0,0.0,0.0,0.0,0.0,0.0,0.0,0.0,0.0,0.0,0.0,-3.2644,-3.4264,-3.5136,-3.4733,-3.5503,-3.5819,-3.5258,-3.5404,-3.5414,-3.5096,0.0,0.0,0.0,0.0,0.0,0.0,0.0,0.0,0.0,0.0,0.0,0.0,0.0,0.0,0.0,0.0,0.0,0.0,0.0,0.0,0.0,0.0,0.0,0.0,0.0,0.0,0.0,0.0,0.0,0.0,0.0,0.0,0.0,0.0,0.0,0.0,0.0,0.0,0.0,0.0,0.0,0.0,0.0,0.0,0.0,0.0,0.0,0.0,0.0,0.0,0.0,0.0,0.0,0.0,0.0,0.0,0.0,0.0,0.0,0.0,0.0,0.0,0.0,0.0,0.0,0.0,0.0,0.0,0.0,0.0,0.0,0.0,0.0,0.0,0.0,0.0,0.0,0.0,0.0,0.0,0.0,0.0,0.0,0.0,0.0,0.0,0.0,0.0,0.0,0.0,0.0,0.0,0.0,0.0,0.0,0.0,0.0,0.0,0.0,0.0,0.0,0.0,-3.2373,-3.4076,-3.4976,-3.4457,-3.5096,-3.531,-3.4771,-3.5034,-3.5266,-3.5394,0.0,0.0,0.0,0.0,0.0,0.0,0.0,0.0,0.0,0.0,0.0,0.0,0.0,0.0,0.0,0.0,0.0,0.0,0.0,0.0,0.0,0.0,0.0,0.0,0.0,0.0,0.0,0.0,0.0,0.0,0.0,0.0,0.0,0.0,0.0,0.0,0.0,0.0,0.0,0.0,0.0,0.0,0.0,0.0,0.0,0.0,0.0,0.0,0.0,0.0,0.0,0.0,0.0,0.0,0.0,0.0,0.0,0.0,0.0,0.0,0.0,0.0,0.0,0.0,0.0,0.0,0.0,0.0,0.0,0.0,0.0,0.0,0.0,0.0,0.0,0.0,0.0,0.0,0.0,0.0,0.0,0.0,0.0,0.0,0.0,0.0,0.0,0.0,0.0,0.0,0.0,0.0,0.0,0.0,0.0,0.0,0.0,0.0,0.0,0.0,0.0,0.0,-3.1797,-3.3245,-3.4414,-3.4414,-3.4414,-3.4481,-3.4698,-3.4831,-3.5264,-3.6133,0.0,0.0,0.0,0.0,0.0,0.0,0.0,0.0,0.0,0.0,0.0,0.0,0.0,0.0,0.0,0.0,0.0,0.0,0.0,0.0,0.0,0.0,0.0,0.0,0.0,0.0,0.0,0.0,0.0,0.0,0.0,0.0,0.0,0.0,0.0,0.0,0.0,0.0,0.0,0.0,0.0,0.0,0.0,0.0,0.0,0.0,0.0,0.0,0.0,0.0,0.0,0.0,0.0,0.0,0.0,0.0,0.0,0.0,0.0,0.0,-2.455,-2.3742,0.0,0.0,0.0,0.0,0.0,0.0,0.0,0.0,0.0,0.0,0.0,0.0,0.0,0.0,0.0,0.0,0.0,0.0,0.0,0.0,0.0,0.0,0.0,0.0,0.0,0.0,0.0,0.0,0.0,0.0,0.0,0.0,0.0,0.0,0.0,0.0,0.0,0.0,0.0,0.0,-3.3071,-3.3868,-3.4481,-3.4631,-3.4631,-3.4765,-3.5096,-3.5589,-3.6006,-3.6305,-3.6845,0.0,0.0,0.0,0.0,0.0,0.0,0.0,0.0,0.0,0.0,0.0,0.0,0.0,0.0,0.0,0.0,0.0,0.0,0.0,0.0,0.0,0.0,0.0,0.0,0.0,0.0,0.0,0.0,0.0,0.0,0.0,0.0,0.0,0.0,0.0,0.0,0.0,0.0,0.0,0.0,0.0,0.0,0.0,0.0,0.0,0.0,0.0,0.0,0.0,0.0,0.0,0.0,0.0,0.0,0.0,0.0,0.0,0.0,0.0,-2.6267,-2.5683,0.0,0.0,0.0,0.0,0.0,0.0,0.0,0.0,0.0,0.0,0.0,0.0,0.0,0.0,0.0,0.0,0.0,0.0,0.0,0.0,0.0,0.0,0.0,0.0,0.0,0.0,0.0,0.0,0.0,0.0,0.0,0.0,0.0,0.0,0.0,0.0,0.0,0.0,0.0,0.0,-3.3427,-3.4089,-3.4563,-3.4698,-3.5067,-3.5379,-3.5653,-3.6243,-3.6845,-3.7294,-3.7648,0.0,0.0,0.0,0.0,0.0,0.0,0.0,0.0,0.0,0.0,0.0,0.0,0.0,0.0,0.0,0.0,0.0,0.0,0.0,0.0,0.0,0.0,0.0,0.0,0.0,0.0,0.0,0.0,0.0,0.0,0.0,0.0,0.0,0.0,0.0,0.0,0.0,0.0,0.0,0.0,0.0,0.0,0.0,0.0,0.0,0.0,0.0,0.0,0.0,0.0,0.0,0.0,0.0,-2.3599,-2.4927,-2.7062,-2.622,-2.6366,-2.7277,-2.7534,-2.7644,-2.7538,-2.5361,0.0,0.0,0.0,0.0,0.0,0.0,0.0,0.0,0.0,0.0,0.0,0.0,0.0,0.0,0.0,0.0,0.0,0.0,0.0,0.0,0.0,0.0,-3.2232,-3.2232,-3.2875,-3.3227,-3.2648,0.0,0.0,0.0,0.0,0.0,0.0,0.0,0.0,0.0,0.0,0.0,-3.3689,-3.4295,-3.4765,-3.4949,-3.5559,-3.6054,-3.6368,-3.6951,-3.7589,-3.8278,-3.8407,-3.8772,0.0,0.0,0.0,0.0,0.0,0.0,0.0,0.0,0.0,0.0,0.0,0.0,0.0,0.0,0.0,0.0,0.0,0.0,0.0,0.0,0.0,0.0,0.0,0.0,0.0,0.0,0.0,0.0,0.0,0.0,0.0,0.0,-1.9304,-1.9304,0.0,0.0,0.0,0.0,0.0,0.0,0.0,0.0,0.0,0.0,0.0,0.0,0.0,-2.1318,-2.2509,-2.2935,-2.3798,-2.4987,-2.5581,-2.6072,-2.6478,-2.684,-2.7117,-2.737,-2.8244,0.0,-2.9665,-2.7933,0.0,0.0,0.0,0.0,0.0,0.0,0.0,0.0,0.0,0.0,0.0,0.0,0.0,0.0,0.0,0.0,0.0,0.0,0.0,0.0,0.0,0.0,-3.4045,-3.4045,-3.4128,-3.4196,-3.4128,-3.303,-3.1924,-3.148,-3.1806,-3.185,0.0,0.0,0.0,0.0,0.0,0.0,-3.467,-3.4824,-3.5184,-3.5958,-3.607,-3.643,-3.7191,-3.7764,-3.8165,-3.8278,-3.8952,-3.9379,-3.9501,-3.959,0.0,0.0,0.0,0.0,0.0,0.0,0.0,0.0,0.0,0.0,0.0,0.0,0.0,0.0,0.0,0.0,0.0,0.0,0.0,0.0,0.0,0.0,0.0,0.0,0.0,0.0,0.0,0.0,0.0,-1.9304,-1.9503,-1.9113,-1.9407,-1.9495,0.0,0.0,0.0,0.0,0.0,0.0,0.0,0.0,0.0,-2.2079,-2.226,-2.3224,-2.4928,-2.5585,-2.6182,-2.7013,-2.7774,-2.8054,-2.8136,-2.8152,-2.8151,-2.8066,-2.8288,-2.8904,-2.9647,-2.8643,-2.8076,-2.7785,0.0,0.0,0.0,0.0,-2.8122,-2.851,-2.851,-2.851,-2.8578,-2.925,0.0,0.0,0.0,0.0,0.0,0.0,0.0,-3.2015,-3.2861,-3.3381,-3.3811,-3.4264,-3.4414,-3.4414,-3.4414,-3.3977,-3.3449,-3.3111,-3.299,-3.2777,-3.2299,-3.2724,0.0,0.0,0.0,-3.4587,-3.537,-3.5559,-3.5928,-3.6662,-3.7131,-3.7531,-3.7879,-3.8479,-3.8898,-3.8952,-3.9309,-3.9537,-3.959,-3.9677,-3.9716,0.0,0.0,0.0,0.0,0.0,0.0,0.0,0.0,0.0,0.0,0.0,0.0,0.0,0.0,0.0,0.0,0.0,0.0,0.0,0.0,0.0,0.0,0.0,0.0,0.0,0.0,0.0,0.0,-1.9503,-1.9741,-1.905,-1.9662,-1.9925,0.0,0.0,0.0,0.0,0.0,0.0,-2.0905,-2.127,-2.2222,-2.3947,-2.4335,-2.5366,-2.7099,-2.7723,-2.8338,-2.8849,-2.9341,-2.9543,-2.9652,-2.9217,-2.8995,-2.9104,-2.8867,-2.9028,-2.9397,-2.9044,-2.8614,-2.8257,-2.7848,-2.7894,-2.8081,-2.8243,-2.8474,-2.8715,-2.8783,-2.8943,-2.9211,-2.9883,-3.0291,-3.0581,-3.1389,0.0,0.0,0.0,0.0,-3.2376,-3.3297,-3.352,-3.3673,-3.4264,-3.4414,-3.4549,-3.4654,-3.4868,-3.4868,-3.4549,-3.4288,-3.4038,-3.3682,-3.3583,0.0,-3.4016,-3.4352,-3.5003,-3.6151,-3.6415,-3.6723,-3.7354,-3.7937,-3.8351,-3.8535,-3.9023,-3.9379,-3.9501,-3.9537,-3.9642,-3.9729,-3.9918,-4.0187,-4.0642,0.0,0.0,0.0,0.0,0.0,0.0,0.0,0.0,0.0,0.0,0.0,0.0,0.0,0.0,0.0,0.0,0.0,0.0,0.0,0.0,0.0,0.0,0.0,0.0,0.0,0.0,0.0,0.0,0.0,-1.9423,-2.0249,0.0,0.0,0.0,0.0,-2.084,-2.1578,-2.2177,-2.2655,-2.3776,-2.4692,-2.5246,-2.6506,-2.7518,-2.8336,-2.881,-2.9359,-3.0068,-2.9707,-2.9729,-3.0144,-2.9653,-2.9732,-3.0135,-3.0547,-3.0214,-2.9397,-2.9397,-2.9362,-2.9353,-2.9201,-2.8928,-2.8586,-2.9092,-2.9256,-2.9256,-2.9476,-3.0016,-3.0684,-3.0623,-3.1132,-3.1723,-3.2015,-3.1942,0.0,0.0,-3.3143,-3.3297,-3.4113,-3.4346,-3.4346,-3.4414,-3.4563,-3.4802,-3.5385,-3.5706,-3.5608,-3.4817,-3.5285,-3.5416,-3.4194,0.0,-3.5609,-3.5187,-3.566,-3.6399,-3.7251,-3.731,-3.7589,-3.8165,-3.8278,-3.859,-3.9218,-3.9379,-3.9501,-3.9501,-3.9746,-3.9901,-3.9901,-4.0434,-4.0754,-4.0802,-4.1639,0.0,0.0,0.0,0.0,0.0,0.0,0.0,0.0,0.0,0.0,0.0,0.0,0.0,0.0,0.0,0.0,0.0,0.0,0.0,0.0,0.0,0.0,0.0,0.0,0.0,0.0,0.0,0.0,-2.0565,-2.1563,0.0,-2.1238,-2.1965,-2.2484,-2.2531,-2.3073,-2.3726,-2.4403,-2.4925,-2.5937,-2.7795,-2.8266,-2.9126,-3.0432,-3.0626,-3.0813,-3.1116,-3.0624,-3.0482,-3.0635,-3.0548,-3.0548,-3.0671,-3.081,-3.0537,-2.9833,-2.9833,-2.9427,-2.8807,-2.8778,-2.891,-2.9046,-2.921,-2.9976,-3.0885,-3.0966,-3.134,-3.1856,-3.2031,-3.272,-3.3465,-3.3534,-3.3534,-3.3534,-3.3894,-3.3962,-3.4045,-3.4346,-3.4481,-3.4683,-3.5088,-3.535,-3.5657,-3.6229,-3.6554,-3.6585,-3.6275,-3.6384,-3.6353,-3.5875,-3.6292,-3.6614,-3.6442,-3.6734,-3.7191,-3.7879,-3.7994,-3.8238,-3.8898,-3.8952,-3.9094,-3.9379,-3.9501,-3.959,-3.9746,-3.9849,-4.007,-4.0434,-4.0676,-4.1065,-4.1674,-4.1535,-4.1049,0.0,0.0,0.0,0.0,0.0,0.0,0.0,0.0,0.0,0.0,0.0,0.0,0.0,0.0,0.0,0.0,0.0,0.0,0.0,0.0,0.0,0.0,0.0,0.0,0.0,-2.0957,-2.1522,-2.1238,-2.2578,-2.3232,-2.2443,-2.3396,-2.399,-2.4059,-2.4481,-2.5126,-2.5774,-2.6361,-2.7422,-2.9133,-2.9658,-3.0471,-3.1618,-3.1618,-3.1618,-3.1618,-3.1127,-3.0985,-3.1116,-3.1169,-3.1258,-3.1444,-3.1422,-3.1168,-3.0603,-3.0422,-2.9737,-2.8775,-2.8775,-2.8991,-2.9398,-2.9882,-3.0792,-3.1835,-3.2723,-3.2981,-3.311,-3.3592,-3.4066,-3.4414,-3.4414,-3.4414,-3.4414,-3.4481,-3.4481,-3.4525,-3.4811,-3.5192,-3.5561,-3.5989,-3.6359,-3.6786,-3.7131,-3.7397,-3.7589,-3.778,-3.7573,-3.7263,-3.7024,-3.7279,-3.7531,-3.7531,-3.7589,-3.7953,-3.8535,-3.8645,-3.8898,-3.9325,-3.9432,-3.9484,-3.9537,-3.959,-3.9694,-3.9901,-4.007,-4.0385,-4.0802,-4.1111,-4.1543,-4.2216,-4.1608,-4.125,-4.1172,0.0,0.0,0.0,0.0,0.0,0.0,0.0,0.0,0.0,0.0,0.0,0.0,0.0,0.0,0.0,0.0,0.0,0.0,0.0,0.0,0.0,0.0,0.0,-1.951,-2.157,-2.2622,-2.1553,-2.3479,-2.4572,-2.3604,-2.4587,-2.5317,-2.5454,-2.5784,-2.6286,-2.6691,-2.8262,-2.9092,-2.9217,-3.0785,-3.1618,-3.1618,-3.1618,-3.1618,-3.1618,-3.1127,-3.1149,-3.1597,-3.1716,-3.2018,-3.242,-3.2497,-3.2202,-3.1649,-3.1084,-3.0242,-2.9304,-2.9316,-2.9328,-2.954,-3.116,-3.1754,-3.2246,-3.4749,-3.506,-3.4397,-3.5177,-3.498,-3.4472,-3.4472,-3.4472,-3.454,-3.4689,-3.4756,-3.4955,-3.576,-3.6469,-3.7014,-3.6979,-3.7638,-3.822,-3.8171,-3.8254,-3.8535,-3.9148,-3.8772,-3.8181,-3.7546,-3.7937,-3.8351,-3.8351,-3.8334,0.0,-3.9202,-3.9432,-3.9501,-3.9534,-3.9675,-3.9711,-3.9763,-3.9866,-3.9918,-3.9901,-4.0483,-4.0802,-4.0802,-4.1717,-4.2198,-4.2239,-4.2009,-4.2097,-4.2493,0.0,0.0,0.0,0.0,0.0,0.0,0.0,0.0,0.0,0.0,0.0,0.0,0.0,0.0,0.0,0.0,0.0,0.0,0.0,0.0,0.0,-2.0745,-2.1472,-2.1652,-2.2155,-2.3001,-2.4375,-2.538,-2.5931,-2.5909,-2.6632,-2.6993,-2.671,-2.6784,-2.7425,-2.8829,-2.905,-2.9877,-3.1411,-3.1598,-3.1618,-3.1618,-3.1618,-3.1618,-3.1618,-3.1539,-3.1762,-3.2196,-3.2655,-3.313,-3.3562,-3.3231,-3.2767,-3.2166,-3.0843,-2.9905,-2.934,-2.9725,-2.9952,-3.0238,-3.1725,-3.3551,-3.5415,-3.6439,-3.6675,-3.6389,-3.6128,-3.5923,-3.5793,-3.5933,-3.6018,-3.6003,-3.6281,-3.6266,-3.6448,-3.7211,-3.7263,-3.7443,-3.8919,-3.877,-3.8553,-3.9565,-3.9402,-3.9094,-3.9272,-3.9148,-3.8969,-3.8788,-3.8914,-3.9023,-3.9023,-3.9131,-3.9255,-3.9432,-3.959,-3.9843,-4.0378,-4.0498,-4.0534,-4.0622,-4.0675,-4.0508,-4.0071,-4.0531,-4.0972,-4.1303,-4.199,-4.2555,-4.292,-4.2305,-4.2182,0.0,0.0,0.0,0.0,0.0,0.0,0.0,0.0,0.0,0.0,0.0,0.0,0.0,0.0,0.0,0.0,0.0,0.0,0.0,0.0,0.0,0.0,-2.1837,-2.2659,-2.3565,-2.3887,-2.4489,-2.5608,-2.6542,-2.7245,-2.7308,-2.77,-2.793,-2.771,-2.7855,-2.8601,-2.9757,-2.9931,-3.0558,-3.1814,-3.1674,-3.1618,-3.1618,-3.1618,-3.1618,-3.1618,-3.1839,-3.2152,-3.2398,-3.3001,-3.3429,-3.3652,-3.2966,-3.243,-3.2046,-3.0895,-3.0175,-2.9724,0.0,0.0,0.0,0.0,-3.5336,-3.7281,-3.7572,-3.752,-3.7244,-3.6852,-3.6619,-3.6458,-3.6543,-3.667,-3.674,-3.6936,-3.7005,-3.7166,-3.7974,-3.8317,-3.8716,-3.9634,-3.969,-3.968,-3.988,-3.964,-3.9379,-3.9379,-3.9432,0.0,-3.9484,-3.9432,-3.9379,-3.9484,-3.9537,-3.959,-3.959,-3.9677,-3.9949,-4.0385,-4.0488,-4.0658,-4.1066,-4.0796,0.0,0.0,0.0,-4.141,-4.2157,-4.2537,0.0,0.0,0.0,-4.2846,-4.3357,-4.3044,0.0,0.0,-4.3786,-4.3893,0.0,0.0,0.0,0.0,0.0,0.0,0.0,0.0,0.0,0.0,0.0,0.0,0.0,0.0,0.0,0.0,-2.2687,-2.3434,-2.4987,-2.6109,-2.6555,-2.605,-2.7437,-2.8214,-2.793,-2.8242,-2.8443,-2.8505,-2.8946,-2.9569,-3.0042,-3.0837,0.0,0.0,0.0,-3.1706,-3.1706,-3.1651,-3.1618,-3.1721,-3.2218,-3.2521,-3.26,-3.3168,-3.3358,-3.3361,-3.2352,-3.1922,-3.1837,-3.1289,-3.0929,-3.0633,-3.0633,-3.1001,-3.1915,-3.4808,-3.6902,-3.8202,-3.8202,0.0,0.0,-3.7404,-3.7157,-3.6819,-3.689,-3.7031,-3.7227,-3.7506,-3.7518,-3.7698,-3.8639,-3.9739,-4.0491,-3.994,-4.0598,-4.0978,-3.9839,-3.9565,-3.9537,-3.9537,-3.9642,-3.9729,-3.9729,-3.959,-3.9571,-3.9795,-3.9847,-3.9847,-3.9847,-3.9967,-4.007,-4.007,-4.0155,0.0,-4.1136,-4.0595,-4.0678,-4.1702,-4.1688,-4.2056,-4.3104,-4.3196,-4.3286,-4.3429,-4.3446,-4.3795,-4.4383,-4.4411,-4.472,-4.5277,-4.4513,-4.4571,0.0,0.0,0.0,0.0,0.0,0.0,0.0,0.0,0.0,0.0,0.0,0.0,0.0,0.0,0.0,-2.1987,-2.3344,-2.4453,-2.5236,-2.6399,-2.7187,-2.7386,-2.7746,-2.8113,-2.8691,-2.8819,-2.9081,-2.9537,-2.9651,-3.0325,-3.188,-3.1803,-3.2113,-3.3269,-3.2572,-3.2241,-3.2241,-3.1837,-3.1823,-3.2218,-3.2835,0.0,-3.3732,-3.4228,-3.4473,-3.4389,-3.3454,-3.3116,-3.2956,-3.1988,-3.2266,-3.3356,-3.2763,-3.3726,-3.5613,-3.6423,-3.73,-3.8202,-3.8202,-3.813,-3.8028,-3.8192,-3.8178,-3.8223,-3.8516,-3.8646,0.0,-3.961,-3.9849,-4.0179,-4.1486,-4.1542,-4.1541,-4.2571,-4.1756,-4.0845,-4.1161,-4.0388,-3.9677,-3.9677,-3.9677,-3.9729,-3.9849,-3.9746,-3.9878,-4.0481,-4.0671,-4.0759,-4.0759,-4.088,-4.0932,-4.0932,-4.0984,-4.1052,-4.1187,-4.1068,-4.0968,-4.0995,-4.1762,-4.2555,-4.3305,-4.334,-4.3411,-4.3463,-4.3749,-4.406,-4.4383,-4.4624,-4.491,-4.5297,-4.5125,-4.5144,0.0,0.0,0.0,0.0,0.0,0.0,0.0,0.0,0.0,0.0,0.0,-1.9918,-2.0858,0.0,-2.2501,-2.4092,-2.5038,-2.5809,-2.6243,-2.6793,-2.7251,-2.7453,-2.7829,-2.8242,-2.8645,-2.9338,-2.9827,-3.0074,-3.0958,-3.1768,-3.2448,-3.2444,-3.2631,-3.3093,-3.2383,-3.2001,-3.2001,-3.2046,-3.2117,-3.2409,-3.3235,-3.3744,-3.4028,-3.4268,-3.4618,-3.4915,-3.3934,-3.3608,-3.3858,-3.2882,-3.3472,-3.4948,-3.4574,-3.5475,-3.712,-3.7414,-3.781,-3.8202,-3.8277,-3.8366,-3.8352,-3.8575,-3.8738,-3.8811,-3.9031,-3.9451,-3.9935,-4.0339,-4.0758,-4.1133,-4.1848,-4.2036,-4.2134,-4.2535,-4.2159,-4.1699,-4.1794,-4.1318,-4.0771,-4.0402,-4.0387,-4.0373,-4.0054,-4.0238,-4.0439,-4.0439,-4.0811,-4.11,-4.11,-4.1473,-4.161,-4.1238,-4.1204,-4.1204,-4.1204,-4.1711,-4.1881,-4.1596,-4.2418,-4.305,-4.3394,-4.3446,-4.3532,-4.3749,-4.391,-4.421,-4.4599,-4.4726,-4.4957,-4.5297,-4.5297,-4.5297,0.0,0.0,0.0,0.0,0.0,0.0,0.0,-1.9264,-1.9574,-1.9574,-2.0067,-2.0901,-2.2181,-2.2903,-2.3921,-2.5865,-2.6555,-2.6875,-2.704,-2.7196,-2.726,-2.7187,-2.782,-2.8333,-2.8489,-2.9489,-3.0265,-3.0606,-3.1977,-3.2849,-3.2807,-3.3225,-3.318,-3.2809,-3.2219,-3.1902,-3.2016,-3.2318,-3.251,-3.2723,-3.3633,-3.404,-3.4127,-3.4198,-3.4567,-3.5338,-3.4589,-3.4482,-3.4848,-3.4334,-3.4941,-3.6099,-3.6214,-3.6874,-3.7839,-3.8127,-3.8277,-3.8277,-3.8516,-3.859,-3.859,-3.8797,-3.8943,-3.9104,-3.9307,-3.9935,-4.0547,-4.0805,-4.1325,-4.1772,-4.191,-4.2364,-4.2659,-4.2232,-4.2505,-4.2729,-4.2277,-4.2152,-4.1974,-4.1367,-4.1354,-4.1221,-4.0612,-4.1018,-4.1204,-4.0595,-4.1153,-4.1644,-4.1644,-4.2151,-4.2221,-4.1426,-4.1477,-4.1546,-4.1545,-4.2288,-4.2647,-4.2472,-4.305,-4.3394,-4.3411,-4.3463,-4.3649,-4.4005,-4.4048,-4.4336,-4.48,-4.4868,-4.5045,-4.5297,-4.5297,-4.5297,-1.8087,-1.8458,-1.8735,-1.8827,-1.9074,-1.9312,0.0,-1.9812,-2.0281,-2.0281,-2.0591,-2.0972,-2.1426,-2.2978,-2.4244,-2.4507,-2.6265,-2.7407,-2.6747,-2.726,-2.7563,-2.7215,-2.7563,-2.8122,-2.8847,-2.9076,-2.9795,-3.1516,-3.1862,-3.2644,-3.4213,-3.427,-3.4338,-3.4283,-3.3388,-3.312,-3.3659,-3.2869,-3.2924,-3.3831,-3.3941,-3.4237,-3.4726,-3.4666,-3.5114,-3.5899,-3.6475,-3.6634,-3.6453,-3.6988,-3.7175,-3.7185,-3.7707,-3.8086,-3.8366,-3.8441,-3.8441,-3.8516,-3.8723,-3.8782,-3.8797,-3.9017,-3.9104,-3.9235,-4.006,-4.0409,-4.0737,-4.1997,-4.2395,-4.2658,-4.3436,-4.3706,-4.3748,-4.3822,-4.3468,-4.3144,-4.306,-4.2669,-4.2269,-4.2185,-4.2168,-4.2151,-4.2049,-4.2117,-4.2151,-4.2049,-4.2675,-4.3166,-4.3166,-4.325,-4.2887,-4.1931,-4.2477,-4.2843,-4.27,-4.2614,-4.2552,-4.2673,-4.3142,-4.3411,-4.3497,-4.3497,-4.3649,-4.4005,-4.425,-4.4493,-4.48,-4.5109,-4.5256,-4.5297,-4.5297,-4.5297,-1.828,-1.8606,-1.8942,-1.9145,-1.9399,-1.9709,-1.9916,-2.0345,-2.0758,-2.0964,-2.1449,-2.2092,-2.2889,-2.4057,-2.5292,-2.6198,-2.7418,-2.8012,-2.7691,-2.7719,-2.7792,-2.7875,-2.7609,-2.7746,-2.8563,-2.9319,-3.0372,-3.1747,-3.2322,-3.3014,-3.3998,-3.4098,-3.3846,-3.33,-3.3193,-3.3142,-3.3059,-3.3241,-3.3534,-3.404,-3.4335,-3.4628,-3.4823,-3.4823,-3.5655,-3.7086,-3.7893,-3.8283,-3.8282,-3.8102,-3.7705,-3.7331,-3.7725,-3.7886,-3.8018,-3.8384,-3.859,-3.8723,-3.887,-3.8943,-3.9017,-3.9192,-3.9523,-4.0005,-4.0409,-4.1075,-4.1852,-4.2443,-4.2974,-4.3432,-4.3839,-4.3956,-4.4056,-4.4196,-4.4018,-4.3855,-4.3985,-4.3787,-4.3487,-4.3031,-4.2946,-4.2811,-4.2371,-4.289,-4.339,-4.339,-4.3647,-4.3852,-4.3852,-4.4527,-4.4678,-4.3908,-4.3757,-4.3825,-4.4053,-4.3593,-4.3457,-4.3796,-4.3578,-4.3463,-4.3497,-4.3682,-4.3923,-4.4221,-4.4511,-4.4795,-4.5087,-4.5235,-4.5297,-4.5297,-4.5297,-4.5339,-1.8473,-1.8816,-1.9185,-1.9479,-1.9836,-2.0249,-2.0607,-2.1028,-2.1425,-2.1679,-2.2212,-2.2965,-2.3964,-2.4906,-2.5952,-2.7377,-2.8098,-2.8517,-2.8416,-2.8223,-2.8132,-2.8214,-2.7801,-2.7814,-2.8514,-2.9612,-3.0713,-3.1737,-3.2664,-3.3321,-3.401,-3.4098,-3.3889,-3.3197,-3.3664,-3.3661,-3.3243,-3.3912,-3.4181,-3.4237,-3.4628,-3.4823,-3.4823,-3.5379,-3.6564,-3.8185,-3.9212,-3.9633,-3.9613,-3.9165,-3.8333,-3.7405,-3.7886,-3.796,-3.7783,-3.8429,-3.8723,-3.8943,-3.9104,-3.9177,-3.9192,-3.9337,-3.9879,-4.0547,-4.0737,-4.1656,-4.271,-4.2912,-4.3432,-4.3939,-4.3998,-4.4097,-4.4196,-4.4367,-4.4367,-4.444,-4.457,-4.4587,-4.4456,-4.4028,-4.3909,-4.3793,-4.3425,-4.413,-4.4748,-4.4748,-4.4898,-4.4948,-4.4798,-4.5523,-4.5976,-4.5762,-4.5106,-4.4845,-4.5427,-4.466,-4.4269,-4.4602,-4.3921,-4.3497,-4.3497,-4.3814,-4.4121,-4.4383,-4.465,-4.4957,-4.5297,-4.5297,-4.5297,-4.5297,-4.5341,-4.5553,-1.8735,-1.909,-1.9447,-1.9773,-2.0377,-2.098,-2.1338,-2.1949,-2.2442,-2.2458,-2.2744,-2.3223,-2.3784,-2.5062,-2.614,-2.6858,-2.8093,-2.8838,-2.8443,-2.8709,-2.8654,-2.7875,-2.8122,-2.8542,-2.8935,-2.9497,-3.0371,-3.1717,-3.2664,-3.347,-3.439,-3.5035,-3.5344,-3.5311,-3.537,-3.5421,-3.5477,-3.5051,-3.4733,-3.4738,-3.4823,-3.4823,-3.4823,-3.6845,-3.8107,-3.8903,-4.0546,-4.0886,-4.0147,-4.0757,-3.9601,-3.7609,-3.894,-3.887,-3.8142,-3.8867,-3.9104,-3.9104,-3.9337,-3.9424,-3.9424,-3.9424,-3.9879,-4.0615,-4.126,-4.2094,-4.2925,-4.3687,-4.3998,-4.4097,-4.4253,-4.431,-4.4367,-4.4514,-4.457,-4.457,-4.4587,-4.4587,-4.4703,-4.5127,-4.5216,-4.5425,-4.5898,-4.6014,-4.6081,-4.6227,-4.6671,-4.6827,-4.6323,-4.6087,-4.6288,-4.7068,-4.6299,-4.6064,-4.6868,-4.5572,-4.4673,-4.4709,-4.3938,-4.3497,-4.3497,-4.3814,-4.4121,-4.4383,-4.465,-4.4957,-4.5297,-4.5297,-4.5297,-4.5317,-4.5435,-4.6008,-1.9463,-1.9948,-2.0488,-2.0829,-2.1266,-2.1703,-2.2053,-2.2323,-2.249,-2.249,-2.2394,-2.2453,-2.2749,-2.3947,-2.5119,-2.5688,-2.7368,-2.8452,-2.8031,-2.8095,-2.8067,-2.7792,-2.7435,-2.7679,-2.884,-2.9115,-3.0045,-3.2055,-3.2434,-3.3354,-3.5035,-3.5268,-3.544,-3.5415,-3.579,-3.5736,-3.5098,-3.52,-3.5155,-3.4823,-3.5017,-3.5379,-3.5998,-3.7019,-3.8379,-3.9757,-4.0518,-4.1096,-4.1381,-4.0873,-3.993,-3.8823,-3.9136,-3.9017,-3.8807,-3.9175,-3.989,-4.0517,-3.9723,-3.9424,-3.9481,-3.995,-4.06,-4.1327,-4.2094,-4.288,-4.3611,-4.3923,-4.4155,-4.4253,-4.431,-4.4384,-4.4514,-4.457,-4.4587,-4.4587,-4.4587,-4.4852,-4.5125,-4.525,-4.5614,-4.5918,-4.6213,-4.6501,-4.689,-4.7335,-4.7273,-4.723,-4.7421,-4.7433,-4.7543,-4.7856,-4.7618,-4.7589,-4.7826,-4.6397,-4.5718,-4.6269,-4.4544,-4.3821,-4.4591,-4.4382,-4.4402,-4.465,-4.4957,-4.5194,-4.5297,-4.5831,-4.6165,-4.63,-4.6928,-4.7492,-1.9773,-2.0289,-2.0845,-2.133,-2.1703,-2.2084,-2.2569,-2.2577,-2.245,-2.2323,-2.2229,-2.2087,-2.2336,-2.3502,-2.4508,-2.5029,-2.6436,-2.7536,-2.7554,-2.7435,-2.7556,-2.8182,-2.7623,-2.7791,-2.9381,-2.962,-3.0516,-3.2342,-3.2884,-3.389,-3.5316,-3.5825,-3.5997,-3.6082,-3.6438,-3.6256,-3.539,-3.5513,-3.5352,-3.4932,-3.5126,-3.575,-3.6926,-3.7573,-3.8814,-4.039,-4.0873,-4.1392,-4.1834,-4.1303,-4.0554,-3.9709,-4.0054,-3.9936,-3.9637,-3.9964,-4.0502,-4.0876,-3.9798,-3.9574,-3.9869,-4.0416,-4.1044,-4.1755,-4.2583,-4.3443,-4.4056,-4.4155,-4.427,-4.444,-4.444,-4.4497,-4.4587,-4.4587,-4.4587,-4.4626,-4.4797,-4.5089,-4.5407,-4.5817,-4.6213,-4.6566,-4.6799,-4.724,-4.7645,-4.7992,-4.7816,-4.7715,-4.8032,-4.8169,-4.8226,-4.8226,-4.8267,-4.8306,-4.8306,-4.7095,-4.6562,-4.7095,-4.5201,-4.4447,-4.5175,-4.4777,-4.4624,-4.48,-4.5418,-4.5736,-4.5736,-4.6579,-4.7087,-4.727,-4.7909,-4.849,-1.982,-2.0178,-2.0615,-2.1306,-2.1719,-2.2132,-2.2807,-2.2688,-2.2331,-2.1981,-2.2039,-2.2183,-2.2316,-2.3469,-2.4512,-2.4701,-2.5445,-2.627,-2.717,-2.6986,-2.7362,-2.8895,-2.8728,-2.9085,-3.0391,-3.0963,-3.1629,-3.263,-3.3907,-3.4973,-3.5554,-3.654,-3.7131,-3.7131,-3.7178,-3.6976,-3.6459,-3.5893,-3.5451,-3.5223,-3.532,-3.6048,-3.7494,-3.8469,-3.9522,-4.0689,-4.1717,-4.1878,-4.1485,-4.2085,-4.1489,-4.0293,-4.1495,-4.1396,-4.0576,-4.116,-4.101,-4.0397,-3.9781,-3.9916,-4.0437,-4.0716,-4.1198,-4.1917,-4.2798,-4.3647,-4.431,-4.4293,-4.444,-4.4587,-4.4587,-4.4587,-4.4587,-4.4587,-4.4626,-4.4759,-4.5214,-4.5355,-4.5699,-4.6707,-4.7044,-4.7302,-4.7819,-4.8087,-4.8187,-4.8187,-4.8247,-4.8286,-4.8226,-4.8247,-4.8306,-4.8306,-4.8269,-4.8251,-4.8251,-4.748,-4.7003,-4.7058,-4.5885,-4.5212,-4.5281,-4.5065,-4.4933,-4.4957,-4.6027,-4.6577,-4.6577,-4.7522,-4.8048,-4.8191,-4.8438,-4.904,-2.0488,-2.0909,-2.1282,-2.1719,-2.1894,-2.2005,-2.2188,-2.1965,-2.1616,-2.1258,-2.1099,-2.0949,-2.077,-2.208,-2.3358,-2.3672,-2.529,-2.6818,-2.8091,-2.8449,-2.8983,-2.9967,-2.9998,-3.0537,-3.1945,-3.2243,-3.2977,-3.4705,-3.476,-3.5384,-3.6575,-3.6954,-3.7346,-3.7773,-3.7748,-3.7529,-3.7,-3.6287,-3.5648,-3.5223,-3.632,-3.7389,-3.8456,-3.961,-4.0703,-4.1717,-4.2146,-4.2222,-4.2114,-4.2099,-4.1907,-4.151,-4.1516,-4.1713,-4.1818,-4.1504,-4.1594,-4.1851,-4.129,-4.0931,-4.0732,-4.126,-4.1965,-4.2798,-4.3706,-4.4105,-4.431,-4.4497,-4.457,-4.4587,-4.4587,-4.4587,-4.4587,-4.4587,-4.4852,-4.5161,-4.525,-4.6017,-4.6707,-4.7017,-4.7518,-4.797,-4.8126,-4.8226,-4.8267,-4.8267,-4.8267,-4.8306,-4.8286,-4.8267,-4.8306,-4.8306,-4.7774,-4.7425,-4.7425,-4.614,-4.5679,-4.6496,-4.5704,-4.5655,-4.6722,-4.6732,-4.6833,-4.7041,-4.7382,-4.7539,-4.7539,-4.8529,-4.9109,-4.9317,-5.0051,-5.063,-2.0774,-2.1068,-2.1306,-2.1648,-2.1735,-2.1735,-2.1735,-2.1675,-2.1377,-2.0869,-2.0898,-2.0857,-2.0567,-2.1784,-2.2961,-2.3098,-2.4785,-2.6473,-2.754,-2.8398,-2.9427,-3.0638,-3.1034,-3.1721,-3.3121,-3.3458,-3.4266,-3.5874,-3.5712,-3.5958,-3.7074,-3.7323,-3.7667,-3.7986,-3.7757,-3.738,-3.671,-3.5987,-3.5794,-3.6131,-3.6951,-3.8211,-3.961,-4.0318,-4.124,-4.2242,-4.2325,-4.2474,-4.2659,-4.2515,-4.2525,-4.2574,-4.2294,-4.2462,-4.2746,-4.2372,-4.2374,-4.2498,-4.2239,-4.2193,-4.2351,-4.2398,-4.2707,-4.3273,-4.4179,-4.4676,-4.4862,-4.4671,-4.4823,-4.4993,-4.4654,-4.4587,-4.4587,-4.4587,-4.4944,-4.5355,-4.5665,-4.6454,-4.7196,-4.7518,-4.7929,-4.8226,-4.8247,-4.8286,-4.8306,-4.8306,-4.8306,-4.8306,-4.8306,-4.8306,-4.8306,-4.8306,-4.7921,-4.7518,-4.7352,-4.6467,-4.6308,-4.7085,-4.6487,-4.6629,-4.7825,-4.7694,-4.7666,-4.7843,-4.8228,-4.8466,-4.8548,-4.9542,-5.0119,-5.0333,-5.0888,-5.1232,-2.0821,-2.0925,-2.0996,-2.1306,-2.1346,-2.1306,-2.1314,-2.1407,-2.1329,-2.0702,-2.1037,-2.1304,-2.1059,-2.1978,-2.2923,-2.3088,-2.4359,-2.5771,-2.676,-2.8097,-2.9591,-3.1262,-3.1984,-3.2855,-3.4257,-3.4816,-3.5486,-3.6496,-3.666,-3.6765,-3.73,-3.7733,-3.7986,-3.8092,-3.7573,-3.6928,-3.6135,-3.5698,-3.6123,-3.7415,-3.7599,-3.8662,-4.0689,-4.0774,-4.1408,-4.2474,-4.2474,-4.2688,-4.2981,-4.2996,-4.3155,-4.3329,-4.3329,-4.3329,-4.3329,-4.3329,-4.3097,-4.2695,-4.2971,-4.3628,-4.4316,-4.3559,-4.3504,-4.3886,-4.4569,-4.5179,-4.5568,-4.4925,-4.5128,-4.5432,-4.4874,-4.4694,-4.4737,-4.4839,-4.5211,-4.5699,-4.6293,-4.6845,-4.7432,-4.809,-4.8226,-4.8208,-4.8267,-4.8306,-4.8306,-4.8306,-4.8306,-4.8306,-4.8306,-4.8306,-4.8306,-4.8306,-4.8234,-4.8016,-4.7615,-4.7534,-4.7658,-4.7999,-4.7672,-4.7832,-4.8617,-4.8334,-4.8165,-4.8231,-4.8943,-4.9413,-4.9594,-5.043,-5.0933,-5.112,-5.1183,-5.1291,-2.0821,-2.0925,-2.0933,-2.0996,-2.0798,-2.0676,-2.1086,-2.0769,-2.0442,-2.0703,-2.0919,-2.1077,-2.1006,-2.1744,-2.2767,-2.3776,-2.4831,-2.6115,-2.8279,-2.9388,-3.0732,-3.3028,-3.3715,-3.4765,-3.64,-3.6625,-3.7015,-3.7724,-3.7736,-3.7736,-3.7841,-3.7938,-3.8092,-3.8303,-3.7782,-3.7314,-3.6995,-3.6653,-3.681,-3.7415,-3.8405,-3.9651,-4.0986,-4.1771,-4.2281,-4.2703,-4.2835,-4.2915,-4.2996,-4.317,-4.325,-4.3329,-4.3329,-4.3329,-4.3329,-4.3518,-4.3268,-4.291,-4.4425,-4.4717,-4.4248,-4.3541,-4.4591,-4.6102,-4.5628,-4.5602,-4.5669,-4.5551,-4.5162,-4.4891,-4.5382,-4.5312,-4.5369,-4.6096,-4.6523,-4.6827,-4.7017,-4.7548,-4.805,-4.8247,-4.8267,-4.8267,-4.8306,-4.8306,-4.8306,-4.8306,-4.8306,-4.8306,-4.8306,-4.8306,-4.8306,-4.8306,-4.7941,-4.767,-4.7608,-4.7249,-4.7174,-4.7488,-4.806,-4.8587,-4.8991,-4.9618,-4.995,-4.9972,-5.0317,-5.052,-5.0554,-5.095,-5.115,-5.1195,-5.1302,-5.1386,-2.0877,-2.0925,-2.0925,-2.0925,-2.0655,-2.0444,-2.0761,-2.0687,-2.0517,-2.0867,-2.113,-2.1365,-2.1365,-2.1871,-2.2584,-2.34,-2.4693,-2.6251,-2.8239,-3.0161,-3.1966,-3.3376,-3.4479,-3.548,-3.6611,-3.6502,-3.6784,-3.7926,-3.7733,-3.7697,-3.7974,-3.8092,-3.817,-3.8215,-3.769,-3.7253,-3.7023,-3.6577,-3.707,-3.8302,-3.9006,-4.0159,-4.1785,-4.2281,-4.2703,-4.2835,-4.2996,-4.3076,-4.3155,-4.325,-4.3329,-4.3329,-4.3423,-4.3518,-4.3518,-4.3754,-4.3713,-4.3716,-4.4975,-4.5517,-4.5594,-4.5277,-4.5872,-4.6718,-4.638,-4.6261,-4.6194,-4.5821,-4.5449,-4.5246,-4.5618,-4.5562,-4.5598,-4.6394,-4.6936,-4.7335,-4.765,-4.8014,-4.8247,-4.8306,-4.8306,-4.8306,-4.8306,-4.8306,-4.8306,-4.8306,-4.8306,-4.8364,-4.8532,-4.8569,-4.8569,-4.8569,-4.8513,-4.8396,-4.8138,-4.789,-4.7924,-4.8243,-4.8648,-4.9139,-4.9755,-5.0179,-5.0481,-5.0606,-5.0735,-5.0859,-5.1016,-5.1132,-5.1245,-5.1316,-5.1367,-5.1394,-2.0996,-2.098,-2.0941,-2.1115,-2.0857,-2.0506,-2.0895,-2.0865,-2.0928,-2.1068,-2.1454,-2.1741,-2.1741,-2.1988,-2.2364,-2.2878,-2.4297,-2.5986,-2.7769,-3.0278,-3.2283,-3.3367,-3.4672,-3.5628,-3.6362,-3.6026,-3.635,-3.7709,-3.7537,-3.7477,-3.7899,-3.8243,-3.8221,-3.7882,-3.7553,-3.7171,-3.692,-3.6551,-3.7348,-3.9285,-3.961,-4.076,-4.2541,-4.2688,-4.2835,-4.3076,-4.3076,-4.3155,-4.3329,-4.3329,-4.3329,-4.3423,-4.3596,-4.3769,-4.3769,-4.3988,-4.4281,-4.4632,-4.5405,-4.6324,-4.7039,-4.7073,-4.7139,-4.7242,-4.7073,-4.7039,-4.6904,-4.6346,-4.594,-4.5794,-4.6045,-4.604,-4.6201,-4.7031,-4.739,-4.7715,-4.813,-4.8247,-4.8306,-4.8306,-4.8453,-4.8526,-4.8343,-4.8453,-4.8546,-4.842,-4.8402,-4.8532,-4.8866,-4.8967,-4.9015,-4.9015,-4.924,-4.9267,-4.8905,-4.8927,-4.9093,-4.9347,-4.9369,-4.9698,-5.0374,-5.0459,-5.0586,-5.0803,-5.0863,-5.0991,-5.1203,-5.1238,-5.1297,-5.1394,-5.1394,-5.1394,-2.1227,-2.1171,-2.1099,-2.1947,-2.1361,-2.0782,-2.1787,-2.149,-2.1131,-2.1562,-2.1642,-2.1741,-2.1741,-2.1768,-2.2043,-2.3112,-2.3699,-2.5082,-2.7823,-2.9065,-3.083,-3.3583,-3.4349,-3.5165,-3.6285,-3.6362,-3.6591,-3.7216,-3.7436,-3.763,-3.7576,-3.8153,-3.8167,-3.7642,-3.7568,-3.7468,-3.7199,-3.7458,-3.8225,-3.9508,-4.0432,-4.1561,-4.2915,-4.2996,-4.3076,-4.325,-4.325,-4.325,-4.3329,-4.3329,-4.3423,-4.369,-4.369,-4.3832,-4.3988,-4.4205,-4.4708,-4.5405,-4.6324,-4.7153,-4.7769,-4.7816,-4.8247,-4.868,-4.802,-4.7817,-4.78,-4.7733,-4.6794,-4.6164,-4.7248,-4.7508,-4.7802,-4.8889,-4.8656,-4.821,-4.8267,-4.8306,-4.8306,-4.8306,-4.893,-4.9224,-4.8434,-4.8948,-4.9303,-4.8841,-4.8746,-4.8866,-4.919,-4.9512,-4.9702,-4.9702,-4.973,-4.9738,-4.969,-4.998,-5.0164,-5.0187,-5.0252,-5.0313,-5.0412,-5.0625,-5.0769,-5.0803,-5.1039,-5.1187,-5.1203,-5.1327,-5.139,-5.1394,-5.1394,-5.1394,-2.0734,-2.1065,-2.146,-2.1812,-2.1495,-2.1213,-2.1969,-2.1556,-2.1087,-2.1642,-2.1741,-2.1741,-2.1919,-2.1919,-2.2119,-2.2715,-2.3202,-2.4355,-2.6421,-2.7847,-2.9657,-3.2437,-3.3415,-3.4443,-3.5793,-3.603,-3.6594,-3.7673,-3.7824,-3.7792,-3.7562,-3.7759,-3.7876,-3.7842,-3.7817,-3.749,-3.6697,-3.7719,-3.866,-3.9508,-4.0675,-4.1811,-4.2981,-4.3155,-4.325,-4.3329,-4.3329,-4.3329,-4.3329,-4.3503,-4.3596,-4.369,-4.3988,-4.4127,-4.4205,-4.4435,-4.4918,-4.5697,-4.6534,-4.7272,-4.7915,-4.7878,-4.8165,-4.8395,-4.809,-4.77,-4.7505,-4.8022,-4.751,-4.6914,-4.7674,-4.802,-4.829,-4.8656,-4.8506,-4.8434,-4.8967,-4.9077,-4.9224,-4.9719,-5.0086,-5.0276,-5.0139,-5.038,-5.062,-5.0613,-5.059,-5.0721,-5.1061,-5.1225,-5.1212,-5.0913,-5.0424,-5.01,-5.01,-5.0236,-5.0325,-5.0367,-5.039,-5.0462,-5.0625,-5.0735,-5.0874,-5.1039,-5.1141,-5.1245,-5.1327,-5.1367,-5.1394,-5.1394,-5.1394,-5.1394,-2.0664,-2.1151,-2.1719,-2.224,-2.1948,-2.1787,-2.2262,-2.1749,-2.1365,-2.1731,-2.183,-2.1919,-2.2185,-2.2185,-2.2274,-2.2441,-2.2955,-2.3859,-2.5571,-2.6765,-2.8359,-3.0782,-3.1814,-3.284,-3.4457,-3.5537,-3.6541,-3.7614,-3.7811,-3.7839,-3.7755,-3.758,-3.7505,-3.7525,-3.7676,-3.7312,-3.6452,-3.8095,-3.9154,-3.9757,-4.1099,-4.2222,-4.3076,-4.325,-4.3329,-4.3329,-4.3344,-4.3423,-4.3423,-4.3675,-4.3832,-4.391,-4.4205,-4.4358,-4.4435,-4.4783,-4.5421,-4.6111,-4.688,-4.749,-4.7872,-4.768,-4.7547,-4.7512,-4.7834,-4.7697,-4.7612,-4.8497,-4.8409,-4.8167,-4.8238,-4.8715,-4.9077,-4.8739,-4.8673,-4.8838,-4.9462,-4.9591,-4.9829,-5.0637,-5.1088,-5.1281,-5.1287,-5.158,-5.1847,-5.1946,-5.1951,-5.2062,-5.2417,-5.2444,-5.2334,-5.2021,-5.1434,-5.086,-5.0363,-5.0325,-5.0489,-5.0849,-5.0659,-5.0856,-5.1579,-5.1155,-5.1132,-5.1573,-5.1362,-5.1316,-5.1394,-5.1394,-5.1394,-5.1394,-5.1394,-5.1405,-2.1227,-2.1453,-2.1661,-2.3423,-2.2938,-2.2253,-2.2762,-2.2227,-2.1731,-2.2008,-2.2097,-2.2185,-2.2353,-2.2441,-2.2441,-2.2706,-2.2803,-2.3614,-2.5809,-2.6124,-2.6822,-2.8767,-2.9421,-3.0393,-3.2147,-3.4776,-3.6517,-3.6798,-3.732,-3.7742,-3.8002,-3.7487,-3.6948,-3.6395,-3.691,-3.7006,-3.6722,-3.8545,-3.977,-4.0204,-4.2111,-4.3076,-4.3329,-4.3329,-4.3329,-4.3329,-4.3596,-4.369,-4.369,-4.391,-4.4127,-4.4281,-4.4281,-4.4435,-4.4723,-4.5421,-4.6198,-4.688,-4.7622,-4.7901,-4.78,-4.7199,-4.6527,-4.6124,-4.7175,-4.7912,-4.8531,-4.9266,-4.9791,-4.9897,-4.9009,-4.9797,-5.0582,-4.9774,-4.9572,-4.9572,-4.9591,-4.9591,-4.9829,-5.0637,-5.171,-5.2215,-5.1453,-5.2292,-5.2887,-5.239,-5.2286,-5.2417,-5.2761,-5.2785,-5.281,-5.2881,-5.2862,-5.2192,-5.0546,-5.0412,-5.0849,-5.1911,-5.125,-5.1598,-5.3398,-5.2018,-5.1593,-5.2477,-5.1781,-5.1394,-5.1394,-5.1394,-5.1394,-5.1394,-5.1394,-5.14,-2.0912,-2.1473,-2.1917,-2.2558,-2.2429,-2.2326,-2.2714,-2.2388,-2.2008,-2.2264,-2.2353,-2.2353,-2.2618,-2.2706,-2.2706,-2.2969,-2.2969,-2.3232,-2.3939,-2.5978,-2.7779,-2.9098,-3.1902,-3.415,-3.5271,-3.6185,-3.6947,-3.7615,-3.7816,-3.7753,-3.7462,-3.748,-3.7303,-3.6935,-3.7291,-3.7565,-3.7691,-3.9411,-4.0636,-4.1155,-4.2371,-4.3076,-4.3329,-4.3329,-4.3423,-4.3596,-4.369,-4.3769,-4.391,-4.4127,-4.4205,-4.4281,-4.4435,-4.4858,-4.5348,-4.5624,-4.6464,-4.7556,-4.7369,-4.7591,-4.7878,-4.672,-4.631,-4.6212,-4.6601,-4.7219,-4.8169,-4.9903,-4.9943,-4.962,-5.0281,-5.0216,-4.9903,-4.9646,-5.0013,-5.0417,-5.0417,-5.0839,-5.1526,-5.256,-5.3087,-5.3422,-5.3658,-5.4006,-5.4303,-5.4379,-5.4413,-5.4459,-5.4556,-5.4593,-5.4369,-5.3838,-5.3928,-5.349,-5.228,-5.2258,-5.2473,-5.2852,-5.2733,-5.2964,-5.3682,-5.3232,-5.3143,-5.3518,-5.3299,-5.2878,-5.2292,-5.2292,-5.1971,-5.1398,-5.1398,-5.1386,-2.1102,-2.1488,-2.1981,-2.2321,-2.2435,-2.251,-2.2693,-2.2475,-2.2274,-2.253,-2.253,-2.2618,-2.2882,-2.2882,-2.2969,-2.3047,-2.3135,-2.3359,-2.3934,-2.617,-2.8315,-2.9877,-3.2795,-3.4893,-3.561,-3.6254,-3.6818,-3.7362,-3.7764,-3.7764,-3.7417,-3.7691,-3.78,-3.7488,-3.7477,-3.7723,-3.8419,-3.9817,-4.0955,-4.1782,-4.2644,-4.317,-4.3329,-4.3423,-4.3518,-4.369,-4.3832,-4.3988,0.0,-4.4358,-4.4435,-4.4435,-4.4587,-4.5067,-4.5697,-4.5985,-4.6916,-4.7899,-4.7579,-4.7545,-4.7571,-4.6515,-4.6289,-4.645,-4.6763,-4.7493,-4.8618,-5.0189,-5.0524,-5.052,-5.0947,-5.0999,-5.0802,-5.0196,-5.0674,-5.1242,-5.1242,-5.1731,-5.2484,-5.3476,-5.3906,-5.4259,-5.4716,-5.4933,-5.5113,-5.5358,-5.5409,-5.539,-5.539,-5.5427,-5.527,-5.485,-5.492,-5.4766,-5.4226,-5.364,-5.3503,-5.394,-5.3759,-5.3993,-5.4814,-5.4209,-5.4072,-5.4478,-5.4166,-5.3561,-5.2702,-5.2362,-5.1923,-5.1405,-5.1367,-5.1335,0.0,-2.1657,-2.1838,-2.2683,-2.276,-2.2656,-2.2656,-2.2537,0.0,-2.2794,-2.2803,-2.2882,-2.3057,-2.3135,-2.3135,-2.3135,-2.3135,-2.37,-2.5319,-2.6779,-2.8582,-3.1263,-3.2594,-3.3452,-3.3779,-3.5454,-3.6515,-3.6515,-3.7497,-3.7972,-3.761,-3.8079,-3.8311,-3.8036,-3.7616,-3.7887,-3.9051,-3.9899,-4.093,-4.2146,-4.293,-4.3329,-4.3329,-4.3596,-4.369,-4.3769,-4.4143,-4.4281,-4.4358,-4.4496,-4.4572,-4.4572,-4.4648,-4.5142,-4.5897,-4.6604,-4.7423,-4.8136,-4.8037,-4.7663,-4.7011,-4.6426,-4.6384,-4.6665,-4.7513,-4.8622,-4.9714,-5.0346,-5.1401,-5.21,-5.1193,-5.205,-5.2747,-5.1242,-5.1499,-5.2068,-5.1995,-5.232,-5.2791,-5.3609,-5.4345,-5.4806,-5.4855,-5.514,-5.5403,-5.5403,-5.5396,-5.5408,-5.5408,-5.548,-5.558,-5.5788,-5.5805,-5.5907,-5.6097,-5.464,-5.4125,-5.5119,-5.4445,-5.4775,-5.6523,-5.5044,-5.4576,-5.5376,-5.4541,-5.3663,-5.2784,-5.1908,-5.1484,-5.1484,-5.1366,-5.1377,-2.1949,0.0,-2.2085,-2.2447,-2.2481,-2.2494,0.0,-2.2782,-2.2794,-2.296,-2.3057,-2.3057,-2.3057,-2.3135,-2.3135,-2.3135,-2.3135,-2.37,-2.5319,-2.8768,-3.205,-3.4817,-3.5486,-3.5295,-3.4507,-3.6169,-3.7298,-3.7298,-3.8112,-3.8459,-3.7923,-3.8203,-3.8457,-3.8684,-3.9224,-3.9812,-4.0692,-4.127,-4.2306,-4.3738,-4.3489,-4.3423,-4.3596,-4.369,-4.3832,-4.4127,-4.4281,-4.4358,-4.4496,-4.4587,-4.4572,-4.4648,-4.5216,-4.5937,-4.6799,-4.7506,-4.8048,-4.826,-4.7779,-4.7141,-4.6409,-4.5817,-4.5646,-4.5994,-4.7788,-4.8907,-4.9837,-5.1005,-5.1371,-5.1647,-5.2438,-5.2454,-5.2179,-5.1811,-5.2325,-5.2747,-5.2123,-5.2724,-5.3554,-5.405,-5.4528,-5.4884,-5.5214,-5.5332,-5.5409,-5.5421,-5.5383,-5.5432,-5.548,-5.5527,-5.5624,-5.5788,-5.5939,-5.6097,-5.6242,-5.5882,-5.5755,-5.5996,-5.5978,-5.6143,-5.6586,-5.6216,-5.6098,-5.6294,-5.5397,-5.4507,-5.3685,-5.2773,-5.2314,-5.2296,-5.162,-5.2005,-2.2362,-2.2362,-2.2264,-2.2353,-2.253,-2.2618,-2.2803,-2.2882,-2.2969,-2.3047,0.0,-2.3135,-2.3135,-2.3551,-2.3714,-2.3319,-2.4232,-2.5601,-2.7447,-2.9759,-3.2349,-3.5112,-3.5169,-3.5171,-3.5558,-3.6805,-3.768,-3.7789,-3.8638,-3.9038,-3.8582,-3.9102,-3.9468,-3.9415,-4.0484,-4.1336,-4.2052,-4.2334,-4.3099,-4.4464,-4.3818,-4.3596,-4.3832,-4.391,-4.405,-4.4281,-4.4435,-4.4496,-4.4572,-4.4572,-4.4387,-4.4216,-4.5295,-4.6013,-4.6682,-4.7703,-4.8259,-4.8391,-4.7712,-4.6756,-4.5851,-4.5508,-4.5563,-4.6082,-4.796,-4.8841,-4.9638,-5.1467,-5.1782,-5.1736,-5.2443,-5.2325,-5.1995,-5.1995,-5.2619,-5.312,-5.2828,-5.3423,-5.4088,-5.4463,-5.4825,-5.514,-5.5358,-5.5409,-5.5396,-5.5408,-5.5456,-5.5531,-5.5626,-5.5689,-5.5807,-5.601,-5.6135,-5.6271,-5.642,-5.6439,-5.6439,-5.6439,-5.6533,-5.6606,-5.6606,-5.6606,-5.6606,-5.6606,-5.5323,-5.4627,-5.4549,-5.2843,-5.2214,-5.2587,-5.2116,-5.2402,-2.2715,-2.2618,-2.253,-2.253,-2.2706,-2.2891,-2.2891,-2.2969,0.0,0.0,0.0,-2.3135,-2.3299,-2.4049,-2.4413,-2.3911,-2.6023,-2.8389,-3.0249,-3.0971,-3.2002,-3.4108,-3.4198,-3.4693,-3.6425,-3.7286,-3.7814,-3.8203,-3.9102,-3.9483,-3.9097,-3.9972,-4.0437,-4.0191,-4.1497,-4.248,-4.327,-4.3182,-4.3611,-4.4609,-4.3976,-4.3832,-4.4065,-4.4205,-4.4281,-4.4358,-4.4511,-4.451,-4.4433,-4.4541,-4.4185,-4.3758,-4.5198,-4.5821,-4.6176,-4.7545,-4.8122,-4.8163,-4.7408,-4.6419,-4.5423,-4.5423,-4.5752,-4.6499,-4.7955,-4.8586,-4.9257,-5.152,-5.1992,-5.1848,-5.1958,-5.1995,-5.2013,-5.2142,-5.2734,-5.3359,-5.3662,-5.4069,-5.4495,-5.4776,-5.5121,-5.5428,-5.5428,-5.5421,-5.547,-5.5605,-5.5627,-5.5726,-5.598,-5.5973,-5.6035,-5.627,-5.6288,-5.6386,-5.6582,-5.6606,-5.6606,-5.6606,-5.6606,-5.6606,-5.6606,-5.6591,-5.6575,-5.6575,-5.5133,-5.4648,-5.5195,-5.2983,-5.2264,-5.2986,-5.2863,-5.2937,-2.2803,-2.2882,-2.296,-2.296,-2.3057,-2.3047,-2.3047,-2.3047,-2.3135,0.0,-2.3135,-2.3387,-2.4372,-2.4059,-2.4115,-2.5246,-2.7767,-3.0272,-3.2388,-3.4279,-3.5382,-3.5276,-3.6282,-3.6698,-3.6125,-3.7445,-3.8458,-3.8936,-3.9336,-3.9385,-3.8786,-3.9654,-4.0254,-4.0513,-4.2037,-4.3348,-4.4368,-4.3843,-4.3923,-4.4609,-4.4134,-4.4065,-4.4281,-4.4281,-4.4358,-4.4587,-4.4587,-4.4249,-4.3771,-4.4341,-4.4188,-4.374,-4.5259,-4.5947,-4.6202,-4.7199,-4.73,-4.6783,-4.6008,-4.5577,-4.5423,-4.5423,-4.5752,-4.6442,-4.7743,-4.8479,-4.9107,-5.0616,-5.1037,-5.1132,-5.1811,-5.1995,-5.216,-5.2858,-5.3348,-5.3662,-5.3682,-5.4274,-5.4817,-5.4876,-5.5217,-5.548,-5.548,-5.548,-5.5753,-5.6552,-5.6151,-5.6058,-5.6884,-5.6436,-5.6122,-5.6279,-5.6288,-5.6386,-5.6582,-5.6606,-5.6606,-5.6606,-5.6606,-5.6606,-5.6606,-5.6549,-5.6518,-5.6518,-5.6259,-5.5801,-5.5201,-5.4794,-5.466,-5.4777,-5.4028,-5.4496,-2.2969,-2.3057,-2.3135,-2.3319,-2.3319,-2.3319,-2.3319,-2.3724,-2.4059,-2.357,-2.381,-2.4382,-2.4872,-2.5349,-2.6702,-2.9724,-3.0371,-3.1274,-3.3252,-3.3635,-3.4076,-3.5071,-3.5837,-3.6597,-3.7608,-3.8407,-3.9012,-3.9381,-4.005,-4.0054,-3.9455,-4.0824,-4.1509,-4.1394,-4.2694,-4.3439,-4.3554,-4.3501,-4.3957,-4.4974,-4.4447,-4.4281,-4.4419,-4.4419,-4.4511,-4.4556,-4.4187,-4.4347,-4.4716,-4.4221,-4.4141,-4.4442,-4.5472,-4.5777,-4.5791,-4.6674,-4.6852,-4.6493,-4.5699,-4.5563,-4.5854,-4.5854,-4.6346,-4.7169,-4.8183,-4.8496,-4.8784,-4.9863,-5.0141,-5.0325,-5.1132,-5.1353,-5.1577,-5.2573,-5.325,-5.3814,-5.424,-5.4647,-5.4962,-5.5172,-5.5369,-5.5504,-5.5504,-5.5583,-5.5959,-5.6867,-5.6805,-5.7024,-5.7994,-5.7823,-5.7469,-5.7148,-5.7115,-5.6971,-5.6621,-5.6606,-5.6606,-5.6606,-5.6606,-5.6575,-5.6549,-5.6518,-5.6503,-5.6503,-5.6048,-5.5826,-5.5904,-5.4956,-5.4749,-5.5197,-5.4788,-5.5022,-2.3135,-2.3144,-2.3232,-2.3416,-2.3503,-2.3533,-2.372,-2.4395,-2.4805,-2.4405,-2.4805,-2.5338,-2.5484,-2.6796,-2.8963,-3.2386,-3.2244,-3.2284,-3.4139,-3.3703,-3.378,-3.5301,-3.59,-3.6931,-3.8794,-3.9219,-3.9342,-3.9403,-4.0281,-4.0553,-3.9956,-4.158,-4.2484,-4.2073,-4.2927,-4.3268,-4.303,-4.3046,-4.3655,-4.4847,-4.4374,-4.4281,-4.4572,-4.4572,-4.4631,-4.4595,-4.4084,-4.4382,-4.5103,-4.4283,-4.4216,-4.4749,-4.5429,-4.5589,-4.5394,-4.6069,-4.6337,-4.6251,-4.5788,-4.5854,-4.6235,-4.6332,-4.6936,-4.7699,-4.8333,-4.8407,-4.8434,-4.9095,-4.9426,-4.9774,-5.0582,-5.1011,-5.1464,-5.2549,-5.3422,-5.4137,-5.4798,-5.499,-5.5172,-5.5461,-5.5527,-5.5608,-5.5819,-5.6019,-5.6499,-5.7581,-5.7737,-5.8098,-5.9074,-5.9061,-5.8721,-5.8163,-5.8109,-5.7777,-5.6957,-5.7074,-5.702,-5.6598,-5.6579,-5.6546,-5.6502,-5.6504,-5.65,-5.6507,-5.5831,-5.5828,-5.6491,-5.5163,-5.4846,-5.5509,-5.5509,-5.5509,-2.3135,-2.3319,-2.3503,-2.3503,-2.3503,-2.37,-2.4285,-2.4464,-2.471,-2.5535,-2.5699,-2.5905,-2.6561,-2.7763,-2.8965,-3.0102,-3.2052,-3.4047,-3.5849,-3.7317,-3.7916,-3.7066,-3.8524,-3.9323,-3.8489,-3.9094,-3.9377,-3.8815,-3.9666,-3.9929,-3.9305,-4.1015,-4.2117,-4.229,-4.2544,-4.3151,-4.4205,-4.2967,-4.2707,-4.3425,-4.3589,-4.3972,-4.4572,-4.4572,-4.4592,-4.4622,-4.4575,-4.4252,-4.3783,-4.4447,-4.439,-4.3997,-4.4867,-4.5292,-4.5386,-4.5457,-4.551,-4.5545,-4.5972,-4.6186,-4.6284,-4.6724,-4.7204,-4.7591,-4.7663,-4.7992,-4.8324,-4.8379,-4.8967,-4.9774,-5.0582,-5.1597,-5.2605,-5.3498,-5.4284,-5.4847,-5.4971,-5.5301,-5.5573,-5.5596,-5.564,-5.5953,-5.6761,-5.7004,-5.7673,-5.9358,-5.9134,-5.9113,-5.9981,-5.9508,-5.9061,-5.9007,-5.9007,-5.8656,-5.7797,-5.846,-5.8238,-5.6618,-5.65,-5.65,-5.6502,-5.651,-5.6494,-5.6494,-5.6445,-5.6433,-5.6492,-5.6375,-5.6347,-5.6405,-5.6405,-5.6405,-2.325,-2.3305,-2.3423,-2.3877,-2.3937,-2.3988,-2.4247,-2.5082,-2.5622,-2.5079,-2.64,-2.7689,-2.8019,-3.0024,-3.181,-3.2321,-3.4267,-3.6185,-3.7343,-3.7758,-3.8019,-3.8117,-3.8769,-3.9146,-3.919,-3.9047,-3.9228,-3.952,-4.0124,-4.0597,-4.0958,-4.2319,-4.309,-4.3155,-4.3482,-4.3457,-4.3043,-4.2702,-4.2437,-4.2283,-4.3187,-4.371,-4.4016,-4.4371,-4.4595,-4.4583,-4.4166,-4.4383,-4.5019,-4.4422,-4.4649,-4.5331,-4.5312,-4.5363,-4.5423,-4.5752,-4.5905,-4.5955,-4.6459,-4.6817,-4.7115,-4.7291,-4.7632,-4.8035,-4.8035,-4.8172,-4.8326,-4.855,-4.9603,-5.0712,-5.1027,-5.1844,-5.2897,-5.4199,-5.472,-5.5045,-5.5301,-5.5485,-5.5618,-5.564,-5.6192,-5.6753,-5.7081,-5.7746,-5.8667,-5.986,-5.9921,-6.0145,-6.1023,-6.0885,-6.051,-5.9963,-5.9417,-5.8968,-5.8636,-5.8909,-5.8821,-5.8162,-5.7615,-5.707,-5.6527,-5.6504,-5.6497,-5.6503,-5.65,-5.6503,-5.6503,-5.6503,-5.6503,-5.6503,-5.6503,-5.6503,-2.3826,-2.3791,-2.3724,-2.4447,-2.4444,-2.4292,-2.4292,-2.5333,-2.6172,-2.5862,-2.7208,-2.8641,-2.9207,-3.0992,-3.2624,-3.3338,-3.5411,-3.7178,-3.7764,-3.7883,-3.8028,-3.8436,-3.8776,-3.9092,-3.9401,-3.9283,-3.9347,-3.9946,-4.039,-4.0996,-4.1767,-4.2585,-4.3225,-4.3592,-4.3396,-4.3057,-4.2368,-4.2283,-4.2155,-4.1938,-4.3325,-4.38,-4.3599,-4.4086,-4.4367,-4.4577,-4.4188,-4.4603,-4.547,-4.4606,-4.4958,-4.5969,-4.5577,-4.5511,-4.5718,-4.6038,-4.6284,-4.6507,-4.6936,-4.7335,-4.7632,-4.7756,-4.8035,-4.8306,-4.8306,-4.8364,-4.855,-4.9061,-5.0315,-5.1537,-5.1918,-5.2675,-5.3607,-5.4695,-5.5072,-5.5275,-5.5573,-5.5618,-5.5662,-5.5748,-5.6309,-5.6975,-5.7567,-5.8355,-5.9298,-6.0447,-6.0724,-6.1037,-6.1622,-6.1701,-6.1466,-6.0861,-6.0276,-5.9812,-5.9527,-5.9759,-5.9687,-5.9099,-5.8513,-5.7921,-5.7309,-5.6784,-5.6627,-5.6873,-5.6619,-5.6503,-5.6503,-5.6503,-5.6503,-5.6503,-5.6503,-5.6503,-2.4798,-2.4659,-2.4444,-2.5242,-2.502,-2.454,-2.454,-2.5233,-2.6394,-2.8309,-2.836,-2.85,-3.0096,-3.0191,-3.0616,-3.2524,-3.4958,-3.6754,-3.7011,-3.7978,-3.8501,-3.7965,-3.8906,-3.9493,-3.9243,-3.9753,-3.9974,-3.9606,-4.0449,-4.1098,-4.1324,-4.156,-4.2228,-4.3257,-4.1943,-4.1648,-4.2586,-4.1862,-4.1904,-4.2616,-4.4005,-4.4276,-4.3589,-4.3589,-4.3989,-4.461,-4.4743,-4.4817,-4.4831,-4.5086,-4.53,-4.5423,-4.5423,-4.5701,-4.6186,-4.6186,-4.6507,-4.6981,-4.7464,-4.7591,-4.7674,-4.8132,-4.8306,-4.8306,-4.8306,-4.8532,-4.8983,-4.9836,-5.0931,-5.2102,-5.327,-5.4249,-5.4933,-5.4971,-5.5301,-5.5618,-5.5703,-5.5684,-5.5728,-5.588,-5.5915,-5.6507,-5.8381,-5.8829,-5.9512,-6.1237,-6.1602,-6.1701,-6.1701,-6.1701,-6.1701,-6.1701,-6.1701,-6.1342,-6.0485,-6.1208,-6.0936,-5.9148,-5.9026,-5.9006,-5.8987,-5.74,-5.6873,-5.7672,-5.6912,-5.6503,-5.6503,-5.6503,-5.6503,-5.6503,-5.6503,-5.6503,-2.4265,-2.4217,-2.4304,-2.5419,-2.5094,-2.4786,-2.6008,-2.583,-2.6197,-2.8923,-2.9403,-2.984,-3.1564,-3.2809,-3.3507,-3.3446,-3.5737,-3.7404,-3.7063,-3.7665,-3.8333,-3.8729,-3.91,-3.9528,-4.0114,-3.9951,-3.9999,-4.056,-4.0517,-4.0837,-4.1501,-4.1941,-4.2297,-4.257,-4.2333,-4.2355,-4.2604,-4.2385,-4.2341,-4.2543,-4.2928,-4.3557,-4.4359,-4.487,-4.5159,-4.5351,-4.4934,-4.4851,-4.4978,-4.5247,-4.5353,-4.5423,-4.5803,-4.6038,-4.6266,-4.6936,-4.7291,-4.7464,-4.7955,-4.8075,-4.8132,-4.8249,-4.8306,-4.8326,-4.8586,-4.8711,-4.8956,-4.9695,-5.0986,-5.2285,-5.2875,-5.4174,-5.532,-5.5345,-5.5508,-5.5705,-5.5808,-5.5845,-5.588,-5.6001,-5.7113,-5.8196,-5.8734,-5.9974,-6.103,-6.1556,-6.1671,-6.1701,-6.1701,-6.1701,-6.1701,-6.1701,-6.1701,-6.1596,-6.1345,-6.1516,-6.1393,-6.086,-6.0242,-5.9362,-5.8133,-5.7065,-5.66,-5.6853,-5.6619,-5.6503,-5.6503,-5.6503,-5.6795,-5.7321,-5.6756,-5.7069,-2.4617,-2.4492,-2.4525,-2.6086,-2.5841,-2.5432,-2.6565,-2.7105,-2.7738,-2.9567,-3.0266,-3.1112,-3.2865,-3.3639,-3.4203,-3.4334,-3.6172,-3.7416,-3.705,-3.7569,-3.8216,-3.8783,-3.8901,-3.9351,-4.0276,-4.0032,-4.0043,-4.0715,-4.0551,-4.0725,-4.1383,-4.1492,-4.1807,-4.2426,-4.2233,-4.2291,-4.2571,-4.2815,-4.2974,-4.2892,-4.3509,-4.4257,-4.5098,-4.4925,-4.5036,-4.5319,-4.5077,-4.5032,-4.514,-4.5318,-4.5701,-4.6187,-4.621,-4.6636,-4.7273,-4.7529,-4.7715,-4.7897,-4.821,-4.8306,-4.8306,-4.8476,-4.8495,-4.855,-4.89,-4.9323,-4.9884,-5.0619,-5.1885,-5.321,-5.4123,-5.4915,-5.5504,-5.5504,-5.5643,-5.5808,-5.588,-5.5946,-5.602,-5.6146,-5.7362,-5.8507,-5.8909,-6.0196,-6.131,-6.1642,-6.1701,-6.1701,-6.1701,-6.1694,-6.1701,-6.1701,-6.1677,-6.1659,-6.1656,-6.1627,-6.1595,-6.1588,-6.0776,-5.9659,-5.8276,-5.7418,-5.697,-5.697,-5.6658,-5.6503,-5.6503,-5.6503,-5.6912,-5.7691,-5.7118,-5.7531,-2.5421,-2.5179,-2.5031,-2.6905,-2.6823,-2.6318,-2.6565,-2.8622,-3.0337,-3.0185,-3.1028,-3.2281,-3.3953,-3.3594,-3.3576,-3.5024,-3.6214,-3.6907,-3.693,-3.7651,-3.8288,-3.8447,-3.8616,-3.9088,-4.0046,-4.008,-4.0129,-4.0442,-4.0543,-4.0731,-4.1035,-4.0668,-4.1078,-4.2556,-4.1939,-4.1869,-4.2486,-4.3164,-4.3479,-4.3488,-4.4908,-4.5602,-4.5585,-4.4282,-4.408,-4.4831,-4.5086,-4.53,-4.5476,-4.5476,-4.6221,-4.7269,-4.6685,-4.7397,-4.8713,-4.8013,-4.8065,-4.8416,-4.8343,-4.8306,-4.8402,-4.8676,-4.8816,-4.89,-4.9221,-5.0118,-5.1158,-5.1988,-5.3022,-5.4243,-5.5829,-5.5825,-5.5416,-5.5416,-5.5653,-5.5915,-5.593,-5.6015,-5.6178,-5.6405,-5.7143,-5.8044,-5.9056,-5.9944,-6.0783,-6.1583,-6.1701,-6.1701,-6.1701,-6.1707,-6.1697,-6.1697,-6.1638,-6.16,-6.1607,-6.1595,-6.1595,-6.1597,-6.0867,-6.0029,-5.9152,-5.8217,-5.7691,-5.7691,-5.697,-5.66,-5.66,-5.66,-5.7029,-5.777,-5.7527,-5.7935,-2.502,-2.5115,-2.5285,-2.6434,-2.708,-2.7476,-2.7695,-2.908,-3.0212,-2.9966,-3.1614,-3.3545,-3.4835,-3.492,-3.4873,-3.5273,-3.5861,-3.6397,-3.6592,-3.7196,-3.8073,-3.9434,-3.9642,-4.006,-4.1035,-4.0801,-4.0591,-4.0618,-4.0496,-4.06,-4.1174,-4.1221,-4.1654,-4.2494,-4.2349,-4.2323,-4.2433,-4.3171,-4.3481,-4.3418,-4.4378,-4.4823,-4.484,-4.5132,-4.5151,-4.4995,-4.514,-4.5529,-4.6055,-4.6055,-4.642,-4.7073,-4.7913,-4.8467,-4.8829,-4.9076,-4.9218,-4.9205,-4.8545,-4.8458,-4.8711,-4.8781,-4.9001,-4.9271,-4.957,-4.9917,-5.0259,-5.0713,-5.1499,-5.2296,-5.2682,-5.3778,-5.4786,-5.4786,-5.5362,-5.5962,-5.6169,-5.6242,-5.6503,-5.7322,-5.8173,-5.9051,-5.9963,-6.0842,-6.1486,-6.1681,-6.1701,-6.1701,-6.1701,-6.1707,-6.1697,-6.1697,-6.1648,-6.1593,-6.1601,-6.16,-6.1606,-6.1607,-6.1412,-6.0925,-6.0068,-5.8529,-5.7691,-5.7691,-5.7535,-5.7438,-5.7438,-5.7438,-5.7809,-5.8467,-5.7748,-5.8435,-2.5348,-2.5516,-2.6008,-2.7545,-2.8267,-2.8755,-2.8821,-2.9658,-3.0381,-3.0237,-3.2047,-3.377,-3.4371,-3.4698,-3.4959,-3.5247,-3.5534,-3.6036,-3.6845,-3.7345,-3.8098,-3.9518,-3.9795,-4.0085,-4.0663,-4.0492,-4.0481,-4.0806,-4.0832,-4.1091,-4.1771,-4.1901,-4.2269,-4.2953,-4.2953,-4.3152,-4.3421,-4.3437,-4.3608,-4.3978,-4.4012,-4.4177,-4.4502,-4.5069,-4.5391,-4.5442,-4.5632,-4.602,-4.6554,-4.6554,-4.703,-4.7823,-4.8121,-4.8605,-4.9127,-4.8595,-4.8912,-4.9428,-4.8348,-4.8566,-4.9352,-4.9308,-4.9394,-4.9599,-4.9981,-5.0411,-5.0784,-5.1009,-5.2024,-5.3145,-5.355,-5.4455,-5.5378,-5.586,-5.6038,-5.6122,-5.627,-5.6379,-5.6706,-5.7616,-5.8499,-5.9378,-6.0256,-6.1115,-6.1701,-6.1701,-6.1701,-6.1705,-6.1701,-6.1678,-6.1659,-6.1653,-6.1627,-6.16,-6.16,-6.1586,-6.1607,-6.1607,-6.1607,-6.1218,-6.0341,-5.9425,-5.8743,-5.8334,-5.8314,-5.8314,-5.8314,-5.8228,-5.8569,-5.9308,-5.8654,-5.9205,-2.603,-2.6416,-2.6964,-2.8966,-2.9459,-2.9537,-2.9858,-3.0159,-3.0498,-3.0669,-3.222,-3.3561,-3.3456,-3.3966,-3.4528,-3.4933,-3.5247,-3.5796,-3.7094,-3.7682,-3.8232,-3.9247,-3.9563,-3.9839,-3.9996,-4.0137,-4.0439,-4.1008,-4.1327,-4.1771,-4.2458,-4.2469,-4.2774,-4.3448,-4.339,-4.3521,-4.3995,-4.3487,-4.3487,-4.3995,-4.3579,-4.3611,-4.4162,-4.463,-4.5234,-4.5874,-4.6196,-4.6602,-4.7044,-4.7044,-4.7687,-4.8659,-4.8151,-4.8543,-4.9205,-4.7829,-4.8216,-4.9286,-4.8192,-4.877,-4.9963,-4.9995,-4.9971,-4.9981,-5.0283,-5.0933,-5.1571,-5.1757,-5.2916,-5.4301,-5.5185,-5.5622,-5.6064,-5.6894,-5.6708,-5.6391,-5.6527,-5.6575,-5.6938,-5.8031,-5.8948,-5.9788,-6.049,-6.1213,-6.1701,-6.1709,-6.1709,-6.1701,-6.1678,-6.1637,-6.1596,-6.1607,-6.1592,-6.1607,-6.1607,-6.1607,-6.1607,-6.1607,-6.1607,-6.1276,-6.0555,-6.0516,-6.0185,-5.9464,-5.9289,-5.9211,-5.9211,-5.9017,-5.9274,-5.9939,-5.957,-5.985,-2.6869,-2.7593,-2.8335,-2.9381,-2.9135,-2.8978,-3.0508,-3.0318,-3.0061,-3.0788,-3.2345,-3.343,-3.2908,-3.3679,-3.4267,-3.3875,-3.4846,-3.5966,-3.6819,-3.7758,-3.8634,-3.9499,-3.9828,-3.9996,-4.0011,-4.0699,-4.1142,-4.126,-4.1949,-4.2645,-4.3317,-4.2739,-4.2717,-4.3373,-4.2804,-4.2216,-4.166,-4.2185,-4.2185,-4.166,-4.2621,-4.3199,-4.3545,-4.3985,-4.4735,-4.562,-4.6468,-4.7071,-4.7506,-4.7506,-4.7847,-4.8449,-4.9072,-4.8983,-4.8453,-4.8233,-4.8477,-4.8895,-4.8776,-4.9209,-4.9939,-5.0685,-5.066,-5.0325,-5.0371,-5.0555,-5.0911,-5.1738,-5.2191,-5.264,-5.3637,-5.4555,-5.5247,-5.5392,-5.5991,-5.6753,-5.7456,-5.707,-5.7289,-5.9592,-6.0764,-6.1388,-6.1505,-6.1622,-6.169,-6.1692,-6.1695,-6.1679,-6.1616,-6.1612,-6.1607,-6.1601,-6.1592,-6.1607,-6.1607,-6.1607,-6.1607,-6.1607,-6.1607,-6.1549,-6.1432,-6.1432,-6.1373,-6.1257,-6.0516,-6.0126,-6.0126,-5.9911,-5.9793,-5.9724,-5.9507,-5.9753,-2.8059,-2.9118,-2.9947,-3.0343,-3.0101,-3.0024,-3.0823,-3.0659,-3.0508,-3.0898,-3.1849,-3.2529,-3.2267,-3.2881,-3.3618,-3.4166,-3.4562,-3.548,-3.7472,-3.7565,-3.7923,-3.9273,-3.9139,-3.9183,-3.9637,-4.041,-4.096,-4.1294,-4.2015,-4.2558,-4.2808,-4.2529,-4.2488,-4.2777,-4.2472,-4.2134,-4.1813,-4.1728,-4.1647,-4.1612,-4.2236,-4.284,-4.3536,-4.3815,-4.4492,-4.5365,-4.6241,-4.6897,-4.7338,-4.7338,-4.7417,-4.7627,-4.7553,-4.7278,-4.693,-4.6651,-4.7527,-4.872,-4.8227,-4.9467,-5.1269,-5.1364,-5.1291,-5.1188,-5.1238,-5.1318,-5.1487,-5.2027,-5.2945,-5.3883,-5.4334,-5.5194,-5.5951,-5.5951,-5.6611,-5.7504,-5.8343,-5.7875,-5.7894,-5.9983,-6.1095,-6.1701,-6.1701,-6.1697,-6.1709,-6.1697,-6.168,-6.1635,-6.1592,-6.1593,-6.1589,-6.16,-6.1606,-6.1607,-6.1607,-6.1607,-6.1607,-6.1607,-6.1607,-6.1607,-6.1607,-6.1607,-6.1607,-6.1607,-6.1218,-6.0974,-6.0849,-6.0662,-6.0459,-6.0261,-6.0051,-6.0116,-2.9137,-3.0125,-3.0803,-3.0947,-3.0986,-3.0986,-3.0986,-3.0986,-3.0986,-3.0986,-3.1465,-3.1906,-3.1906,-3.25,-3.3316,-3.4426,-3.4651,-3.5423,-3.7565,-3.7396,-3.7539,-3.8818,-3.8703,-3.8707,-3.9361,-4.0165,-4.0845,-4.1262,-4.1986,-4.2351,-4.232,-4.2117,-4.2016,-4.2016,-4.183,-4.1728,-4.1728,-4.1325,-4.1321,-4.1804,-4.2056,-4.2582,-4.3324,-4.3638,-4.4155,-4.4828,-4.6027,-4.6661,-4.6819,-4.704,-4.7003,-4.6746,-4.6249,-4.5898,-4.5694,-4.5639,-4.6818,-4.8415,-4.8143,-4.9746,-5.1891,-5.1697,-5.159,-5.1586,-5.1855,-5.1998,-5.2201,-5.2838,-5.4023,-5.5155,-5.5404,-5.6029,-5.6606,-5.6606,-5.7211,-5.8031,-5.8909,-5.8948,-5.9104,-6.0198,-6.1095,-6.1701,-6.169,-6.1709,-6.1698,-6.1679,-6.1633,-6.1592,-6.1609,-6.1602,-6.1607,-6.1597,-6.1607,-6.1607,-6.1607,-6.1607,-6.1607,-6.1607,-6.1607,-6.1607,-6.1607,-6.1607,-6.1607,-6.1607,-6.1607,-6.1498,-6.1303,-6.1092,-6.0884,-6.0704,-6.0487,-6.0389,-2.9718,-3.0103,-3.0307,-3.0856,-3.0986,-3.0986,-3.0986,-3.0986,-3.0986,-3.0986,-3.1556,-3.2055,-3.2055,-3.303,-3.3867,-3.4105,-3.5339,-3.6299,-3.6443,-3.7473,-3.8147,-3.8259,-3.89,-3.9314,-3.9424,-4.0507,-4.1262,-4.1286,-4.1909,-4.232,-4.2286,-4.1644,-4.1271,-4.1271,-4.0561,-4.0189,-4.0189,-4.0617,-4.1071,-4.1552,-4.2086,-4.2472,-4.2595,-4.3178,-4.3503,-4.3701,-4.6049,-4.6635,-4.6012,-4.6801,-4.6654,-4.5993,-4.6255,-4.5923,-4.5342,-4.6443,-4.7089,-4.7701,-4.9309,-5.0193,-5.0728,-5.1456,-5.1318,-5.0999,-5.1766,-5.2138,-5.2663,-5.445,-5.503,-5.5319,-5.628,-5.6563,-5.6606,-5.6606,-5.7211,-5.8031,-5.8909,-6.0354,-6.1291,-6.0549,-6.1095,-6.169,-6.1694,-6.1697,-6.1679,-6.1598,-6.1607,-6.1609,-6.1606,-6.1597,-6.1597,-6.1607,-6.1607,-6.1607,-6.1607,-6.1607,-6.1607,-6.1607,-6.1607,-6.1607,-6.1607,-6.1607,-6.1607,-6.1607,-6.1607,-6.1498,-6.1303,-6.1092,-6.0884,-6.0704,-6.0487,-6.0389,-2.9366,-2.9588,-2.9719,-3.0294,-3.0438,-3.0529,-3.0895,-3.1408,-3.175,-3.175,-3.2376,-3.3143,-3.3616,-3.3649,-3.3944,-3.4879,-3.5317,-3.6037,-3.7376,-3.7334,-3.7417,-3.82,-3.8229,-3.8428,-3.9186,-4.0087,-4.0629,-4.057,-4.1201,-4.139,-4.0899,-4.0629,-4.0612,-4.0942,-4.0668,-4.0707,-4.1001,-4.1185,-4.1543,-4.2074,-4.2342,-4.2675,-4.3069,-4.3358,-4.3463,-4.3571,-4.4966,-4.5406,-4.5149,-4.5443,-4.553,-4.5386,-4.4999,-4.4799,-4.4832,-4.6021,-4.6853,-4.7604,-4.8999,-5.0303,-5.1389,-5.1722,-5.2124,-5.2546,-5.2952,-5.3563,-5.4264,-5.5003,-5.5625,-5.6152,-5.6504,-5.6977,-5.7641,-5.8773,-5.9261,-5.971,-6.0588,-6.0822,-6.0939,-6.1193,-6.1483,-6.1692,-6.1697,-6.1656,-6.1635,-6.1607,-6.1595,-6.1595,-6.1588,-6.1607,-6.1607,-6.1607,-6.1607,-6.1607,-6.1607,-6.1607,-6.1607,-6.1607,-6.1607,-6.1607,-6.1607,-6.1607,-6.1607,-6.1607,-6.1607,-6.1433,-6.1109,-6.1039,-6.0841,-6.0514,-6.0425,-6.038,-2.8817,-2.8974,-2.917,-2.9941,-3.0137,-3.0354,-3.1201,-3.1809,-3.229,-3.2506,-3.3283,-3.4124,-3.4595,-3.4528,-3.4727,-3.5585,-3.5618,-3.5959,-3.7338,-3.7341,-3.7513,-3.832,-3.8642,-3.908,-3.9863,-4.0367,-4.0584,-4.0493,-4.0679,-4.0612,-4.0104,-4.007,-4.0303,-4.0802,-4.0972,-4.1276,-4.1803,-4.1803,-4.2098,-4.2673,-4.277,-4.3032,-4.3394,-4.3463,-4.3497,-4.3516,-4.4066,-4.4305,-4.4323,-4.472,-4.4835,-4.4779,-4.4416,-4.4402,-4.4693,-4.5889,-4.6694,-4.7392,-4.8773,-5.0048,-5.1125,-5.1447,-5.2059,-5.2796,-5.3517,-5.4192,-5.4866,-5.5543,-5.6157,-5.6606,-5.6606,-5.6996,-5.7894,-5.9924,-6.0178,-6.028,-6.144,-6.126,-6.1002,-6.1596,-6.169,-6.1698,-6.1678,-6.1635,-6.1595,-6.1595,-6.1595,-6.1607,-6.1607,-6.1607,-6.1607,-6.1607,-6.1607,-6.1607,-6.1607,-6.1607,-6.1607,-6.1607,-6.1607,-6.1607,-6.1607,-6.1607,-6.1607,-6.1607,-6.1568,-6.1376,-6.1002,-6.1002,-6.0798,-6.0389,-6.038,-6.0323,0.0,0.0,0.0,-2.9797,-3.0085,-3.0533,-3.178,-3.2277,-3.2648,-3.3353,-3.4259,-3.4957,-3.4957,-3.5608,-3.6148,-3.6037,-3.6148,-3.6211,-3.6196,-3.756,-3.8534,-3.8534,-4.0212,-4.1432,-4.1415,-4.1308,-4.1221,-4.1204,-4.0527,-4.0155,-4.0121,-4.0171,-4.0353,-4.0849,-4.1321,-4.1846,-4.2418,-4.2418,-4.2673,-4.3214,-4.334,-4.3394,-4.3394,-4.3463,-4.3532,-4.3513,-4.3513,-4.3513,-4.3603,-4.4712,-4.4692,-4.4079,-4.4599,-4.4849,-4.5057,-4.6175,-4.6684,-4.705,-4.8702,-4.9409,-4.9741,-5.0592,-5.1035,-5.1554,-5.3276,-5.391,-5.44,-5.6118,-5.6606,-5.6606,-5.6665,-5.6665,-5.7309,-5.9846,-5.9788,-5.964,-6.1324,-6.1704,-6.1694,-6.1695,-6.1698,-6.1679,-6.1618,-6.1601,-6.1602,-6.1597,-6.1607,-6.1607,-6.1607,-6.1607,-6.1607,-6.1607,-6.1607,-6.1607,-6.1607,-6.1607,-6.1607,-6.1607,-6.1607,-6.1607,-6.1607,-6.1607,-6.1607,-6.1607,-6.1526,-6.1342,-6.0983,-6.1002,-6.0798,-6.0389,-6.0323,-6.0186,-2.8133,0.0,0.0,0.0,0.0,0.0,-3.2384,-3.3425,-3.4259,-3.4461,-3.5204,-3.5864,-3.5864,-3.6148,-3.6414,-3.6367,-3.6414,-3.6585,-3.6997,-3.7865,-3.8818,-3.9691,-4.0743,-4.1599,-4.2001,-4.1994,-4.1762,-4.1238,-4.1018,-4.0781,-4.0614,-4.123,-4.1674,-4.1803,-4.2338,-4.2747,-4.288,-4.2938,-4.3087,-4.334,-4.3394,-4.3411,-4.3463,-4.3497,-4.3615,-4.3878,-4.3878,-4.3999,-4.4231,-4.4302,-4.4456,-4.465,-4.48,-4.503,-4.5378,-4.6378,-4.6762,-4.6973,-4.8155,-4.9042,-4.9655,-5.004,-5.1064,-5.2368,-5.3585,-5.4411,-5.5162,-5.6294,-5.6606,-5.6879,-5.8089,-5.8402,-5.8894,-6.0869,-6.1165,-6.109,-6.1522,-6.1639,-6.162,-6.1638,-6.1626,-6.1627,-6.1607,-6.1607,-6.1595,-6.1588,-6.1607,-6.1607,-6.1607,-6.1607,-6.1607,-6.1607,-6.1607,-6.1607,-6.1607,-6.1607,-6.1607,-6.1607,-6.1607,-6.1607,-6.1607,-6.1548,-6.1526,-6.1526,-6.1467,-6.1197,-6.0783,-6.0883,-6.0704,-6.0323,-6.0156,-6.0045,-2.8867,-2.9156,-2.9652,-3.0485,0.0,0.0,-3.3345,-3.4317,-3.5073,-3.54,-3.5943,-3.6352,-3.6352,-3.6646,-3.6907,-3.6907,-3.7118,-3.7282,-3.7417,-3.8702,-3.9959,-4.0674,-4.1955,-4.2886,-4.325,-4.2946,-4.2455,-4.1711,-4.1563,-4.1368,-4.11,-4.1846,-4.2297,-4.2297,-4.2862,-4.316,-4.3215,-4.3269,-4.334,-4.3446,-4.3446,-4.3463,-4.3497,-4.3497,-4.3682,-4.4005,-4.3999,-4.4242,-4.465,-4.4484,-4.4624,-4.4943,-4.5074,-4.5243,-4.5515,-4.6105,-4.635,-4.6574,-4.7918,-4.8761,-4.9357,-5.0177,-5.1167,-5.2291,-5.3591,-5.4342,-5.5025,-5.6255,-5.6606,-5.6996,-5.8656,-5.882,-5.9087,-6.1207,-6.1425,-6.1249,-6.1545,-6.1596,-6.1596,-6.1596,-6.1598,-6.1595,-6.1595,-6.1595,-6.1607,-6.1607,-6.1607,-6.1607,-6.1607,-6.1607,-6.1607,-6.1607,-6.1938,-6.1997,-6.1627,-6.1938,-6.1997,-6.1627,-6.1607,-6.1598,-6.1558,-6.1526,-6.1491,-6.1467,-6.1361,-6.1113,-6.067,-6.0757,-6.0589,-6.0156,-6.0045,-6.0153,-3.0172,-3.0233,-3.0582,-3.1774,-3.2184,0.0,-3.4573,-3.5145,-3.5449,-3.607,-3.6352,-3.6492,-3.6492,-3.7013,-3.7417,-3.7417,-3.7953,-3.8238,-3.7695,-3.9813,-4.1415,-4.1488,-4.3345,-4.4587,-4.4587,-4.3944,-4.3234,-4.2562,-4.2257,-4.194,-4.1622,-4.2157,-4.2516,-4.2516,-4.2957,-4.3286,-4.3394,-4.3429,-4.3446,-4.3497,-4.3497,-4.3497,-4.3497,-4.3548,-4.3749,-4.4048,-4.4095,-4.4428,-4.4985,-4.503,-4.5052,-4.5074,-4.5322,-4.5457,-4.5547,-4.5658,-4.5747,-4.6067,-4.7781,-4.8525,-4.895,-5.0548,-5.1219,-5.1726,-5.3463,-5.401,-5.4361,-5.6118,-5.6665,-5.7094,-5.8699,-5.8602,-5.869,-6.1113,-6.1091,-6.0721,-6.1445,-6.1595,-6.1595,-6.1595,-6.1595,-6.1595,-6.1597,-6.1607,-6.1607,-6.1607,-6.1607,-6.1607,-6.1607,-6.1607,-6.1607,-6.1607,-6.2289,-6.2445,-6.1666,-6.2309,-6.2426,-6.1646,-6.1578,-6.1558,-6.1503,-6.1491,-6.1434,-6.1381,-6.12,-6.0983,-6.0743,-6.0685,-6.0425,-5.9994,-6.0089,-6.0462,-3.1217,-3.1584,-3.2198,-3.2986,-3.4029,0.0,-3.5293,-3.5829,-3.6289,-3.6414,-3.6492,-3.6492,-3.6492,-3.7013,-3.7417,-3.7417,-3.8294,-3.8974,-3.8865,-4.0337,-4.1599,-4.2055,-4.3584,-4.4587,-4.4587,-4.4451,-4.4232,-4.3838,-4.3494,-4.2952,-4.2251,-4.275,-4.3032,-4.3032,-4.3251,-4.3376,-4.3394,-4.3446,-4.3497,-4.3497,-4.3497,-4.3497,-4.3532,-4.3781,-4.4091,-4.4411,-4.4631,-4.4966,-4.5381,-4.54,-4.54,-4.5419,-4.5457,-4.5582,-4.5737,-4.5766,-4.5809,-4.6044,-4.7211,-4.8098,-4.8879,-4.9962,-5.0801,-5.1726,-5.3463,-5.401,-5.4361,-5.6118,-5.7074,-5.7805,-5.8821,-5.9489,-6.0176,-6.1346,-6.1481,-6.1406,-6.1564,-6.1606,-6.1606,-6.1606,-6.1606,-6.1606,-6.1588,-6.1607,-6.1607,-6.1607,-6.1607,-6.1607,-6.1607,-6.1607,-6.1607,-6.1607,-6.1744,-6.1783,-6.1607,-6.1763,-6.1783,-6.1607,-6.1548,-6.1515,-6.1503,-6.1342,-6.1248,-6.1252,-6.0822,-6.0935,-6.155,-6.0782,-6.0237,-6.0013,-6.0614,-6.0961,-3.3021,-3.3261,-3.368,-3.4349,-3.5033,0.0,0.0,-3.6245,-3.6616,-3.6892,-3.6952,-3.7058,-3.7326,-3.7911,-3.8311,-3.8311,-3.9082,-3.9644,-3.9644,-4.0598,-4.1543,-4.2236,-4.3301,-4.4147,-4.4536,-4.4814,-4.4819,-4.4466,-4.3924,-4.336,-4.2842,-4.3123,-4.3305,-4.3305,-4.3411,-4.3446,-4.3446,-4.3497,-4.3497,-4.3479,-4.3682,-4.3749,-4.3749,-4.406,-4.4374,-4.4701,-4.4872,-4.5159,-4.5495,-4.555,-4.5584,-4.5648,-4.5648,-4.5712,-4.5866,-4.6399,-4.662,-4.685,-4.825,-4.9034,-4.9547,-5.0449,-5.1336,-5.2292,-5.36,-5.4615,-5.5478,-5.6312,-5.7154,-5.7999,-5.8867,-5.9723,-6.0552,-6.1398,-6.1602,-6.1592,-6.1597,-6.1607,-6.1607,-6.1607,-6.1607,-6.1607,-6.1607,-6.1607,-6.1607,-6.1607,-6.1607,-6.1607,-6.1607,-6.1607,-6.1607,-6.1607,-6.1997,-6.2075,-6.1646,-6.2367,-6.2474,-6.1606,-6.1923,-6.1907,-6.1361,-6.1248,-6.1397,-6.1791,-6.1472,-6.1665,-6.2387,-6.1373,-6.0787,-6.0557,-6.0942,-6.1553,-3.4837,-3.4895,-3.505,-3.5836,-3.6066,-3.6146,0.0,0.0,0.0,-3.746,-3.7578,-3.7738,-3.8238,-3.8794,-3.9206,-3.9206,-3.9696,-4.007,-4.007,-4.0595,-4.1255,-4.1999,-4.285,-4.36,-4.4228,-4.4837,-4.5036,-4.4729,-4.415,-4.3656,-4.3251,-4.334,-4.3411,-4.3411,-4.3463,-4.3497,-4.3497,-4.3497,-4.3497,-4.3479,-4.3828,-4.4017,-4.3999,-4.4374,-4.4676,-4.4943,-4.5052,-4.5283,-4.5547,-4.5618,-4.5712,-4.5822,-4.5814,-4.5822,-4.5976,-4.7025,-4.7411,-4.7684,-4.9489,-5.0106,-5.0243,-5.1121,-5.2101,-5.3104,-5.3959,-5.5329,-5.6568,-5.6521,-5.7246,-5.8203,-5.8897,-5.9812,-6.0737,-6.1433,-6.1612,-6.1607,-6.1607,-6.1607,-6.1607,-6.1607,-6.1607,-6.1607,-6.1607,-6.1607,-6.1607,-6.1607,-6.1607,-6.1607,-6.1607,-6.1598,-6.1598,-6.1607,-6.2221,-6.2357,-6.1666,-6.2961,-6.3164,-6.16,-6.2432,-6.2444,-6.1239,-6.1358,-6.1888,-6.2878,-6.2541,-6.2666,-6.325,-6.2242,-6.1602,-6.1345,-6.1345,-6.2159,-3.6048,-3.6206,-3.6479,-3.7664,-3.7995,-3.8012,-3.8092,0.0,-3.8108,-3.8165,0.0,-3.8238,-3.8294,0.0,0.0,-3.9206,-3.9696,-4.007,-4.007,-4.0155,-4.0493,-4.1238,-4.2347,-4.3082,-4.3168,-4.4155,-4.4732,-4.47,-4.4587,-4.4163,-4.3431,-4.3446,-4.3497,-4.3497,-4.3497,-4.3497,-4.3497,-4.3497,-4.3497,-4.3479,-4.3836,-4.3986,-4.4016,-4.4657,-4.4985,-4.5096,-4.5342,-4.5582,-4.5771,-4.5771,-4.5829,-4.5867,-4.5815,-4.5914,-4.6174,-4.7065,-4.7482,-4.7815,-4.9517,-5.0106,-5.0243,-5.1121,-5.2504,-5.4001,-5.4821,-5.5742,-5.6518,-5.6499,-5.7688,-5.8956,-5.9002,-6.0241,-6.1472,-6.1576,-6.1597,-6.1607,-6.1607,-6.1607,-6.1607,-6.1607,-6.1607,-6.1607,-6.1607,-6.1607,-6.1607,-6.1607,-6.1607,-6.1607,-6.1607,-6.1548,-6.1537,-6.1588,-6.1645,-6.1634,-6.1607,-6.2374,-6.2476,-6.1562,-6.2881,-6.2942,-6.1259,-6.187,-6.3033,-6.4657,-6.3758,-6.3556,-6.4159,-6.3093,-6.2459,-6.2254,-6.2254,-6.2747,-3.7406,-3.752,-3.7641,-3.8157,-3.8278,-3.8278,-3.8278,-3.8278,-3.8407,-3.8739,0.0,0.0,0.0,0.0,0.0,0.0,-3.9918,-4.007,-4.007,-4.007,-4.0358,-4.1119,-4.1885,-4.2788,-4.3885,-4.4405,-4.4671,-4.466,-4.4618,-4.429,-4.3518,-4.3497,-4.3497,-4.3497,-4.3497,-4.3497,-4.3497,-4.3682,-4.3777,-4.3804,-4.429,-4.4535,-4.4587,-4.5033,-4.5263,-4.5342,-4.5526,-4.5692,-4.5794,-4.5835,-4.5919,-4.6005,-4.5988,-4.6327,-4.6963,-4.7878,-4.8567,-4.9228,-5.0438,-5.0848,-5.1086,-5.2468,-5.3378,-5.4198,-5.5546,-5.6206,-5.6493,-5.6497,-5.7723,-5.9041,-5.9014,-6.0286,-6.1603,-6.1597,-6.1607,-6.1607,-6.1607,-6.1607,-6.1607,-6.1607,-6.1607,-6.1607,-6.1607,-6.1607,-6.1607,-6.1607,-6.1607,-6.1598,-6.1548,-6.1515,-6.1503,-6.1491,-6.1467,-6.1434,-6.1491,-6.2672,-6.2807,-6.1405,-6.2366,-6.2876,-6.2662,-6.2955,-6.3729,-6.4967,-6.4393,-6.4397,-6.5033,-6.3981,-6.36,-6.3846,-6.3334,-6.3562,-3.8518,-3.8574,-3.8574,-3.8723,-3.8778,-3.8778,-3.8778,-3.8778,-3.8903,-3.9365,-3.9418,0.0,0.0,0.0,-4.0121,-4.0138,0.0,-4.0221,-4.0336,-4.0385,-4.0491,-4.0883,-4.1484,-4.2594,-4.4456,-4.4471,-4.4418,-4.4602,-4.44,-4.4069,-4.3516,-4.3497,-4.3497,-4.3497,-4.3582,-4.3649,-4.3649,-4.3968,-4.4162,-4.4146,-4.4707,-4.4985,-4.503,-4.5322,-4.5494,-4.5582,-4.5692,-4.5789,-4.5891,-4.5929,-4.6021,-4.615,-4.615,-4.6813,-4.7872,-4.8552,-4.9345,-5.0223,-5.1089,-5.1391,-5.1672,-5.3417,-5.3942,-5.4223,-5.598,-5.6657,-5.6821,-5.6829,-5.8052,-5.9365,-5.9365,-6.0302,-6.1295,-6.1549,-6.1412,-6.1315,-6.1549,-6.1607,-6.1588,-6.1588,-6.1568,-6.1568,-6.1568,-6.1598,-6.1607,-6.1607,-6.1578,-6.1548,-6.1503,-6.1447,-6.1421,-6.1414,-6.158,-6.1716,-6.173,-6.3269,-6.3751,-6.264,-6.2684,-6.3245,-6.4329,-6.4155,-6.4445,-6.5315,-6.5131,-6.5216,-6.5589,-6.4804,-6.4597,-6.4888,-6.4017,-6.4073,-3.9028,-3.9152,-3.9312,-3.9918,-4.002,-4.002,-4.002,-4.002,-4.007,-4.007,-4.007,-4.0087,-4.0087,-4.007,-4.0138,-4.0288,-4.0288,0.0,0.0,-4.1076,-4.0832,-4.0205,-4.1071,-4.243,-4.4251,-4.3834,-4.3743,-4.4547,-4.3923,-4.3516,-4.3497,-4.3497,-4.3497,-4.3497,-4.3814,-4.3974,-4.3974,-4.4318,-4.4493,-4.4493,-4.4896,-4.5096,-4.5096,-4.5438,-4.5668,-4.58,-4.578,-4.5914,-4.6091,-4.6098,-4.6176,-4.63,-4.63,-4.7295,-4.8759,-4.8798,-4.9345,-5.0227,-5.1107,-5.1406,-5.1674,-5.3353,-5.3904,-5.4226,-5.5962,-5.7044,-5.7661,-5.7661,-5.8927,-6.0263,-6.0263,-6.0302,-6.0555,-6.1393,-6.0964,-6.0575,-6.1412,-6.1607,-6.1568,-6.1515,-6.1503,-6.1503,-6.1503,-6.1558,-6.1607,-6.1607,-6.1548,-6.1503,-6.1503,-6.1327,-6.1268,-6.14,-6.2044,-6.2493,-6.2551,-6.41,-6.5334,-6.6012,-6.4541,-6.4387,-6.605,-6.5373,-6.5334,-6.6147,-6.6147,-6.5974,-6.5589,-6.5569,-6.5337,-6.4888,-6.4017,-6.4073,-4.0868,-4.0915,-4.0932,-4.1094,-4.1157,-4.1065,-4.0659,-4.058,-4.0483,-4.0288,-4.0238,-4.032,-4.0689,-4.0767,-4.0861,-4.1213,-4.1303,-4.1348,0.0,-4.1552,-4.1639,-4.1785,-4.208,-4.2627,-4.3634,-4.3541,-4.3539,-4.3866,-4.3848,-4.3846,-4.3846,-4.4011,-4.4084,-4.4084,-4.4221,-4.4308,-4.4318,-4.4624,-4.48,-4.4896,-4.5222,-4.5419,-4.5558,-4.5677,-4.5775,-4.5863,-4.5959,-4.6052,-4.6105,-4.6206,-4.6269,-4.6358,-4.6944,-4.7822,-4.8798,-4.8798,-4.9729,-5.099,-5.1308,-5.1377,-5.1629,-5.3346,-5.3903,-5.4234,-5.5969,-5.6695,-5.7009,-5.7555,-5.8529,-5.9445,-5.9445,-5.9873,-6.036,-6.0672,-6.0516,-6.0536,-6.1412,-6.1558,-6.1526,-6.1503,-6.1467,-6.1421,-6.1421,-6.1434,-6.1491,-6.1526,-6.1515,-6.1447,-6.1313,-6.1756,-6.2056,-6.2078,-6.2798,-6.3301,-6.3319,-6.3863,-6.4754,-6.6108,-6.516,-6.5044,-6.6147,-6.5934,-6.5915,-6.6185,-6.6205,-6.5994,-6.5589,-6.5589,-6.5356,-6.4888,-6.4604,-6.4623,-4.1768,-4.181,-4.181,-4.176,-4.1717,-4.163,-4.1213,-4.1139,-4.1094,-4.0896,-4.0849,-4.0926,-4.1303,-4.1331,-4.1464,-4.181,-4.1853,-4.1937,0.0,-4.2306,-4.2523,-4.2939,-4.2714,-4.2808,-4.3376,-4.3446,-4.3497,-4.3649,-4.3878,-4.4048,-4.4151,-4.4289,-4.4383,-4.4383,-4.4493,-4.4572,-4.465,-4.4919,-4.5161,-4.5323,-4.5509,-4.5692,-4.5841,-4.5841,-4.5894,-4.5978,-4.6057,-4.6131,-4.6176,-4.6249,-4.6306,-4.6351,-4.6917,-4.7821,-4.884,-4.9157,-5.0166,-5.1406,-5.1377,-5.1546,-5.1999,-5.3436,-5.4117,-5.4632,-5.6074,-5.6697,-5.7029,-5.7555,-5.8548,-5.9464,-5.9464,-5.9639,-5.999,-6.0614,-6.0282,-6.0146,-6.1315,-6.1526,-6.1491,-6.1402,-6.1361,-6.1318,-6.1318,-6.1318,-6.1366,-6.1454,-6.1434,-6.1361,-6.1217,-6.1671,-6.2101,-6.2375,-6.3168,-6.3942,-6.4541,-6.458,-6.5044,-6.6127,-6.5702,-6.5663,-6.6185,-6.6205,-6.6205,-6.6205,-6.6205,-6.5994,-6.5589,-6.5589,-6.5356,-6.4907,-6.4907,-6.4907]}]]